<?xml version="1.0" encoding="UTF-8" standalone="no" ?>
<gpx xmlns="http://www.topografix.com/GPX/1/1" xmlns:xsi="http://www.w3.org/2001/XMLSchema-instance" xsi:schemaLocation="http://www.topografix.com/GPX/1/1 http://www.topografix.com/GPX/1/1/gpx.xsd" version="1.1" creator="VisuGPX - https://www.visugpx.com">
  <metadata>
    <name>Tete_du_Chateau</name>
    <desc><![CDATA[ASCEA Montagne - 21 Janvier 2017.]]></desc>
  </metadata>
  <trk>
    <name><![CDATA[2017-01-21 09:26:23_2]]></name>
    <trkseg>
      <trkpt lat="46.02283" lon="6.57962">
        <ele>1568.05</ele>
        <time>2017-01-21T08:56:06.000Z</time>
      </trkpt>
      <trkpt lat="46.02285" lon="6.57959">
        <ele>1569.01</ele>
        <time>2017-01-21T08:56:20.000Z</time>
      </trkpt>
      <trkpt lat="46.0228" lon="6.57957">
        <ele>1569.49</ele>
        <time>2017-01-21T08:56:35.000Z</time>
      </trkpt>
      <trkpt lat="46.02269" lon="6.57949">
        <ele>1571.41</ele>
        <time>2017-01-21T08:56:51.000Z</time>
      </trkpt>
      <trkpt lat="46.02268" lon="6.57947">
        <ele>1571.89</ele>
        <time>2017-01-21T08:56:54.000Z</time>
      </trkpt>
      <trkpt lat="46.02257" lon="6.57939">
        <ele>1574.3</ele>
        <time>2017-01-21T08:57:09.000Z</time>
      </trkpt>
      <trkpt lat="46.02248" lon="6.57932">
        <ele>1576.7</ele>
        <time>2017-01-21T08:57:22.000Z</time>
      </trkpt>
      <trkpt lat="46.02238" lon="6.57927">
        <ele>1578.62</ele>
        <time>2017-01-21T08:57:35.000Z</time>
      </trkpt>
      <trkpt lat="46.02232" lon="6.57921">
        <ele>1580.54</ele>
        <time>2017-01-21T08:57:49.000Z</time>
      </trkpt>
      <trkpt lat="46.02231" lon="6.57922">
        <ele>1580.54</ele>
        <time>2017-01-21T08:58:10.000Z</time>
      </trkpt>
      <trkpt lat="46.02233" lon="6.57929">
        <ele>1581.03</ele>
        <time>2017-01-21T08:58:31.000Z</time>
      </trkpt>
      <trkpt lat="46.0224" lon="6.5794">
        <ele>1582.47</ele>
        <time>2017-01-21T08:58:43.000Z</time>
      </trkpt>
      <trkpt lat="46.02247" lon="6.57953">
        <ele>1584.39</ele>
        <time>2017-01-21T08:58:57.000Z</time>
      </trkpt>
      <trkpt lat="46.02252" lon="6.5797">
        <ele>1586.31</ele>
        <time>2017-01-21T08:59:13.000Z</time>
      </trkpt>
      <trkpt lat="46.02254" lon="6.57984">
        <ele>1588.24</ele>
        <time>2017-01-21T08:59:27.000Z</time>
      </trkpt>
      <trkpt lat="46.02258" lon="6.57997">
        <ele>1590.64</ele>
        <time>2017-01-21T08:59:43.000Z</time>
      </trkpt>
      <trkpt lat="46.02262" lon="6.58013">
        <ele>1592.08</ele>
        <time>2017-01-21T08:59:58.000Z</time>
      </trkpt>
      <trkpt lat="46.02262" lon="6.58028">
        <ele>1594.48</ele>
        <time>2017-01-21T09:00:12.000Z</time>
      </trkpt>
      <trkpt lat="46.02261" lon="6.58042">
        <ele>1596.89</ele>
        <time>2017-01-21T09:00:26.000Z</time>
      </trkpt>
      <trkpt lat="46.02261" lon="6.58058">
        <ele>1599.29</ele>
        <time>2017-01-21T09:00:40.000Z</time>
      </trkpt>
      <trkpt lat="46.02259" lon="6.58072">
        <ele>1601.21</ele>
        <time>2017-01-21T09:00:55.000Z</time>
      </trkpt>
      <trkpt lat="46.02254" lon="6.58083">
        <ele>1602.66</ele>
        <time>2017-01-21T09:01:06.000Z</time>
      </trkpt>
      <trkpt lat="46.02253" lon="6.58087">
        <ele>1603.62</ele>
        <time>2017-01-21T09:01:11.000Z</time>
      </trkpt>
      <trkpt lat="46.02242" lon="6.58095">
        <ele>1604.58</ele>
        <time>2017-01-21T09:01:26.000Z</time>
      </trkpt>
      <trkpt lat="46.02232" lon="6.58102">
        <ele>1606.5</ele>
        <time>2017-01-21T09:01:40.000Z</time>
      </trkpt>
      <trkpt lat="46.02224" lon="6.58111">
        <ele>1607.46</ele>
        <time>2017-01-21T09:01:55.000Z</time>
      </trkpt>
      <trkpt lat="46.02216" lon="6.58123">
        <ele>1608.9</ele>
        <time>2017-01-21T09:02:07.000Z</time>
      </trkpt>
      <trkpt lat="46.02216" lon="6.58124">
        <ele>1608.9</ele>
        <time>2017-01-21T09:02:08.000Z</time>
      </trkpt>
      <trkpt lat="46.02205" lon="6.58134">
        <ele>1610.35</ele>
        <time>2017-01-21T09:02:23.000Z</time>
      </trkpt>
      <trkpt lat="46.02203" lon="6.58136">
        <ele>1610.83</ele>
        <time>2017-01-21T09:02:25.000Z</time>
      </trkpt>
      <trkpt lat="46.02195" lon="6.58147">
        <ele>1612.75</ele>
        <time>2017-01-21T09:02:41.000Z</time>
      </trkpt>
      <trkpt lat="46.02191" lon="6.58161">
        <ele>1614.67</ele>
        <time>2017-01-21T09:02:56.000Z</time>
      </trkpt>
      <trkpt lat="46.02187" lon="6.58171">
        <ele>1616.59</ele>
        <time>2017-01-21T09:03:08.000Z</time>
      </trkpt>
      <trkpt lat="46.02184" lon="6.58187">
        <ele>1618.52</ele>
        <time>2017-01-21T09:03:24.000Z</time>
      </trkpt>
      <trkpt lat="46.02184" lon="6.58191">
        <ele>1619</ele>
        <time>2017-01-21T09:03:28.000Z</time>
      </trkpt>
      <trkpt lat="46.0219" lon="6.58207">
        <ele>1620.44</ele>
        <time>2017-01-21T09:03:43.000Z</time>
      </trkpt>
      <trkpt lat="46.02199" lon="6.58216">
        <ele>1622.36</ele>
        <time>2017-01-21T09:03:56.000Z</time>
      </trkpt>
      <trkpt lat="46.02204" lon="6.5822">
        <ele>1622.84</ele>
        <time>2017-01-21T09:04:04.000Z</time>
      </trkpt>
      <trkpt lat="46.02213" lon="6.58232">
        <ele>1624.77</ele>
        <time>2017-01-21T09:04:19.000Z</time>
      </trkpt>
      <trkpt lat="46.0221" lon="6.58248">
        <ele>1627.17</ele>
        <time>2017-01-21T09:04:35.000Z</time>
      </trkpt>
      <trkpt lat="46.02207" lon="6.58264">
        <ele>1629.09</ele>
        <time>2017-01-21T09:04:50.000Z</time>
      </trkpt>
      <trkpt lat="46.02205" lon="6.58281">
        <ele>1631.01</ele>
        <time>2017-01-21T09:05:06.000Z</time>
      </trkpt>
      <trkpt lat="46.02205" lon="6.58293">
        <ele>1632.46</ele>
        <time>2017-01-21T09:05:18.000Z</time>
      </trkpt>
      <trkpt lat="46.02205" lon="6.58309">
        <ele>1633.9</ele>
        <time>2017-01-21T09:05:32.000Z</time>
      </trkpt>
      <trkpt lat="46.02206" lon="6.58322">
        <ele>1635.82</ele>
        <time>2017-01-21T09:05:47.000Z</time>
      </trkpt>
      <trkpt lat="46.02208" lon="6.58335">
        <ele>1637.74</ele>
        <time>2017-01-21T09:06:03.000Z</time>
      </trkpt>
      <trkpt lat="46.02214" lon="6.58347">
        <ele>1640.15</ele>
        <time>2017-01-21T09:06:18.000Z</time>
      </trkpt>
      <trkpt lat="46.02219" lon="6.58355">
        <ele>1642.07</ele>
        <time>2017-01-21T09:06:31.000Z</time>
      </trkpt>
      <trkpt lat="46.02222" lon="6.58368">
        <ele>1643.99</ele>
        <time>2017-01-21T09:06:45.000Z</time>
      </trkpt>
      <trkpt lat="46.02223" lon="6.5838">
        <ele>1645.43</ele>
        <time>2017-01-21T09:06:58.000Z</time>
      </trkpt>
      <trkpt lat="46.02224" lon="6.58395">
        <ele>1647.36</ele>
        <time>2017-01-21T09:07:13.000Z</time>
      </trkpt>
      <trkpt lat="46.02229" lon="6.58409">
        <ele>1649.28</ele>
        <time>2017-01-21T09:07:27.000Z</time>
      </trkpt>
      <trkpt lat="46.02231" lon="6.58422">
        <ele>1651.2</ele>
        <time>2017-01-21T09:07:41.000Z</time>
      </trkpt>
      <trkpt lat="46.02233" lon="6.58433">
        <ele>1652.16</ele>
        <time>2017-01-21T09:07:51.000Z</time>
      </trkpt>
      <trkpt lat="46.02232" lon="6.58451">
        <ele>1654.09</ele>
        <time>2017-01-21T09:08:07.000Z</time>
      </trkpt>
      <trkpt lat="46.02234" lon="6.58467">
        <ele>1654.57</ele>
        <time>2017-01-21T09:08:20.000Z</time>
      </trkpt>
      <trkpt lat="46.02238" lon="6.58486">
        <ele>1656.01</ele>
        <time>2017-01-21T09:08:37.000Z</time>
      </trkpt>
      <trkpt lat="46.0224" lon="6.58493">
        <ele>1656.49</ele>
        <time>2017-01-21T09:08:43.000Z</time>
      </trkpt>
      <trkpt lat="46.0224" lon="6.58511">
        <ele>1656.97</ele>
        <time>2017-01-21T09:08:56.000Z</time>
      </trkpt>
      <trkpt lat="46.02234" lon="6.58528">
        <ele>1658.89</ele>
        <time>2017-01-21T09:09:10.000Z</time>
      </trkpt>
      <trkpt lat="46.02229" lon="6.58546">
        <ele>1659.85</ele>
        <time>2017-01-21T09:09:25.000Z</time>
      </trkpt>
      <trkpt lat="46.02224" lon="6.58563">
        <ele>1660.81</ele>
        <time>2017-01-21T09:09:40.000Z</time>
      </trkpt>
      <trkpt lat="46.02216" lon="6.5858">
        <ele>1663.22</ele>
        <time>2017-01-21T09:09:55.000Z</time>
      </trkpt>
      <trkpt lat="46.02203" lon="6.5859">
        <ele>1664.18</ele>
        <time>2017-01-21T09:10:10.000Z</time>
      </trkpt>
      <trkpt lat="46.02192" lon="6.58596">
        <ele>1665.62</ele>
        <time>2017-01-21T09:10:24.000Z</time>
      </trkpt>
      <trkpt lat="46.02181" lon="6.58603">
        <ele>1667.06</ele>
        <time>2017-01-21T09:10:36.000Z</time>
      </trkpt>
      <trkpt lat="46.02171" lon="6.58611">
        <ele>1668.51</ele>
        <time>2017-01-21T09:10:50.000Z</time>
      </trkpt>
      <trkpt lat="46.02169" lon="6.58612">
        <ele>1668.99</ele>
        <time>2017-01-21T09:11:05.000Z</time>
      </trkpt>
      <trkpt lat="46.02166" lon="6.58615">
        <ele>1668.51</ele>
        <time>2017-01-21T09:11:25.000Z</time>
      </trkpt>
      <trkpt lat="46.02159" lon="6.58618">
        <ele>1668.99</ele>
        <time>2017-01-21T09:11:40.000Z</time>
      </trkpt>
      <trkpt lat="46.02146" lon="6.58624">
        <ele>1669.95</ele>
        <time>2017-01-21T09:11:55.000Z</time>
      </trkpt>
      <trkpt lat="46.02139" lon="6.58627">
        <ele>1670.91</ele>
        <time>2017-01-21T09:12:03.000Z</time>
      </trkpt>
      <trkpt lat="46.02128" lon="6.58637">
        <ele>1671.87</ele>
        <time>2017-01-21T09:12:17.000Z</time>
      </trkpt>
      <trkpt lat="46.02127" lon="6.58638">
        <ele>1672.35</ele>
        <time>2017-01-21T09:12:18.000Z</time>
      </trkpt>
      <trkpt lat="46.0212" lon="6.58652">
        <ele>1673.31</ele>
        <time>2017-01-21T09:12:31.000Z</time>
      </trkpt>
      <trkpt lat="46.0211" lon="6.58661">
        <ele>1674.27</ele>
        <time>2017-01-21T09:12:44.000Z</time>
      </trkpt>
      <trkpt lat="46.02102" lon="6.58672">
        <ele>1675.72</ele>
        <time>2017-01-21T09:12:58.000Z</time>
      </trkpt>
      <trkpt lat="46.02098" lon="6.58677">
        <ele>1676.68</ele>
        <time>2017-01-21T09:13:12.000Z</time>
      </trkpt>
      <trkpt lat="46.02094" lon="6.5868">
        <ele>1678.12</ele>
        <time>2017-01-21T09:13:30.000Z</time>
      </trkpt>
      <trkpt lat="46.0209" lon="6.58688">
        <ele>1680.04</ele>
        <time>2017-01-21T09:13:41.000Z</time>
      </trkpt>
      <trkpt lat="46.02089" lon="6.58692">
        <ele>1682.44</ele>
        <time>2017-01-21T09:13:52.000Z</time>
      </trkpt>
      <trkpt lat="46.02084" lon="6.58699">
        <ele>1684.37</ele>
        <time>2017-01-21T09:14:05.000Z</time>
      </trkpt>
      <trkpt lat="46.02082" lon="6.58701">
        <ele>1684.85</ele>
        <time>2017-01-21T09:14:09.000Z</time>
      </trkpt>
      <trkpt lat="46.02074" lon="6.58702">
        <ele>1686.77</ele>
        <time>2017-01-21T09:14:23.000Z</time>
      </trkpt>
      <trkpt lat="46.02072" lon="6.58695">
        <ele>1687.73</ele>
        <time>2017-01-21T09:14:37.000Z</time>
      </trkpt>
      <trkpt lat="46.02066" lon="6.58679">
        <ele>1689.17</ele>
        <time>2017-01-21T09:14:54.000Z</time>
      </trkpt>
      <trkpt lat="46.02057" lon="6.58672">
        <ele>1690.14</ele>
        <time>2017-01-21T09:15:08.000Z</time>
      </trkpt>
      <trkpt lat="46.02055" lon="6.58669">
        <ele>1690.62</ele>
        <time>2017-01-21T09:15:11.000Z</time>
      </trkpt>
      <trkpt lat="46.02053" lon="6.58655">
        <ele>1692.06</ele>
        <time>2017-01-21T09:15:25.000Z</time>
      </trkpt>
      <trkpt lat="46.02051" lon="6.58643">
        <ele>1693.02</ele>
        <time>2017-01-21T09:15:37.000Z</time>
      </trkpt>
      <trkpt lat="46.02051" lon="6.58632">
        <ele>1694.46</ele>
        <time>2017-01-21T09:15:49.000Z</time>
      </trkpt>
      <trkpt lat="46.02057" lon="6.58614">
        <ele>1696.38</ele>
        <time>2017-01-21T09:16:04.000Z</time>
      </trkpt>
      <trkpt lat="46.02066" lon="6.586">
        <ele>1697.83</ele>
        <time>2017-01-21T09:16:19.000Z</time>
      </trkpt>
      <trkpt lat="46.02069" lon="6.58584">
        <ele>1699.27</ele>
        <time>2017-01-21T09:16:33.000Z</time>
      </trkpt>
      <trkpt lat="46.02066" lon="6.58571">
        <ele>1700.71</ele>
        <time>2017-01-21T09:16:46.000Z</time>
      </trkpt>
      <trkpt lat="46.02063" lon="6.58558">
        <ele>1701.67</ele>
        <time>2017-01-21T09:16:57.000Z</time>
      </trkpt>
      <trkpt lat="46.02063" lon="6.58543">
        <ele>1702.63</ele>
        <time>2017-01-21T09:17:10.000Z</time>
      </trkpt>
      <trkpt lat="46.02063" lon="6.58529">
        <ele>1704.07</ele>
        <time>2017-01-21T09:17:23.000Z</time>
      </trkpt>
      <trkpt lat="46.02067" lon="6.58511">
        <ele>1705.52</ele>
        <time>2017-01-21T09:17:38.000Z</time>
      </trkpt>
      <trkpt lat="46.02067" lon="6.58503">
        <ele>1706.48</ele>
        <time>2017-01-21T09:17:46.000Z</time>
      </trkpt>
      <trkpt lat="46.02066" lon="6.58493">
        <ele>1706.48</ele>
        <time>2017-01-21T09:17:55.000Z</time>
      </trkpt>
      <trkpt lat="46.02074" lon="6.58469">
        <ele>1707.92</ele>
        <time>2017-01-21T09:18:12.000Z</time>
      </trkpt>
      <trkpt lat="46.02074" lon="6.58456">
        <ele>1708.4</ele>
        <time>2017-01-21T09:18:23.000Z</time>
      </trkpt>
      <trkpt lat="46.0207" lon="6.58437">
        <ele>1709.84</ele>
        <time>2017-01-21T09:18:39.000Z</time>
      </trkpt>
      <trkpt lat="46.02069" lon="6.58438">
        <ele>1709.84</ele>
        <time>2017-01-21T09:19:01.000Z</time>
      </trkpt>
      <trkpt lat="46.02069" lon="6.58439">
        <ele>1709.84</ele>
        <time>2017-01-21T09:19:25.000Z</time>
      </trkpt>
      <trkpt lat="46.02068" lon="6.58438">
        <ele>1709.84</ele>
        <time>2017-01-21T09:19:56.000Z</time>
      </trkpt>
      <trkpt lat="46.02069" lon="6.58436">
        <ele>1709.84</ele>
        <time>2017-01-21T09:20:15.000Z</time>
      </trkpt>
      <trkpt lat="46.02068" lon="6.58436">
        <ele>1709.84</ele>
        <time>2017-01-21T09:20:33.000Z</time>
      </trkpt>
      <trkpt lat="46.02066" lon="6.58421">
        <ele>1710.8</ele>
        <time>2017-01-21T09:20:44.000Z</time>
      </trkpt>
      <trkpt lat="46.02066" lon="6.58409">
        <ele>1710.8</ele>
        <time>2017-01-21T09:20:58.000Z</time>
      </trkpt>
      <trkpt lat="46.02068" lon="6.58391">
        <ele>1711.76</ele>
        <time>2017-01-21T09:21:10.000Z</time>
      </trkpt>
      <trkpt lat="46.0207" lon="6.58385">
        <ele>1712.25</ele>
        <time>2017-01-21T09:21:14.000Z</time>
      </trkpt>
      <trkpt lat="46.02071" lon="6.58367">
        <ele>1713.69</ele>
        <time>2017-01-21T09:21:29.000Z</time>
      </trkpt>
      <trkpt lat="46.02069" lon="6.58352">
        <ele>1715.13</ele>
        <time>2017-01-21T09:21:44.000Z</time>
      </trkpt>
      <trkpt lat="46.02066" lon="6.58349">
        <ele>1715.61</ele>
        <time>2017-01-21T09:22:01.000Z</time>
      </trkpt>
      <trkpt lat="46.02068" lon="6.58349">
        <ele>1715.61</ele>
        <time>2017-01-21T09:22:23.000Z</time>
      </trkpt>
      <trkpt lat="46.02067" lon="6.58349">
        <ele>1715.61</ele>
        <time>2017-01-21T09:22:40.000Z</time>
      </trkpt>
      <trkpt lat="46.02067" lon="6.58348">
        <ele>1715.61</ele>
        <time>2017-01-21T09:23:00.000Z</time>
      </trkpt>
      <trkpt lat="46.02066" lon="6.58348">
        <ele>1715.61</ele>
        <time>2017-01-21T09:23:24.000Z</time>
      </trkpt>
      <trkpt lat="46.02063" lon="6.58353">
        <ele>1715.61</ele>
        <time>2017-01-21T09:23:48.000Z</time>
      </trkpt>
      <trkpt lat="46.02068" lon="6.58352">
        <ele>1715.61</ele>
        <time>2017-01-21T09:24:15.000Z</time>
      </trkpt>
      <trkpt lat="46.02065" lon="6.58351">
        <ele>1715.61</ele>
        <time>2017-01-21T09:24:35.000Z</time>
      </trkpt>
      <trkpt lat="46.02064" lon="6.5835">
        <ele>1715.61</ele>
        <time>2017-01-21T09:24:55.000Z</time>
      </trkpt>
      <trkpt lat="46.02062" lon="6.58352">
        <ele>1715.61</ele>
        <time>2017-01-21T09:25:17.000Z</time>
      </trkpt>
      <trkpt lat="46.02061" lon="6.5835">
        <ele>1715.61</ele>
        <time>2017-01-21T09:25:41.000Z</time>
      </trkpt>
      <trkpt lat="46.0206" lon="6.58344">
        <ele>1716.09</ele>
        <time>2017-01-21T09:25:58.000Z</time>
      </trkpt>
      <trkpt lat="46.02052" lon="6.58331">
        <ele>1718.01</ele>
        <time>2017-01-21T09:26:13.000Z</time>
      </trkpt>
      <trkpt lat="46.02051" lon="6.58328">
        <ele>1718.49</ele>
        <time>2017-01-21T09:26:16.000Z</time>
      </trkpt>
      <trkpt lat="46.02039" lon="6.58316">
        <ele>1720.42</ele>
        <time>2017-01-21T09:26:30.000Z</time>
      </trkpt>
      <trkpt lat="46.0203" lon="6.58309">
        <ele>1721.38</ele>
        <time>2017-01-21T09:26:41.000Z</time>
      </trkpt>
      <trkpt lat="46.02024" lon="6.58305">
        <ele>1722.34</ele>
        <time>2017-01-21T09:26:48.000Z</time>
      </trkpt>
      <trkpt lat="46.02023" lon="6.58303">
        <ele>1722.82</ele>
        <time>2017-01-21T09:26:50.000Z</time>
      </trkpt>
      <trkpt lat="46.02021" lon="6.58302">
        <ele>1722.82</ele>
        <time>2017-01-21T09:26:52.000Z</time>
      </trkpt>
      <trkpt lat="46.02015" lon="6.58293">
        <ele>1723.78</ele>
        <time>2017-01-21T09:27:00.000Z</time>
      </trkpt>
      <trkpt lat="46.02003" lon="6.58278">
        <ele>1725.7</ele>
        <time>2017-01-21T09:27:17.000Z</time>
      </trkpt>
      <trkpt lat="46.01992" lon="6.58266">
        <ele>1728.11</ele>
        <time>2017-01-21T09:27:32.000Z</time>
      </trkpt>
      <trkpt lat="46.01987" lon="6.58251">
        <ele>1730.03</ele>
        <time>2017-01-21T09:27:47.000Z</time>
      </trkpt>
      <trkpt lat="46.01979" lon="6.58246">
        <ele>1731.95</ele>
        <time>2017-01-21T09:28:00.000Z</time>
      </trkpt>
      <trkpt lat="46.01978" lon="6.58254">
        <ele>1732.91</ele>
        <time>2017-01-21T09:28:13.000Z</time>
      </trkpt>
      <trkpt lat="46.01977" lon="6.58255">
        <ele>1732.43</ele>
        <time>2017-01-21T09:28:29.000Z</time>
      </trkpt>
      <trkpt lat="46.01977" lon="6.58258">
        <ele>1732.43</ele>
        <time>2017-01-21T09:28:49.000Z</time>
      </trkpt>
      <trkpt lat="46.01978" lon="6.58262">
        <ele>1732.91</ele>
        <time>2017-01-21T09:28:53.000Z</time>
      </trkpt>
      <trkpt lat="46.01981" lon="6.58277">
        <ele>1734.36</ele>
        <time>2017-01-21T09:29:07.000Z</time>
      </trkpt>
      <trkpt lat="46.01986" lon="6.58296">
        <ele>1736.28</ele>
        <time>2017-01-21T09:29:21.000Z</time>
      </trkpt>
      <trkpt lat="46.01987" lon="6.58299">
        <ele>1736.28</ele>
        <time>2017-01-21T09:29:24.000Z</time>
      </trkpt>
      <trkpt lat="46.02001" lon="6.58309">
        <ele>1738.2</ele>
        <time>2017-01-21T09:29:39.000Z</time>
      </trkpt>
      <trkpt lat="46.02013" lon="6.58321">
        <ele>1739.64</ele>
        <time>2017-01-21T09:29:54.000Z</time>
      </trkpt>
      <trkpt lat="46.02016" lon="6.5833">
        <ele>1741.08</ele>
        <time>2017-01-21T09:30:02.000Z</time>
      </trkpt>
      <trkpt lat="46.02015" lon="6.5834">
        <ele>1742.05</ele>
        <time>2017-01-21T09:30:14.000Z</time>
      </trkpt>
      <trkpt lat="46.02007" lon="6.58334">
        <ele>1743.49</ele>
        <time>2017-01-21T09:30:25.000Z</time>
      </trkpt>
      <trkpt lat="46.01995" lon="6.5833">
        <ele>1745.89</ele>
        <time>2017-01-21T09:30:41.000Z</time>
      </trkpt>
      <trkpt lat="46.01983" lon="6.58326">
        <ele>1747.33</ele>
        <time>2017-01-21T09:30:55.000Z</time>
      </trkpt>
      <trkpt lat="46.01975" lon="6.58321">
        <ele>1748.78</ele>
        <time>2017-01-21T09:31:05.000Z</time>
      </trkpt>
      <trkpt lat="46.01971" lon="6.5832">
        <ele>1748.78</ele>
        <time>2017-01-21T09:31:09.000Z</time>
      </trkpt>
      <trkpt lat="46.01957" lon="6.58314">
        <ele>1749.74</ele>
        <time>2017-01-21T09:31:24.000Z</time>
      </trkpt>
      <trkpt lat="46.0195" lon="6.583">
        <ele>1750.7</ele>
        <time>2017-01-21T09:31:37.000Z</time>
      </trkpt>
      <trkpt lat="46.01942" lon="6.58282">
        <ele>1752.14</ele>
        <time>2017-01-21T09:31:54.000Z</time>
      </trkpt>
      <trkpt lat="46.01932" lon="6.58267">
        <ele>1753.1</ele>
        <time>2017-01-21T09:32:07.000Z</time>
      </trkpt>
      <trkpt lat="46.01931" lon="6.58255">
        <ele>1755.02</ele>
        <time>2017-01-21T09:32:19.000Z</time>
      </trkpt>
      <trkpt lat="46.01932" lon="6.58253">
        <ele>1755.02</ele>
        <time>2017-01-21T09:32:20.000Z</time>
      </trkpt>
      <trkpt lat="46.01934" lon="6.5823">
        <ele>1756.47</ele>
        <time>2017-01-21T09:32:35.000Z</time>
      </trkpt>
      <trkpt lat="46.01941" lon="6.58211">
        <ele>1757.91</ele>
        <time>2017-01-21T09:32:50.000Z</time>
      </trkpt>
      <trkpt lat="46.01952" lon="6.582">
        <ele>1758.39</ele>
        <time>2017-01-21T09:33:04.000Z</time>
      </trkpt>
      <trkpt lat="46.01959" lon="6.58185">
        <ele>1761.27</ele>
        <time>2017-01-21T09:33:21.000Z</time>
      </trkpt>
      <trkpt lat="46.01954" lon="6.58184">
        <ele>1761.75</ele>
        <time>2017-01-21T09:33:26.000Z</time>
      </trkpt>
      <trkpt lat="46.0194" lon="6.58191">
        <ele>1763.2</ele>
        <time>2017-01-21T09:33:42.000Z</time>
      </trkpt>
      <trkpt lat="46.01931" lon="6.58199">
        <ele>1764.64</ele>
        <time>2017-01-21T09:33:54.000Z</time>
      </trkpt>
      <trkpt lat="46.01921" lon="6.58209">
        <ele>1766.08</ele>
        <time>2017-01-21T09:34:08.000Z</time>
      </trkpt>
      <trkpt lat="46.01917" lon="6.58219">
        <ele>1767.52</ele>
        <time>2017-01-21T09:34:20.000Z</time>
      </trkpt>
      <trkpt lat="46.01911" lon="6.58218">
        <ele>1768.48</ele>
        <time>2017-01-21T09:34:27.000Z</time>
      </trkpt>
      <trkpt lat="46.0191" lon="6.58212">
        <ele>1768.96</ele>
        <time>2017-01-21T09:34:33.000Z</time>
      </trkpt>
      <trkpt lat="46.01912" lon="6.58207">
        <ele>1769.44</ele>
        <time>2017-01-21T09:34:37.000Z</time>
      </trkpt>
      <trkpt lat="46.01921" lon="6.58189">
        <ele>1770.89</ele>
        <time>2017-01-21T09:34:53.000Z</time>
      </trkpt>
      <trkpt lat="46.01931" lon="6.58173">
        <ele>1772.81</ele>
        <time>2017-01-21T09:35:10.000Z</time>
      </trkpt>
      <trkpt lat="46.01942" lon="6.58161">
        <ele>1773.77</ele>
        <time>2017-01-21T09:35:25.000Z</time>
      </trkpt>
      <trkpt lat="46.01954" lon="6.58151">
        <ele>1775.69</ele>
        <time>2017-01-21T09:35:41.000Z</time>
      </trkpt>
      <trkpt lat="46.01958" lon="6.58138">
        <ele>1777.13</ele>
        <time>2017-01-21T09:35:52.000Z</time>
      </trkpt>
      <trkpt lat="46.01952" lon="6.58125">
        <ele>1779.06</ele>
        <time>2017-01-21T09:36:05.000Z</time>
      </trkpt>
      <trkpt lat="46.01945" lon="6.58119">
        <ele>1780.02</ele>
        <time>2017-01-21T09:36:14.000Z</time>
      </trkpt>
      <trkpt lat="46.01937" lon="6.58106">
        <ele>1780.98</ele>
        <time>2017-01-21T09:36:29.000Z</time>
      </trkpt>
      <trkpt lat="46.01924" lon="6.58102">
        <ele>1782.9</ele>
        <time>2017-01-21T09:36:45.000Z</time>
      </trkpt>
      <trkpt lat="46.01913" lon="6.58098">
        <ele>1784.34</ele>
        <time>2017-01-21T09:36:59.000Z</time>
      </trkpt>
      <trkpt lat="46.01902" lon="6.58096">
        <ele>1785.79</ele>
        <time>2017-01-21T09:37:13.000Z</time>
      </trkpt>
      <trkpt lat="46.0189" lon="6.58095">
        <ele>1787.71</ele>
        <time>2017-01-21T09:37:29.000Z</time>
      </trkpt>
      <trkpt lat="46.01882" lon="6.58096">
        <ele>1789.15</ele>
        <time>2017-01-21T09:37:42.000Z</time>
      </trkpt>
      <trkpt lat="46.01878" lon="6.58097">
        <ele>1790.59</ele>
        <time>2017-01-21T09:37:56.000Z</time>
      </trkpt>
      <trkpt lat="46.01878" lon="6.58097">
        <ele>1789.15</ele>
        <time>2017-01-21T09:38:07.000Z</time>
      </trkpt>
      <trkpt lat="46.01877" lon="6.58099">
        <ele>1787.23</ele>
        <time>2017-01-21T09:38:37.000Z</time>
      </trkpt>
      <trkpt lat="46.01877" lon="6.581">
        <ele>1788.19</ele>
        <time>2017-01-21T09:38:39.000Z</time>
      </trkpt>
      <trkpt lat="46.01878" lon="6.581">
        <ele>1788.67</ele>
        <time>2017-01-21T09:38:44.000Z</time>
      </trkpt>
      <trkpt lat="46.01878" lon="6.581">
        <ele>1790.11</ele>
        <time>2017-01-21T09:38:46.000Z</time>
      </trkpt>
      <trkpt lat="46.01876" lon="6.581">
        <ele>1791.07</ele>
        <time>2017-01-21T09:39:03.000Z</time>
      </trkpt>
      <trkpt lat="46.01875" lon="6.58101">
        <ele>1791.07</ele>
        <time>2017-01-21T09:39:20.000Z</time>
      </trkpt>
      <trkpt lat="46.01873" lon="6.58102">
        <ele>1791.07</ele>
        <time>2017-01-21T09:39:22.000Z</time>
      </trkpt>
      <trkpt lat="46.01862" lon="6.58101">
        <ele>1793</ele>
        <time>2017-01-21T09:39:36.000Z</time>
      </trkpt>
      <trkpt lat="46.01862" lon="6.58101">
        <ele>1793</ele>
        <time>2017-01-21T09:39:37.000Z</time>
      </trkpt>
      <trkpt lat="46.0185" lon="6.58095">
        <ele>1795.4</ele>
        <time>2017-01-21T09:39:53.000Z</time>
      </trkpt>
      <trkpt lat="46.01849" lon="6.58094">
        <ele>1796.36</ele>
        <time>2017-01-21T09:39:55.000Z</time>
      </trkpt>
      <trkpt lat="46.01842" lon="6.58082">
        <ele>1797.32</ele>
        <time>2017-01-21T09:40:08.000Z</time>
      </trkpt>
      <trkpt lat="46.01834" lon="6.58072">
        <ele>1799.24</ele>
        <time>2017-01-21T09:40:22.000Z</time>
      </trkpt>
      <trkpt lat="46.01824" lon="6.58064">
        <ele>1801.17</ele>
        <time>2017-01-21T09:40:36.000Z</time>
      </trkpt>
      <trkpt lat="46.01814" lon="6.58059">
        <ele>1802.61</ele>
        <time>2017-01-21T09:40:50.000Z</time>
      </trkpt>
      <trkpt lat="46.0181" lon="6.58058">
        <ele>1803.09</ele>
        <time>2017-01-21T09:40:54.000Z</time>
      </trkpt>
      <trkpt lat="46.018" lon="6.58054">
        <ele>1805.49</ele>
        <time>2017-01-21T09:41:08.000Z</time>
      </trkpt>
      <trkpt lat="46.01789" lon="6.5805">
        <ele>1807.42</ele>
        <time>2017-01-21T09:41:23.000Z</time>
      </trkpt>
      <trkpt lat="46.01779" lon="6.58047">
        <ele>1809.34</ele>
        <time>2017-01-21T09:41:38.000Z</time>
      </trkpt>
      <trkpt lat="46.01769" lon="6.5804">
        <ele>1811.74</ele>
        <time>2017-01-21T09:41:54.000Z</time>
      </trkpt>
      <trkpt lat="46.01761" lon="6.58034">
        <ele>1813.66</ele>
        <time>2017-01-21T09:42:08.000Z</time>
      </trkpt>
      <trkpt lat="46.01754" lon="6.58032">
        <ele>1814.63</ele>
        <time>2017-01-21T09:42:21.000Z</time>
      </trkpt>
      <trkpt lat="46.01752" lon="6.58037">
        <ele>1815.59</ele>
        <time>2017-01-21T09:42:36.000Z</time>
      </trkpt>
      <trkpt lat="46.01752" lon="6.58041">
        <ele>1816.07</ele>
        <time>2017-01-21T09:42:48.000Z</time>
      </trkpt>
      <trkpt lat="46.01753" lon="6.58042">
        <ele>1816.07</ele>
        <time>2017-01-21T09:43:14.000Z</time>
      </trkpt>
      <trkpt lat="46.01749" lon="6.58043">
        <ele>1817.51</ele>
        <time>2017-01-21T09:43:28.000Z</time>
      </trkpt>
      <trkpt lat="46.01744" lon="6.58039">
        <ele>1819.91</ele>
        <time>2017-01-21T09:43:41.000Z</time>
      </trkpt>
      <trkpt lat="46.01735" lon="6.58033">
        <ele>1821.84</ele>
        <time>2017-01-21T09:43:55.000Z</time>
      </trkpt>
      <trkpt lat="46.0173" lon="6.58038">
        <ele>1824.72</ele>
        <time>2017-01-21T09:44:11.000Z</time>
      </trkpt>
      <trkpt lat="46.01726" lon="6.58046">
        <ele>1826.64</ele>
        <time>2017-01-21T09:44:24.000Z</time>
      </trkpt>
      <trkpt lat="46.01722" lon="6.58045">
        <ele>1828.56</ele>
        <time>2017-01-21T09:44:36.000Z</time>
      </trkpt>
      <trkpt lat="46.01715" lon="6.58042">
        <ele>1830.49</ele>
        <time>2017-01-21T09:44:49.000Z</time>
      </trkpt>
      <trkpt lat="46.01711" lon="6.5804">
        <ele>1832.41</ele>
        <time>2017-01-21T09:45:01.000Z</time>
      </trkpt>
      <trkpt lat="46.01709" lon="6.58052">
        <ele>1834.33</ele>
        <time>2017-01-21T09:45:14.000Z</time>
      </trkpt>
      <trkpt lat="46.01706" lon="6.5806">
        <ele>1836.74</ele>
        <time>2017-01-21T09:45:29.000Z</time>
      </trkpt>
      <trkpt lat="46.01699" lon="6.58057">
        <ele>1838.18</ele>
        <time>2017-01-21T09:45:42.000Z</time>
      </trkpt>
      <trkpt lat="46.01695" lon="6.58055">
        <ele>1840.1</ele>
        <time>2017-01-21T09:45:54.000Z</time>
      </trkpt>
      <trkpt lat="46.01691" lon="6.58054">
        <ele>1841.54</ele>
        <time>2017-01-21T09:46:06.000Z</time>
      </trkpt>
      <trkpt lat="46.01683" lon="6.58055">
        <ele>1843.47</ele>
        <time>2017-01-21T09:46:20.000Z</time>
      </trkpt>
      <trkpt lat="46.01682" lon="6.58062">
        <ele>1845.39</ele>
        <time>2017-01-21T09:46:31.000Z</time>
      </trkpt>
      <trkpt lat="46.01679" lon="6.58062">
        <ele>1846.35</ele>
        <time>2017-01-21T09:46:43.000Z</time>
      </trkpt>
      <trkpt lat="46.01678" lon="6.58065">
        <ele>1846.83</ele>
        <time>2017-01-21T09:46:59.000Z</time>
      </trkpt>
      <trkpt lat="46.01674" lon="6.58066">
        <ele>1848.75</ele>
        <time>2017-01-21T09:47:11.000Z</time>
      </trkpt>
      <trkpt lat="46.01669" lon="6.58069">
        <ele>1850.68</ele>
        <time>2017-01-21T09:47:24.000Z</time>
      </trkpt>
      <trkpt lat="46.01665" lon="6.58076">
        <ele>1852.6</ele>
        <time>2017-01-21T09:47:37.000Z</time>
      </trkpt>
      <trkpt lat="46.0166" lon="6.58077">
        <ele>1854.52</ele>
        <time>2017-01-21T09:47:50.000Z</time>
      </trkpt>
      <trkpt lat="46.01654" lon="6.5808">
        <ele>1856.44</ele>
        <time>2017-01-21T09:48:03.000Z</time>
      </trkpt>
      <trkpt lat="46.0165" lon="6.58083">
        <ele>1857.4</ele>
        <time>2017-01-21T09:48:15.000Z</time>
      </trkpt>
      <trkpt lat="46.01645" lon="6.58085">
        <ele>1859.81</ele>
        <time>2017-01-21T09:48:28.000Z</time>
      </trkpt>
      <trkpt lat="46.01637" lon="6.58086">
        <ele>1861.25</ele>
        <time>2017-01-21T09:48:41.000Z</time>
      </trkpt>
      <trkpt lat="46.01632" lon="6.58088">
        <ele>1863.65</ele>
        <time>2017-01-21T09:48:55.000Z</time>
      </trkpt>
      <trkpt lat="46.01628" lon="6.58091">
        <ele>1864.61</ele>
        <time>2017-01-21T09:49:07.000Z</time>
      </trkpt>
      <trkpt lat="46.01628" lon="6.58088">
        <ele>1865.09</ele>
        <time>2017-01-21T09:49:29.000Z</time>
      </trkpt>
      <trkpt lat="46.01628" lon="6.58092">
        <ele>1865.09</ele>
        <time>2017-01-21T09:49:53.000Z</time>
      </trkpt>
      <trkpt lat="46.01619" lon="6.5809">
        <ele>1866.54</ele>
        <time>2017-01-21T09:50:07.000Z</time>
      </trkpt>
      <trkpt lat="46.01608" lon="6.58088">
        <ele>1867.98</ele>
        <time>2017-01-21T09:50:23.000Z</time>
      </trkpt>
      <trkpt lat="46.01598" lon="6.58087">
        <ele>1869.42</ele>
        <time>2017-01-21T09:50:39.000Z</time>
      </trkpt>
      <trkpt lat="46.01588" lon="6.58086">
        <ele>1871.34</ele>
        <time>2017-01-21T09:50:54.000Z</time>
      </trkpt>
      <trkpt lat="46.01579" lon="6.58085">
        <ele>1872.79</ele>
        <time>2017-01-21T09:51:09.000Z</time>
      </trkpt>
      <trkpt lat="46.01569" lon="6.58085">
        <ele>1875.19</ele>
        <time>2017-01-21T09:51:25.000Z</time>
      </trkpt>
      <trkpt lat="46.01562" lon="6.58085">
        <ele>1877.11</ele>
        <time>2017-01-21T09:51:39.000Z</time>
      </trkpt>
      <trkpt lat="46.01556" lon="6.58084">
        <ele>1878.55</ele>
        <time>2017-01-21T09:51:50.000Z</time>
      </trkpt>
      <trkpt lat="46.01551" lon="6.58085">
        <ele>1880.96</ele>
        <time>2017-01-21T09:52:03.000Z</time>
      </trkpt>
      <trkpt lat="46.01547" lon="6.58088">
        <ele>1882.88</ele>
        <time>2017-01-21T09:52:16.000Z</time>
      </trkpt>
      <trkpt lat="46.0154" lon="6.58086">
        <ele>1884.32</ele>
        <time>2017-01-21T09:52:29.000Z</time>
      </trkpt>
      <trkpt lat="46.01535" lon="6.58087">
        <ele>1886.24</ele>
        <time>2017-01-21T09:52:40.000Z</time>
      </trkpt>
      <trkpt lat="46.01529" lon="6.58085">
        <ele>1888.17</ele>
        <time>2017-01-21T09:52:53.000Z</time>
      </trkpt>
      <trkpt lat="46.01527" lon="6.58085">
        <ele>1889.13</ele>
        <time>2017-01-21T09:53:05.000Z</time>
      </trkpt>
      <trkpt lat="46.01524" lon="6.58085">
        <ele>1890.09</ele>
        <time>2017-01-21T09:53:14.000Z</time>
      </trkpt>
      <trkpt lat="46.01519" lon="6.58084">
        <ele>1891.53</ele>
        <time>2017-01-21T09:53:26.000Z</time>
      </trkpt>
      <trkpt lat="46.01513" lon="6.58085">
        <ele>1893.45</ele>
        <time>2017-01-21T09:53:38.000Z</time>
      </trkpt>
      <trkpt lat="46.01508" lon="6.58086">
        <ele>1895.38</ele>
        <time>2017-01-21T09:53:50.000Z</time>
      </trkpt>
      <trkpt lat="46.01501" lon="6.58084">
        <ele>1896.82</ele>
        <time>2017-01-21T09:54:06.000Z</time>
      </trkpt>
      <trkpt lat="46.01497" lon="6.58083">
        <ele>1897.78</ele>
        <time>2017-01-21T09:54:18.000Z</time>
      </trkpt>
      <trkpt lat="46.01493" lon="6.58084">
        <ele>1898.74</ele>
        <time>2017-01-21T09:54:31.000Z</time>
      </trkpt>
      <trkpt lat="46.01486" lon="6.58084">
        <ele>1901.14</ele>
        <time>2017-01-21T09:54:44.000Z</time>
      </trkpt>
      <trkpt lat="46.01479" lon="6.58086">
        <ele>1903.07</ele>
        <time>2017-01-21T09:54:58.000Z</time>
      </trkpt>
      <trkpt lat="46.01475" lon="6.58089">
        <ele>1904.99</ele>
        <time>2017-01-21T09:55:10.000Z</time>
      </trkpt>
      <trkpt lat="46.01467" lon="6.58091">
        <ele>1905.95</ele>
        <time>2017-01-21T09:55:23.000Z</time>
      </trkpt>
      <trkpt lat="46.01459" lon="6.58092">
        <ele>1908.35</ele>
        <time>2017-01-21T09:55:39.000Z</time>
      </trkpt>
      <trkpt lat="46.0145" lon="6.58094">
        <ele>1909.32</ele>
        <time>2017-01-21T09:55:53.000Z</time>
      </trkpt>
      <trkpt lat="46.01445" lon="6.58101">
        <ele>1911.24</ele>
        <time>2017-01-21T09:56:05.000Z</time>
      </trkpt>
      <trkpt lat="46.0144" lon="6.58109">
        <ele>1913.16</ele>
        <time>2017-01-21T09:56:17.000Z</time>
      </trkpt>
      <trkpt lat="46.01439" lon="6.58119">
        <ele>1915.08</ele>
        <time>2017-01-21T09:56:30.000Z</time>
      </trkpt>
      <trkpt lat="46.01437" lon="6.58127">
        <ele>1916.04</ele>
        <time>2017-01-21T09:56:47.000Z</time>
      </trkpt>
      <trkpt lat="46.01438" lon="6.58127">
        <ele>1916.04</ele>
        <time>2017-01-21T09:57:08.000Z</time>
      </trkpt>
      <trkpt lat="46.01439" lon="6.58126">
        <ele>1916.04</ele>
        <time>2017-01-21T09:57:35.000Z</time>
      </trkpt>
      <trkpt lat="46.01438" lon="6.58125">
        <ele>1916.04</ele>
        <time>2017-01-21T09:58:06.000Z</time>
      </trkpt>
      <trkpt lat="46.01438" lon="6.58126">
        <ele>1916.04</ele>
        <time>2017-01-21T09:58:28.000Z</time>
      </trkpt>
      <trkpt lat="46.01438" lon="6.58127">
        <ele>1916.04</ele>
        <time>2017-01-21T09:59:00.000Z</time>
      </trkpt>
      <trkpt lat="46.01438" lon="6.58125">
        <ele>1916.04</ele>
        <time>2017-01-21T09:59:37.000Z</time>
      </trkpt>
      <trkpt lat="46.0144" lon="6.58126">
        <ele>1916.04</ele>
        <time>2017-01-21T10:00:01.000Z</time>
      </trkpt>
      <trkpt lat="46.01439" lon="6.58127">
        <ele>1916.04</ele>
        <time>2017-01-21T10:00:30.000Z</time>
      </trkpt>
      <trkpt lat="46.01439" lon="6.58127">
        <ele>1915.56</ele>
        <time>2017-01-21T10:00:49.000Z</time>
      </trkpt>
      <trkpt lat="46.0144" lon="6.58126">
        <ele>1915.56</ele>
        <time>2017-01-21T10:01:20.000Z</time>
      </trkpt>
      <trkpt lat="46.01439" lon="6.58126">
        <ele>1915.56</ele>
        <time>2017-01-21T10:01:46.000Z</time>
      </trkpt>
      <trkpt lat="46.0144" lon="6.58126">
        <ele>1915.56</ele>
        <time>2017-01-21T10:02:13.000Z</time>
      </trkpt>
      <trkpt lat="46.01439" lon="6.58126">
        <ele>1915.56</ele>
        <time>2017-01-21T10:02:39.000Z</time>
      </trkpt>
      <trkpt lat="46.0144" lon="6.58128">
        <ele>1915.56</ele>
        <time>2017-01-21T10:03:07.000Z</time>
      </trkpt>
      <trkpt lat="46.01441" lon="6.58126">
        <ele>1915.08</ele>
        <time>2017-01-21T10:03:33.000Z</time>
      </trkpt>
      <trkpt lat="46.01439" lon="6.58127">
        <ele>1915.56</ele>
        <time>2017-01-21T10:03:48.000Z</time>
      </trkpt>
      <trkpt lat="46.01441" lon="6.58128">
        <ele>1915.56</ele>
        <time>2017-01-21T10:04:00.000Z</time>
      </trkpt>
      <trkpt lat="46.0144" lon="6.58129">
        <ele>1912.2</ele>
        <time>2017-01-21T10:04:03.000Z</time>
      </trkpt>
      <trkpt lat="46.01439" lon="6.58128">
        <ele>1913.64</ele>
        <time>2017-01-21T10:04:09.000Z</time>
      </trkpt>
      <trkpt lat="46.01439" lon="6.58128">
        <ele>1915.56</ele>
        <time>2017-01-21T10:04:29.000Z</time>
      </trkpt>
      <trkpt lat="46.01439" lon="6.58128">
        <ele>1914.12</ele>
        <time>2017-01-21T10:04:31.000Z</time>
      </trkpt>
      <trkpt lat="46.0144" lon="6.58127">
        <ele>1915.08</ele>
        <time>2017-01-21T10:05:02.000Z</time>
      </trkpt>
      <trkpt lat="46.01441" lon="6.58128">
        <ele>1915.08</ele>
        <time>2017-01-21T10:05:15.000Z</time>
      </trkpt>
      <trkpt lat="46.0144" lon="6.58127">
        <ele>1915.08</ele>
        <time>2017-01-21T10:05:27.000Z</time>
      </trkpt>
      <trkpt lat="46.01438" lon="6.58126">
        <ele>1915.08</ele>
        <time>2017-01-21T10:05:31.000Z</time>
      </trkpt>
      <trkpt lat="46.01434" lon="6.58125">
        <ele>1915.08</ele>
        <time>2017-01-21T10:05:34.000Z</time>
      </trkpt>
      <trkpt lat="46.01427" lon="6.58124">
        <ele>1915.08</ele>
        <time>2017-01-21T10:05:40.000Z</time>
      </trkpt>
      <trkpt lat="46.01411" lon="6.58116">
        <ele>1912.68</ele>
        <time>2017-01-21T10:05:51.000Z</time>
      </trkpt>
      <trkpt lat="46.01392" lon="6.58102">
        <ele>1909.8</ele>
        <time>2017-01-21T10:06:03.000Z</time>
      </trkpt>
      <trkpt lat="46.01379" lon="6.58095">
        <ele>1909.32</ele>
        <time>2017-01-21T10:06:15.000Z</time>
      </trkpt>
      <trkpt lat="46.01377" lon="6.58096">
        <ele>1909.32</ele>
        <time>2017-01-21T10:06:16.000Z</time>
      </trkpt>
      <trkpt lat="46.01365" lon="6.58095">
        <ele>1911.24</ele>
        <time>2017-01-21T10:06:30.000Z</time>
      </trkpt>
      <trkpt lat="46.01352" lon="6.58092">
        <ele>1911.72</ele>
        <time>2017-01-21T10:06:43.000Z</time>
      </trkpt>
      <trkpt lat="46.01339" lon="6.5809">
        <ele>1912.2</ele>
        <time>2017-01-21T10:06:57.000Z</time>
      </trkpt>
      <trkpt lat="46.01329" lon="6.58088">
        <ele>1915.08</ele>
        <time>2017-01-21T10:07:12.000Z</time>
      </trkpt>
      <trkpt lat="46.01319" lon="6.58088">
        <ele>1917.01</ele>
        <time>2017-01-21T10:07:26.000Z</time>
      </trkpt>
      <trkpt lat="46.01312" lon="6.58088">
        <ele>1917.49</ele>
        <time>2017-01-21T10:07:37.000Z</time>
      </trkpt>
      <trkpt lat="46.01301" lon="6.58088">
        <ele>1919.41</ele>
        <time>2017-01-21T10:07:52.000Z</time>
      </trkpt>
      <trkpt lat="46.01292" lon="6.5809">
        <ele>1921.33</ele>
        <time>2017-01-21T10:08:06.000Z</time>
      </trkpt>
      <trkpt lat="46.01281" lon="6.58092">
        <ele>1922.77</ele>
        <time>2017-01-21T10:08:21.000Z</time>
      </trkpt>
      <trkpt lat="46.01267" lon="6.58095">
        <ele>1923.25</ele>
        <time>2017-01-21T10:08:35.000Z</time>
      </trkpt>
      <trkpt lat="46.01252" lon="6.58098">
        <ele>1923.74</ele>
        <time>2017-01-21T10:08:50.000Z</time>
      </trkpt>
      <trkpt lat="46.01245" lon="6.58101">
        <ele>1925.66</ele>
        <time>2017-01-21T10:09:01.000Z</time>
      </trkpt>
      <trkpt lat="46.01235" lon="6.58106">
        <ele>1927.58</ele>
        <time>2017-01-21T10:09:16.000Z</time>
      </trkpt>
      <trkpt lat="46.01223" lon="6.58111">
        <ele>1929.02</ele>
        <time>2017-01-21T10:09:31.000Z</time>
      </trkpt>
      <trkpt lat="46.0121" lon="6.58118">
        <ele>1929.5</ele>
        <time>2017-01-21T10:09:46.000Z</time>
      </trkpt>
      <trkpt lat="46.01205" lon="6.58121">
        <ele>1929.98</ele>
        <time>2017-01-21T10:09:56.000Z</time>
      </trkpt>
      <trkpt lat="46.01197" lon="6.58129">
        <ele>1928.06</ele>
        <time>2017-01-21T10:10:01.000Z</time>
      </trkpt>
      <trkpt lat="46.01191" lon="6.58134">
        <ele>1927.58</ele>
        <time>2017-01-21T10:10:10.000Z</time>
      </trkpt>
      <trkpt lat="46.01189" lon="6.58136">
        <ele>1927.58</ele>
        <time>2017-01-21T10:10:33.000Z</time>
      </trkpt>
      <trkpt lat="46.01183" lon="6.58139">
        <ele>1929.02</ele>
        <time>2017-01-21T10:10:48.000Z</time>
      </trkpt>
      <trkpt lat="46.01175" lon="6.58141">
        <ele>1931.91</ele>
        <time>2017-01-21T10:11:05.000Z</time>
      </trkpt>
      <trkpt lat="46.0117" lon="6.58141">
        <ele>1932.39</ele>
        <time>2017-01-21T10:11:16.000Z</time>
      </trkpt>
      <trkpt lat="46.01166" lon="6.58143">
        <ele>1932.39</ele>
        <time>2017-01-21T10:11:22.000Z</time>
      </trkpt>
      <trkpt lat="46.01156" lon="6.58147">
        <ele>1933.83</ele>
        <time>2017-01-21T10:11:34.000Z</time>
      </trkpt>
      <trkpt lat="46.01146" lon="6.58151">
        <ele>1935.27</ele>
        <time>2017-01-21T10:11:48.000Z</time>
      </trkpt>
      <trkpt lat="46.01138" lon="6.58157">
        <ele>1937.19</ele>
        <time>2017-01-21T10:12:01.000Z</time>
      </trkpt>
      <trkpt lat="46.01134" lon="6.58161">
        <ele>1939.12</ele>
        <time>2017-01-21T10:12:13.000Z</time>
      </trkpt>
      <trkpt lat="46.01131" lon="6.58151">
        <ele>1940.56</ele>
        <time>2017-01-21T10:12:25.000Z</time>
      </trkpt>
      <trkpt lat="46.01126" lon="6.58136">
        <ele>1942</ele>
        <time>2017-01-21T10:12:41.000Z</time>
      </trkpt>
      <trkpt lat="46.0112" lon="6.58129">
        <ele>1944.4</ele>
        <time>2017-01-21T10:12:56.000Z</time>
      </trkpt>
      <trkpt lat="46.01114" lon="6.5814">
        <ele>1946.33</ele>
        <time>2017-01-21T10:13:12.000Z</time>
      </trkpt>
      <trkpt lat="46.01112" lon="6.58133">
        <ele>1947.29</ele>
        <time>2017-01-21T10:13:22.000Z</time>
      </trkpt>
      <trkpt lat="46.0111" lon="6.58123">
        <ele>1948.73</ele>
        <time>2017-01-21T10:13:34.000Z</time>
      </trkpt>
      <trkpt lat="46.01106" lon="6.58124">
        <ele>1950.65</ele>
        <time>2017-01-21T10:13:46.000Z</time>
      </trkpt>
      <trkpt lat="46.01104" lon="6.58132">
        <ele>1951.13</ele>
        <time>2017-01-21T10:13:53.000Z</time>
      </trkpt>
      <trkpt lat="46.01099" lon="6.58144">
        <ele>1952.57</ele>
        <time>2017-01-21T10:14:07.000Z</time>
      </trkpt>
      <trkpt lat="46.01096" lon="6.5816">
        <ele>1954.5</ele>
        <time>2017-01-21T10:14:24.000Z</time>
      </trkpt>
      <trkpt lat="46.01093" lon="6.58175">
        <ele>1956.42</ele>
        <time>2017-01-21T10:14:40.000Z</time>
      </trkpt>
      <trkpt lat="46.01089" lon="6.58184">
        <ele>1958.34</ele>
        <time>2017-01-21T10:14:54.000Z</time>
      </trkpt>
      <trkpt lat="46.01087" lon="6.58177">
        <ele>1959.78</ele>
        <time>2017-01-21T10:15:05.000Z</time>
      </trkpt>
      <trkpt lat="46.01087" lon="6.58172">
        <ele>1959.78</ele>
        <time>2017-01-21T10:15:09.000Z</time>
      </trkpt>
      <trkpt lat="46.01086" lon="6.58158">
        <ele>1960.75</ele>
        <time>2017-01-21T10:15:22.000Z</time>
      </trkpt>
      <trkpt lat="46.01081" lon="6.58149">
        <ele>1962.19</ele>
        <time>2017-01-21T10:15:35.000Z</time>
      </trkpt>
      <trkpt lat="46.0108" lon="6.58135">
        <ele>1964.11</ele>
        <time>2017-01-21T10:15:49.000Z</time>
      </trkpt>
      <trkpt lat="46.0108" lon="6.58123">
        <ele>1964.59</ele>
        <time>2017-01-21T10:16:02.000Z</time>
      </trkpt>
      <trkpt lat="46.01078" lon="6.58107">
        <ele>1966.51</ele>
        <time>2017-01-21T10:16:16.000Z</time>
      </trkpt>
      <trkpt lat="46.01072" lon="6.58106">
        <ele>1967.48</ele>
        <time>2017-01-21T10:16:27.000Z</time>
      </trkpt>
      <trkpt lat="46.01061" lon="6.58113">
        <ele>1970.84</ele>
        <time>2017-01-21T10:16:45.000Z</time>
      </trkpt>
      <trkpt lat="46.01054" lon="6.58116">
        <ele>1971.8</ele>
        <time>2017-01-21T10:16:58.000Z</time>
      </trkpt>
      <trkpt lat="46.01047" lon="6.58127">
        <ele>1973.72</ele>
        <time>2017-01-21T10:17:12.000Z</time>
      </trkpt>
      <trkpt lat="46.0104" lon="6.58135">
        <ele>1976.13</ele>
        <time>2017-01-21T10:17:26.000Z</time>
      </trkpt>
      <trkpt lat="46.01033" lon="6.58147">
        <ele>1978.05</ele>
        <time>2017-01-21T10:17:42.000Z</time>
      </trkpt>
      <trkpt lat="46.01027" lon="6.58158">
        <ele>1980.45</ele>
        <time>2017-01-21T10:17:57.000Z</time>
      </trkpt>
      <trkpt lat="46.01021" lon="6.58169">
        <ele>1982.38</ele>
        <time>2017-01-21T10:18:11.000Z</time>
      </trkpt>
      <trkpt lat="46.01017" lon="6.58179">
        <ele>1984.78</ele>
        <time>2017-01-21T10:18:24.000Z</time>
      </trkpt>
      <trkpt lat="46.01013" lon="6.58191">
        <ele>1987.18</ele>
        <time>2017-01-21T10:18:38.000Z</time>
      </trkpt>
      <trkpt lat="46.01007" lon="6.58204">
        <ele>1989.59</ele>
        <time>2017-01-21T10:18:55.000Z</time>
      </trkpt>
      <trkpt lat="46.01001" lon="6.5821">
        <ele>1992.95</ele>
        <time>2017-01-21T10:19:09.000Z</time>
      </trkpt>
      <trkpt lat="46.00994" lon="6.58221">
        <ele>1994.87</ele>
        <time>2017-01-21T10:19:25.000Z</time>
      </trkpt>
      <trkpt lat="46.00989" lon="6.58228">
        <ele>1996.8</ele>
        <time>2017-01-21T10:19:38.000Z</time>
      </trkpt>
      <trkpt lat="46.00986" lon="6.58231">
        <ele>1997.28</ele>
        <time>2017-01-21T10:19:55.000Z</time>
      </trkpt>
      <trkpt lat="46.00987" lon="6.58231">
        <ele>1997.28</ele>
        <time>2017-01-21T10:20:18.000Z</time>
      </trkpt>
      <trkpt lat="46.00984" lon="6.58231">
        <ele>1998.24</ele>
        <time>2017-01-21T10:20:28.000Z</time>
      </trkpt>
      <trkpt lat="46.00979" lon="6.58233">
        <ele>1999.68</ele>
        <time>2017-01-21T10:20:39.000Z</time>
      </trkpt>
      <trkpt lat="46.00973" lon="6.58233">
        <ele>2001.6</ele>
        <time>2017-01-21T10:20:53.000Z</time>
      </trkpt>
      <trkpt lat="46.00972" lon="6.58226">
        <ele>2003.04</ele>
        <time>2017-01-21T10:21:05.000Z</time>
      </trkpt>
      <trkpt lat="46.0097" lon="6.58215">
        <ele>2005.45</ele>
        <time>2017-01-21T10:21:19.000Z</time>
      </trkpt>
      <trkpt lat="46.00968" lon="6.58208">
        <ele>2006.89</ele>
        <time>2017-01-21T10:21:31.000Z</time>
      </trkpt>
      <trkpt lat="46.00967" lon="6.58202">
        <ele>2008.81</ele>
        <time>2017-01-21T10:21:43.000Z</time>
      </trkpt>
      <trkpt lat="46.00966" lon="6.58198">
        <ele>2009.77</ele>
        <time>2017-01-21T10:21:56.000Z</time>
      </trkpt>
      <trkpt lat="46.00964" lon="6.58191">
        <ele>2011.7</ele>
        <time>2017-01-21T10:22:10.000Z</time>
      </trkpt>
      <trkpt lat="46.0096" lon="6.58184">
        <ele>2013.62</ele>
        <time>2017-01-21T10:22:22.000Z</time>
      </trkpt>
      <trkpt lat="46.00957" lon="6.58177">
        <ele>2016.02</ele>
        <time>2017-01-21T10:22:36.000Z</time>
      </trkpt>
      <trkpt lat="46.00954" lon="6.58167">
        <ele>2018.43</ele>
        <time>2017-01-21T10:22:51.000Z</time>
      </trkpt>
      <trkpt lat="46.00951" lon="6.58157">
        <ele>2020.35</ele>
        <time>2017-01-21T10:23:05.000Z</time>
      </trkpt>
      <trkpt lat="46.00948" lon="6.58147">
        <ele>2021.31</ele>
        <time>2017-01-21T10:23:17.000Z</time>
      </trkpt>
      <trkpt lat="46.00948" lon="6.5814">
        <ele>2021.79</ele>
        <time>2017-01-21T10:23:23.000Z</time>
      </trkpt>
      <trkpt lat="46.00948" lon="6.58126">
        <ele>2021.79</ele>
        <time>2017-01-21T10:23:35.000Z</time>
      </trkpt>
      <trkpt lat="46.00949" lon="6.58126">
        <ele>2021.79</ele>
        <time>2017-01-21T10:23:59.000Z</time>
      </trkpt>
      <trkpt lat="46.00949" lon="6.58126">
        <ele>2021.79</ele>
        <time>2017-01-21T10:24:25.000Z</time>
      </trkpt>
      <trkpt lat="46.00948" lon="6.58126">
        <ele>2021.79</ele>
        <time>2017-01-21T10:24:40.000Z</time>
      </trkpt>
      <trkpt lat="46.00948" lon="6.58125">
        <ele>2021.79</ele>
        <time>2017-01-21T10:25:03.000Z</time>
      </trkpt>
      <trkpt lat="46.00947" lon="6.58123">
        <ele>2022.27</ele>
        <time>2017-01-21T10:25:23.000Z</time>
      </trkpt>
      <trkpt lat="46.00947" lon="6.58114">
        <ele>2022.27</ele>
        <time>2017-01-21T10:25:29.000Z</time>
      </trkpt>
      <trkpt lat="46.00949" lon="6.58105">
        <ele>2022.27</ele>
        <time>2017-01-21T10:25:34.000Z</time>
      </trkpt>
      <trkpt lat="46.00955" lon="6.58082">
        <ele>2021.79</ele>
        <time>2017-01-21T10:25:49.000Z</time>
      </trkpt>
      <trkpt lat="46.00956" lon="6.58075">
        <ele>2022.75</ele>
        <time>2017-01-21T10:25:55.000Z</time>
      </trkpt>
      <trkpt lat="46.00959" lon="6.58054">
        <ele>2022.75</ele>
        <time>2017-01-21T10:26:09.000Z</time>
      </trkpt>
      <trkpt lat="46.00964" lon="6.58037">
        <ele>2022.75</ele>
        <time>2017-01-21T10:26:22.000Z</time>
      </trkpt>
      <trkpt lat="46.00965" lon="6.58033">
        <ele>2023.23</ele>
        <time>2017-01-21T10:26:26.000Z</time>
      </trkpt>
      <trkpt lat="46.00966" lon="6.58029">
        <ele>2023.71</ele>
        <time>2017-01-21T10:26:29.000Z</time>
      </trkpt>
      <trkpt lat="46.00968" lon="6.58015">
        <ele>2024.67</ele>
        <time>2017-01-21T10:26:43.000Z</time>
      </trkpt>
      <trkpt lat="46.00972" lon="6.58002">
        <ele>2024.67</ele>
        <time>2017-01-21T10:26:55.000Z</time>
      </trkpt>
      <trkpt lat="46.00976" lon="6.57987">
        <ele>2026.12</ele>
        <time>2017-01-21T10:27:09.000Z</time>
      </trkpt>
      <trkpt lat="46.0098" lon="6.5797">
        <ele>2026.6</ele>
        <time>2017-01-21T10:27:23.000Z</time>
      </trkpt>
      <trkpt lat="46.00984" lon="6.57955">
        <ele>2027.56</ele>
        <time>2017-01-21T10:27:36.000Z</time>
      </trkpt>
      <trkpt lat="46.00987" lon="6.57938">
        <ele>2028.04</ele>
        <time>2017-01-21T10:27:51.000Z</time>
      </trkpt>
      <trkpt lat="46.0099" lon="6.57923">
        <ele>2029.48</ele>
        <time>2017-01-21T10:28:05.000Z</time>
      </trkpt>
      <trkpt lat="46.00994" lon="6.5791">
        <ele>2030.92</ele>
        <time>2017-01-21T10:28:19.000Z</time>
      </trkpt>
      <trkpt lat="46.00998" lon="6.579">
        <ele>2031.4</ele>
        <time>2017-01-21T10:28:32.000Z</time>
      </trkpt>
      <trkpt lat="46.00998" lon="6.57896">
        <ele>2030.92</ele>
        <time>2017-01-21T10:28:44.000Z</time>
      </trkpt>
      <trkpt lat="46.00998" lon="6.57895">
        <ele>2031.4</ele>
        <time>2017-01-21T10:29:12.000Z</time>
      </trkpt>
      <trkpt lat="46.00999" lon="6.57895">
        <ele>2031.4</ele>
        <time>2017-01-21T10:29:31.000Z</time>
      </trkpt>
      <trkpt lat="46.00999" lon="6.57895">
        <ele>2031.4</ele>
        <time>2017-01-21T10:29:45.000Z</time>
      </trkpt>
      <trkpt lat="46.00998" lon="6.57893">
        <ele>2029.96</ele>
        <time>2017-01-21T10:30:12.000Z</time>
      </trkpt>
      <trkpt lat="46.00998" lon="6.57893">
        <ele>2029.96</ele>
        <time>2017-01-21T10:30:40.000Z</time>
      </trkpt>
      <trkpt lat="46.00998" lon="6.57893">
        <ele>2029.96</ele>
        <time>2017-01-21T10:31:08.000Z</time>
      </trkpt>
      <trkpt lat="46.00998" lon="6.57893">
        <ele>2029.96</ele>
        <time>2017-01-21T10:31:40.000Z</time>
      </trkpt>
      <trkpt lat="46.00998" lon="6.57893">
        <ele>2029.48</ele>
        <time>2017-01-21T10:32:09.000Z</time>
      </trkpt>
      <trkpt lat="46.00999" lon="6.57893">
        <ele>2029.48</ele>
        <time>2017-01-21T10:32:40.000Z</time>
      </trkpt>
      <trkpt lat="46.00999" lon="6.57893">
        <ele>2029.48</ele>
        <time>2017-01-21T10:33:08.000Z</time>
      </trkpt>
      <trkpt lat="46.00999" lon="6.57893">
        <ele>2029.48</ele>
        <time>2017-01-21T10:33:35.000Z</time>
      </trkpt>
      <trkpt lat="46.00998" lon="6.57893">
        <ele>2029.48</ele>
        <time>2017-01-21T10:34:10.000Z</time>
      </trkpt>
      <trkpt lat="46.00999" lon="6.57893">
        <ele>2029.48</ele>
        <time>2017-01-21T10:34:36.000Z</time>
      </trkpt>
      <trkpt lat="46.00999" lon="6.57894">
        <ele>2028.52</ele>
        <time>2017-01-21T10:34:57.000Z</time>
      </trkpt>
      <trkpt lat="46.00998" lon="6.57894">
        <ele>2030.44</ele>
        <time>2017-01-21T10:35:32.000Z</time>
      </trkpt>
      <trkpt lat="46.00998" lon="6.57895">
        <ele>2030.44</ele>
        <time>2017-01-21T10:36:09.000Z</time>
      </trkpt>
      <trkpt lat="46.00999" lon="6.57895">
        <ele>2030.44</ele>
        <time>2017-01-21T10:36:44.000Z</time>
      </trkpt>
      <trkpt lat="46.00999" lon="6.57894">
        <ele>2030.44</ele>
        <time>2017-01-21T10:37:13.000Z</time>
      </trkpt>
      <trkpt lat="46.00999" lon="6.57895">
        <ele>2029.48</ele>
        <time>2017-01-21T10:37:15.000Z</time>
      </trkpt>
      <trkpt lat="46.00999" lon="6.57894">
        <ele>2029.48</ele>
        <time>2017-01-21T10:37:43.000Z</time>
      </trkpt>
      <trkpt lat="46.01" lon="6.57894">
        <ele>2031.4</ele>
        <time>2017-01-21T10:37:52.000Z</time>
      </trkpt>
      <trkpt lat="46.01" lon="6.57896">
        <ele>2029.96</ele>
        <time>2017-01-21T10:38:11.000Z</time>
      </trkpt>
      <trkpt lat="46.01" lon="6.57896">
        <ele>2029.96</ele>
        <time>2017-01-21T10:38:26.000Z</time>
      </trkpt>
      <trkpt lat="46.00999" lon="6.57894">
        <ele>2029.96</ele>
        <time>2017-01-21T10:38:45.000Z</time>
      </trkpt>
      <trkpt lat="46.00999" lon="6.57894">
        <ele>2029.96</ele>
        <time>2017-01-21T10:38:58.000Z</time>
      </trkpt>
      <trkpt lat="46.00998" lon="6.57894">
        <ele>2029.96</ele>
        <time>2017-01-21T10:39:11.000Z</time>
      </trkpt>
      <trkpt lat="46.00988" lon="6.57896">
        <ele>2028.04</ele>
        <time>2017-01-21T10:39:19.000Z</time>
      </trkpt>
      <trkpt lat="46.00987" lon="6.57901">
        <ele>2028.04</ele>
        <time>2017-01-21T10:39:30.000Z</time>
      </trkpt>
      <trkpt lat="46.00981" lon="6.57921">
        <ele>2025.64</ele>
        <time>2017-01-21T10:39:41.000Z</time>
      </trkpt>
      <trkpt lat="46.00974" lon="6.57934">
        <ele>2022.75</ele>
        <time>2017-01-21T10:39:45.000Z</time>
      </trkpt>
      <trkpt lat="46.00961" lon="6.57957">
        <ele>2018.43</ele>
        <time>2017-01-21T10:39:52.000Z</time>
      </trkpt>
      <trkpt lat="46.00948" lon="6.57986">
        <ele>2014.58</ele>
        <time>2017-01-21T10:39:59.000Z</time>
      </trkpt>
      <trkpt lat="46.00946" lon="6.57993">
        <ele>2013.62</ele>
        <time>2017-01-21T10:40:02.000Z</time>
      </trkpt>
      <trkpt lat="46.00933" lon="6.58002">
        <ele>2009.77</ele>
        <time>2017-01-21T10:40:08.000Z</time>
      </trkpt>
      <trkpt lat="46.00925" lon="6.58014">
        <ele>2007.85</ele>
        <time>2017-01-21T10:40:12.000Z</time>
      </trkpt>
      <trkpt lat="46.0092" lon="6.58019">
        <ele>2006.89</ele>
        <time>2017-01-21T10:40:19.000Z</time>
      </trkpt>
      <trkpt lat="46.00912" lon="6.58013">
        <ele>2003.52</ele>
        <time>2017-01-21T10:40:24.000Z</time>
      </trkpt>
      <trkpt lat="46.00905" lon="6.5801">
        <ele>2000.16</ele>
        <time>2017-01-21T10:40:27.000Z</time>
      </trkpt>
      <trkpt lat="46.00902" lon="6.58003">
        <ele>1996.8</ele>
        <time>2017-01-21T10:40:30.000Z</time>
      </trkpt>
      <trkpt lat="46.00895" lon="6.58002">
        <ele>1994.39</ele>
        <time>2017-01-21T10:40:34.000Z</time>
      </trkpt>
      <trkpt lat="46.00894" lon="6.58003">
        <ele>1993.43</ele>
        <time>2017-01-21T10:40:35.000Z</time>
      </trkpt>
      <trkpt lat="46.00892" lon="6.58005">
        <ele>1992.95</ele>
        <time>2017-01-21T10:40:37.000Z</time>
      </trkpt>
      <trkpt lat="46.00893" lon="6.58004">
        <ele>1992.95</ele>
        <time>2017-01-21T10:40:53.000Z</time>
      </trkpt>
      <trkpt lat="46.00887" lon="6.58008">
        <ele>1991.51</ele>
        <time>2017-01-21T10:40:57.000Z</time>
      </trkpt>
      <trkpt lat="46.00883" lon="6.57999">
        <ele>1987.18</ele>
        <time>2017-01-21T10:41:02.000Z</time>
      </trkpt>
      <trkpt lat="46.00883" lon="6.57997">
        <ele>1987.18</ele>
        <time>2017-01-21T10:41:03.000Z</time>
      </trkpt>
      <trkpt lat="46.00878" lon="6.57994">
        <ele>1984.78</ele>
        <time>2017-01-21T10:41:06.000Z</time>
      </trkpt>
      <trkpt lat="46.00876" lon="6.57995">
        <ele>1983.82</ele>
        <time>2017-01-21T10:41:08.000Z</time>
      </trkpt>
      <trkpt lat="46.00872" lon="6.57989">
        <ele>1980.93</ele>
        <time>2017-01-21T10:41:11.000Z</time>
      </trkpt>
      <trkpt lat="46.00873" lon="6.57986">
        <ele>1980.93</ele>
        <time>2017-01-21T10:41:12.000Z</time>
      </trkpt>
      <trkpt lat="46.0088" lon="6.57972">
        <ele>1977.57</ele>
        <time>2017-01-21T10:41:18.000Z</time>
      </trkpt>
      <trkpt lat="46.0088" lon="6.57971">
        <ele>1977.57</ele>
        <time>2017-01-21T10:41:19.000Z</time>
      </trkpt>
      <trkpt lat="46.00872" lon="6.57962">
        <ele>1973.24</ele>
        <time>2017-01-21T10:41:24.000Z</time>
      </trkpt>
      <trkpt lat="46.00866" lon="6.57958">
        <ele>1969.88</ele>
        <time>2017-01-21T10:41:26.000Z</time>
      </trkpt>
      <trkpt lat="46.00862" lon="6.57948">
        <ele>1966.51</ele>
        <time>2017-01-21T10:41:28.000Z</time>
      </trkpt>
      <trkpt lat="46.00855" lon="6.5795">
        <ele>1963.63</ele>
        <time>2017-01-21T10:41:32.000Z</time>
      </trkpt>
      <trkpt lat="46.00851" lon="6.57936">
        <ele>1960.75</ele>
        <time>2017-01-21T10:41:37.000Z</time>
      </trkpt>
      <trkpt lat="46.00855" lon="6.57933">
        <ele>1960.27</ele>
        <time>2017-01-21T10:41:54.000Z</time>
      </trkpt>
      <trkpt lat="46.00857" lon="6.57932">
        <ele>1960.27</ele>
        <time>2017-01-21T10:42:06.000Z</time>
      </trkpt>
      <trkpt lat="46.00855" lon="6.57911">
        <ele>1956.9</ele>
        <time>2017-01-21T10:42:11.000Z</time>
      </trkpt>
      <trkpt lat="46.00856" lon="6.57884">
        <ele>1953.54</ele>
        <time>2017-01-21T10:42:15.000Z</time>
      </trkpt>
      <trkpt lat="46.00858" lon="6.57862">
        <ele>1951.13</ele>
        <time>2017-01-21T10:42:19.000Z</time>
      </trkpt>
      <trkpt lat="46.00843" lon="6.57839">
        <ele>1948.73</ele>
        <time>2017-01-21T10:42:26.000Z</time>
      </trkpt>
      <trkpt lat="46.00829" lon="6.57845">
        <ele>1946.81</ele>
        <time>2017-01-21T10:42:32.000Z</time>
      </trkpt>
      <trkpt lat="46.00825" lon="6.57847">
        <ele>1946.33</ele>
        <time>2017-01-21T10:42:35.000Z</time>
      </trkpt>
      <trkpt lat="46.00822" lon="6.57847">
        <ele>1945.36</ele>
        <time>2017-01-21T10:42:37.000Z</time>
      </trkpt>
      <trkpt lat="46.00821" lon="6.57846">
        <ele>1945.36</ele>
        <time>2017-01-21T10:42:45.000Z</time>
      </trkpt>
      <trkpt lat="46.00817" lon="6.57859">
        <ele>1943.92</ele>
        <time>2017-01-21T10:42:49.000Z</time>
      </trkpt>
      <trkpt lat="46.00808" lon="6.57873">
        <ele>1938.64</ele>
        <time>2017-01-21T10:42:52.000Z</time>
      </trkpt>
      <trkpt lat="46.00801" lon="6.57884">
        <ele>1934.31</ele>
        <time>2017-01-21T10:42:55.000Z</time>
      </trkpt>
      <trkpt lat="46.00797" lon="6.57891">
        <ele>1931.91</ele>
        <time>2017-01-21T10:42:57.000Z</time>
      </trkpt>
      <trkpt lat="46.00793" lon="6.57905">
        <ele>1929.98</ele>
        <time>2017-01-21T10:43:00.000Z</time>
      </trkpt>
      <trkpt lat="46.00793" lon="6.57904">
        <ele>1929.5</ele>
        <time>2017-01-21T10:43:08.000Z</time>
      </trkpt>
      <trkpt lat="46.0079" lon="6.57902">
        <ele>1927.58</ele>
        <time>2017-01-21T10:43:12.000Z</time>
      </trkpt>
      <trkpt lat="46.0079" lon="6.57899">
        <ele>1927.1</ele>
        <time>2017-01-21T10:43:17.000Z</time>
      </trkpt>
      <trkpt lat="46.00785" lon="6.57892">
        <ele>1926.14</ele>
        <time>2017-01-21T10:43:20.000Z</time>
      </trkpt>
      <trkpt lat="46.0078" lon="6.57876">
        <ele>1922.29</ele>
        <time>2017-01-21T10:43:23.000Z</time>
      </trkpt>
      <trkpt lat="46.0078" lon="6.57872">
        <ele>1920.85</ele>
        <time>2017-01-21T10:43:24.000Z</time>
      </trkpt>
      <trkpt lat="46.00769" lon="6.57847">
        <ele>1917.01</ele>
        <time>2017-01-21T10:43:30.000Z</time>
      </trkpt>
      <trkpt lat="46.00756" lon="6.57821">
        <ele>1914.12</ele>
        <time>2017-01-21T10:43:35.000Z</time>
      </trkpt>
      <trkpt lat="46.00753" lon="6.57817">
        <ele>1914.12</ele>
        <time>2017-01-21T10:43:40.000Z</time>
      </trkpt>
      <trkpt lat="46.00748" lon="6.57813">
        <ele>1912.2</ele>
        <time>2017-01-21T10:43:54.000Z</time>
      </trkpt>
      <trkpt lat="46.00747" lon="6.57812">
        <ele>1912.2</ele>
        <time>2017-01-21T10:43:55.000Z</time>
      </trkpt>
      <trkpt lat="46.00741" lon="6.57807">
        <ele>1909.32</ele>
        <time>2017-01-21T10:44:00.000Z</time>
      </trkpt>
      <trkpt lat="46.00741" lon="6.57806">
        <ele>1909.32</ele>
        <time>2017-01-21T10:44:02.000Z</time>
      </trkpt>
      <trkpt lat="46.00737" lon="6.57799">
        <ele>1907.39</ele>
        <time>2017-01-21T10:44:06.000Z</time>
      </trkpt>
      <trkpt lat="46.00734" lon="6.57787">
        <ele>1903.55</ele>
        <time>2017-01-21T10:44:11.000Z</time>
      </trkpt>
      <trkpt lat="46.00731" lon="6.5778">
        <ele>1900.18</ele>
        <time>2017-01-21T10:44:18.000Z</time>
      </trkpt>
      <trkpt lat="46.00725" lon="6.57769">
        <ele>1898.26</ele>
        <time>2017-01-21T10:44:26.000Z</time>
      </trkpt>
      <trkpt lat="46.00723" lon="6.57768">
        <ele>1898.26</ele>
        <time>2017-01-21T10:44:34.000Z</time>
      </trkpt>
      <trkpt lat="46.0072" lon="6.57767">
        <ele>1898.26</ele>
        <time>2017-01-21T10:44:39.000Z</time>
      </trkpt>
      <trkpt lat="46.00705" lon="6.57759">
        <ele>1896.82</ele>
        <time>2017-01-21T10:44:44.000Z</time>
      </trkpt>
      <trkpt lat="46.00692" lon="6.57755">
        <ele>1894.9</ele>
        <time>2017-01-21T10:44:47.000Z</time>
      </trkpt>
      <trkpt lat="46.00681" lon="6.57756">
        <ele>1893.93</ele>
        <time>2017-01-21T10:44:49.000Z</time>
      </trkpt>
      <trkpt lat="46.00671" lon="6.57758">
        <ele>1892.97</ele>
        <time>2017-01-21T10:44:51.000Z</time>
      </trkpt>
      <trkpt lat="46.0065" lon="6.57769">
        <ele>1890.57</ele>
        <time>2017-01-21T10:45:00.000Z</time>
      </trkpt>
      <trkpt lat="46.00646" lon="6.57772">
        <ele>1891.05</ele>
        <time>2017-01-21T10:45:10.000Z</time>
      </trkpt>
      <trkpt lat="46.0064" lon="6.57771">
        <ele>1890.09</ele>
        <time>2017-01-21T10:45:16.000Z</time>
      </trkpt>
      <trkpt lat="46.00635" lon="6.57768">
        <ele>1889.61</ele>
        <time>2017-01-21T10:45:28.000Z</time>
      </trkpt>
      <trkpt lat="46.00635" lon="6.57765">
        <ele>1889.61</ele>
        <time>2017-01-21T10:45:42.000Z</time>
      </trkpt>
      <trkpt lat="46.00617" lon="6.57739">
        <ele>1885.28</ele>
        <time>2017-01-21T10:45:52.000Z</time>
      </trkpt>
      <trkpt lat="46.00608" lon="6.5773">
        <ele>1883.36</ele>
        <time>2017-01-21T10:45:54.000Z</time>
      </trkpt>
      <trkpt lat="46.00587" lon="6.57713">
        <ele>1880</ele>
        <time>2017-01-21T10:46:01.000Z</time>
      </trkpt>
      <trkpt lat="46.00573" lon="6.57712">
        <ele>1878.07</ele>
        <time>2017-01-21T10:46:04.000Z</time>
      </trkpt>
      <trkpt lat="46.00556" lon="6.57709">
        <ele>1876.15</ele>
        <time>2017-01-21T10:46:07.000Z</time>
      </trkpt>
      <trkpt lat="46.00542" lon="6.57707">
        <ele>1874.71</ele>
        <time>2017-01-21T10:46:10.000Z</time>
      </trkpt>
      <trkpt lat="46.00529" lon="6.57712">
        <ele>1874.23</ele>
        <time>2017-01-21T10:46:19.000Z</time>
      </trkpt>
      <trkpt lat="46.00523" lon="6.57713">
        <ele>1873.75</ele>
        <time>2017-01-21T10:46:29.000Z</time>
      </trkpt>
      <trkpt lat="46.00519" lon="6.57717">
        <ele>1873.75</ele>
        <time>2017-01-21T10:46:41.000Z</time>
      </trkpt>
      <trkpt lat="46.00519" lon="6.57716">
        <ele>1873.27</ele>
        <time>2017-01-21T10:46:53.000Z</time>
      </trkpt>
      <trkpt lat="46.0052" lon="6.57719">
        <ele>1872.79</ele>
        <time>2017-01-21T10:47:06.000Z</time>
      </trkpt>
      <trkpt lat="46.0052" lon="6.5772">
        <ele>1872.79</ele>
        <time>2017-01-21T10:47:37.000Z</time>
      </trkpt>
      <trkpt lat="46.0052" lon="6.5772">
        <ele>1872.79</ele>
        <time>2017-01-21T10:48:14.000Z</time>
      </trkpt>
      <trkpt lat="46.00521" lon="6.5772">
        <ele>1872.79</ele>
        <time>2017-01-21T10:48:51.000Z</time>
      </trkpt>
      <trkpt lat="46.00521" lon="6.5772">
        <ele>1872.79</ele>
        <time>2017-01-21T10:49:22.000Z</time>
      </trkpt>
      <trkpt lat="46.00521" lon="6.5772">
        <ele>1872.3</ele>
        <time>2017-01-21T10:49:53.000Z</time>
      </trkpt>
      <trkpt lat="46.00521" lon="6.57719">
        <ele>1872.3</ele>
        <time>2017-01-21T10:50:29.000Z</time>
      </trkpt>
      <trkpt lat="46.0052" lon="6.5772">
        <ele>1872.3</ele>
        <time>2017-01-21T10:51:05.000Z</time>
      </trkpt>
      <trkpt lat="46.00521" lon="6.5772">
        <ele>1872.3</ele>
        <time>2017-01-21T10:51:26.000Z</time>
      </trkpt>
      <trkpt lat="46.00521" lon="6.5772">
        <ele>1872.3</ele>
        <time>2017-01-21T10:51:59.000Z</time>
      </trkpt>
      <trkpt lat="46.00521" lon="6.5772">
        <ele>1872.3</ele>
        <time>2017-01-21T10:52:27.000Z</time>
      </trkpt>
      <trkpt lat="46.00521" lon="6.5772">
        <ele>1872.3</ele>
        <time>2017-01-21T10:52:53.000Z</time>
      </trkpt>
      <trkpt lat="46.0052" lon="6.5772">
        <ele>1872.3</ele>
        <time>2017-01-21T10:53:26.000Z</time>
      </trkpt>
      <trkpt lat="46.00519" lon="6.57721">
        <ele>1868.94</ele>
        <time>2017-01-21T10:53:33.000Z</time>
      </trkpt>
      <trkpt lat="46.00519" lon="6.57721">
        <ele>1872.3</ele>
        <time>2017-01-21T10:53:37.000Z</time>
      </trkpt>
      <trkpt lat="46.00518" lon="6.57718">
        <ele>1872.79</ele>
        <time>2017-01-21T10:53:58.000Z</time>
      </trkpt>
      <trkpt lat="46.00523" lon="6.57723">
        <ele>1872.79</ele>
        <time>2017-01-21T10:54:33.000Z</time>
      </trkpt>
      <trkpt lat="46.00521" lon="6.57721">
        <ele>1873.27</ele>
        <time>2017-01-21T10:54:50.000Z</time>
      </trkpt>
      <trkpt lat="46.00519" lon="6.5772">
        <ele>1873.75</ele>
        <time>2017-01-21T10:55:10.000Z</time>
      </trkpt>
      <trkpt lat="46.00518" lon="6.5772">
        <ele>1874.23</ele>
        <time>2017-01-21T10:55:25.000Z</time>
      </trkpt>
      <trkpt lat="46.00517" lon="6.57718">
        <ele>1874.23</ele>
        <time>2017-01-21T10:55:47.000Z</time>
      </trkpt>
      <trkpt lat="46.00513" lon="6.57718">
        <ele>1874.23</ele>
        <time>2017-01-21T10:56:00.000Z</time>
      </trkpt>
      <trkpt lat="46.00512" lon="6.5772">
        <ele>1874.23</ele>
        <time>2017-01-21T10:56:15.000Z</time>
      </trkpt>
      <trkpt lat="46.00498" lon="6.5773">
        <ele>1873.75</ele>
        <time>2017-01-21T10:56:28.000Z</time>
      </trkpt>
      <trkpt lat="46.00485" lon="6.5774">
        <ele>1873.75</ele>
        <time>2017-01-21T10:56:41.000Z</time>
      </trkpt>
      <trkpt lat="46.00473" lon="6.57749">
        <ele>1874.23</ele>
        <time>2017-01-21T10:56:55.000Z</time>
      </trkpt>
      <trkpt lat="46.00462" lon="6.57756">
        <ele>1874.71</ele>
        <time>2017-01-21T10:57:10.000Z</time>
      </trkpt>
      <trkpt lat="46.00457" lon="6.57758">
        <ele>1875.67</ele>
        <time>2017-01-21T10:57:20.000Z</time>
      </trkpt>
      <trkpt lat="46.00445" lon="6.57758">
        <ele>1876.15</ele>
        <time>2017-01-21T10:57:34.000Z</time>
      </trkpt>
      <trkpt lat="46.00441" lon="6.5775">
        <ele>1876.15</ele>
        <time>2017-01-21T10:57:46.000Z</time>
      </trkpt>
      <trkpt lat="46.00433" lon="6.57738">
        <ele>1877.11</ele>
        <time>2017-01-21T10:58:01.000Z</time>
      </trkpt>
      <trkpt lat="46.00426" lon="6.57727">
        <ele>1878.07</ele>
        <time>2017-01-21T10:58:15.000Z</time>
      </trkpt>
      <trkpt lat="46.0042" lon="6.57716">
        <ele>1878.55</ele>
        <time>2017-01-21T10:58:28.000Z</time>
      </trkpt>
      <trkpt lat="46.00414" lon="6.57706">
        <ele>1880.48</ele>
        <time>2017-01-21T10:58:45.000Z</time>
      </trkpt>
      <trkpt lat="46.00409" lon="6.57693">
        <ele>1881.44</ele>
        <time>2017-01-21T10:59:00.000Z</time>
      </trkpt>
      <trkpt lat="46.00404" lon="6.57681">
        <ele>1882.4</ele>
        <time>2017-01-21T10:59:14.000Z</time>
      </trkpt>
      <trkpt lat="46.00401" lon="6.5767">
        <ele>1883.36</ele>
        <time>2017-01-21T10:59:25.000Z</time>
      </trkpt>
      <trkpt lat="46.00393" lon="6.57656">
        <ele>1883.84</ele>
        <time>2017-01-21T10:59:40.000Z</time>
      </trkpt>
      <trkpt lat="46.00386" lon="6.57647">
        <ele>1885.28</ele>
        <time>2017-01-21T10:59:52.000Z</time>
      </trkpt>
      <trkpt lat="46.00378" lon="6.57637">
        <ele>1885.76</ele>
        <time>2017-01-21T11:00:06.000Z</time>
      </trkpt>
      <trkpt lat="46.0037" lon="6.57629">
        <ele>1886.72</ele>
        <time>2017-01-21T11:00:20.000Z</time>
      </trkpt>
      <trkpt lat="46.00361" lon="6.57617">
        <ele>1887.69</ele>
        <time>2017-01-21T11:00:36.000Z</time>
      </trkpt>
      <trkpt lat="46.00354" lon="6.57607">
        <ele>1888.17</ele>
        <time>2017-01-21T11:00:47.000Z</time>
      </trkpt>
      <trkpt lat="46.00352" lon="6.57603">
        <ele>1888.17</ele>
        <time>2017-01-21T11:00:51.000Z</time>
      </trkpt>
      <trkpt lat="46.00344" lon="6.57597">
        <ele>1888.17</ele>
        <time>2017-01-21T11:01:01.000Z</time>
      </trkpt>
      <trkpt lat="46.00332" lon="6.57596">
        <ele>1888.65</ele>
        <time>2017-01-21T11:01:16.000Z</time>
      </trkpt>
      <trkpt lat="46.00317" lon="6.57594">
        <ele>1886.72</ele>
        <time>2017-01-21T11:01:27.000Z</time>
      </trkpt>
      <trkpt lat="46.00311" lon="6.57589">
        <ele>1886.24</ele>
        <time>2017-01-21T11:01:34.000Z</time>
      </trkpt>
      <trkpt lat="46.00295" lon="6.57574">
        <ele>1883.84</ele>
        <time>2017-01-21T11:01:47.000Z</time>
      </trkpt>
      <trkpt lat="46.00282" lon="6.57562">
        <ele>1883.36</ele>
        <time>2017-01-21T11:02:03.000Z</time>
      </trkpt>
      <trkpt lat="46.00267" lon="6.57543">
        <ele>1880.48</ele>
        <time>2017-01-21T11:02:17.000Z</time>
      </trkpt>
      <trkpt lat="46.00253" lon="6.57528">
        <ele>1879.03</ele>
        <time>2017-01-21T11:02:31.000Z</time>
      </trkpt>
      <trkpt lat="46.00233" lon="6.5751">
        <ele>1876.15</ele>
        <time>2017-01-21T11:02:42.000Z</time>
      </trkpt>
      <trkpt lat="46.00223" lon="6.57502">
        <ele>1876.15</ele>
        <time>2017-01-21T11:02:55.000Z</time>
      </trkpt>
      <trkpt lat="46.00216" lon="6.57498">
        <ele>1876.15</ele>
        <time>2017-01-21T11:03:04.000Z</time>
      </trkpt>
      <trkpt lat="46.002" lon="6.57489">
        <ele>1873.75</ele>
        <time>2017-01-21T11:03:14.000Z</time>
      </trkpt>
      <trkpt lat="46.00188" lon="6.57485">
        <ele>1873.75</ele>
        <time>2017-01-21T11:03:27.000Z</time>
      </trkpt>
      <trkpt lat="46.00186" lon="6.57483">
        <ele>1873.75</ele>
        <time>2017-01-21T11:03:29.000Z</time>
      </trkpt>
      <trkpt lat="46.00183" lon="6.57483">
        <ele>1873.75</ele>
        <time>2017-01-21T11:03:31.000Z</time>
      </trkpt>
      <trkpt lat="46.00172" lon="6.57487">
        <ele>1873.27</ele>
        <time>2017-01-21T11:03:43.000Z</time>
      </trkpt>
      <trkpt lat="46.00163" lon="6.57485">
        <ele>1872.79</ele>
        <time>2017-01-21T11:03:55.000Z</time>
      </trkpt>
      <trkpt lat="46.00161" lon="6.57483">
        <ele>1873.27</ele>
        <time>2017-01-21T11:03:58.000Z</time>
      </trkpt>
      <trkpt lat="46.00158" lon="6.57481">
        <ele>1872.79</ele>
        <time>2017-01-21T11:04:01.000Z</time>
      </trkpt>
      <trkpt lat="46.00155" lon="6.57479">
        <ele>1872.79</ele>
        <time>2017-01-21T11:04:05.000Z</time>
      </trkpt>
      <trkpt lat="46.00147" lon="6.57467">
        <ele>1873.27</ele>
        <time>2017-01-21T11:04:20.000Z</time>
      </trkpt>
      <trkpt lat="46.00139" lon="6.57461">
        <ele>1875.19</ele>
        <time>2017-01-21T11:04:34.000Z</time>
      </trkpt>
      <trkpt lat="46.00132" lon="6.57461">
        <ele>1876.63</ele>
        <time>2017-01-21T11:04:46.000Z</time>
      </trkpt>
      <trkpt lat="46.00129" lon="6.57462">
        <ele>1876.63</ele>
        <time>2017-01-21T11:04:49.000Z</time>
      </trkpt>
      <trkpt lat="46.00127" lon="6.57463">
        <ele>1877.11</ele>
        <time>2017-01-21T11:05:03.000Z</time>
      </trkpt>
      <trkpt lat="46.00127" lon="6.57464">
        <ele>1877.11</ele>
        <time>2017-01-21T11:05:18.000Z</time>
      </trkpt>
      <trkpt lat="46.00127" lon="6.57464">
        <ele>1876.63</ele>
        <time>2017-01-21T11:05:33.000Z</time>
      </trkpt>
      <trkpt lat="46.00121" lon="6.57463">
        <ele>1876.63</ele>
        <time>2017-01-21T11:05:48.000Z</time>
      </trkpt>
      <trkpt lat="46.00116" lon="6.57463">
        <ele>1876.63</ele>
        <time>2017-01-21T11:05:54.000Z</time>
      </trkpt>
      <trkpt lat="46.00108" lon="6.57459">
        <ele>1875.19</ele>
        <time>2017-01-21T11:06:01.000Z</time>
      </trkpt>
      <trkpt lat="46.00106" lon="6.57454">
        <ele>1874.71</ele>
        <time>2017-01-21T11:06:12.000Z</time>
      </trkpt>
      <trkpt lat="46.00105" lon="6.57453">
        <ele>1874.23</ele>
        <time>2017-01-21T11:06:23.000Z</time>
      </trkpt>
      <trkpt lat="46.00104" lon="6.5745">
        <ele>1873.27</ele>
        <time>2017-01-21T11:06:33.000Z</time>
      </trkpt>
      <trkpt lat="46.00102" lon="6.57449">
        <ele>1873.27</ele>
        <time>2017-01-21T11:06:35.000Z</time>
      </trkpt>
      <trkpt lat="46.001" lon="6.57439">
        <ele>1870.86</ele>
        <time>2017-01-21T11:06:47.000Z</time>
      </trkpt>
      <trkpt lat="46.00093" lon="6.57429">
        <ele>1868.46</ele>
        <time>2017-01-21T11:06:51.000Z</time>
      </trkpt>
      <trkpt lat="46.00088" lon="6.5742">
        <ele>1866.54</ele>
        <time>2017-01-21T11:06:55.000Z</time>
      </trkpt>
      <trkpt lat="46.00072" lon="6.5742">
        <ele>1863.65</ele>
        <time>2017-01-21T11:07:02.000Z</time>
      </trkpt>
      <trkpt lat="46.00063" lon="6.57423">
        <ele>1861.73</ele>
        <time>2017-01-21T11:07:05.000Z</time>
      </trkpt>
      <trkpt lat="46.00061" lon="6.57424">
        <ele>1861.25</ele>
        <time>2017-01-21T11:07:08.000Z</time>
      </trkpt>
      <trkpt lat="46.00043" lon="6.57426">
        <ele>1861.73</ele>
        <time>2017-01-21T11:07:23.000Z</time>
      </trkpt>
      <trkpt lat="46.00037" lon="6.57428">
        <ele>1863.17</ele>
        <time>2017-01-21T11:07:31.000Z</time>
      </trkpt>
      <trkpt lat="46.00033" lon="6.57436">
        <ele>1865.09</ele>
        <time>2017-01-21T11:07:43.000Z</time>
      </trkpt>
      <trkpt lat="46.00026" lon="6.57451">
        <ele>1867.02</ele>
        <time>2017-01-21T11:08:00.000Z</time>
      </trkpt>
      <trkpt lat="46.00021" lon="6.57463">
        <ele>1868.94</ele>
        <time>2017-01-21T11:08:15.000Z</time>
      </trkpt>
      <trkpt lat="46.00018" lon="6.5746">
        <ele>1869.9</ele>
        <time>2017-01-21T11:08:27.000Z</time>
      </trkpt>
      <trkpt lat="46.00013" lon="6.57459">
        <ele>1871.82</ele>
        <time>2017-01-21T11:08:40.000Z</time>
      </trkpt>
      <trkpt lat="46.00012" lon="6.57457">
        <ele>1871.82</ele>
        <time>2017-01-21T11:09:13.000Z</time>
      </trkpt>
      <trkpt lat="46.00012" lon="6.5746">
        <ele>1872.3</ele>
        <time>2017-01-21T11:09:29.000Z</time>
      </trkpt>
      <trkpt lat="46.00011" lon="6.57459">
        <ele>1872.79</ele>
        <time>2017-01-21T11:09:40.000Z</time>
      </trkpt>
      <trkpt lat="46.0001" lon="6.57455">
        <ele>1874.23</ele>
        <time>2017-01-21T11:09:52.000Z</time>
      </trkpt>
      <trkpt lat="46.0001" lon="6.57449">
        <ele>1875.19</ele>
        <time>2017-01-21T11:09:58.000Z</time>
      </trkpt>
      <trkpt lat="46.00007" lon="6.57438">
        <ele>1876.63</ele>
        <time>2017-01-21T11:10:10.000Z</time>
      </trkpt>
      <trkpt lat="46.00003" lon="6.57436">
        <ele>1878.07</ele>
        <time>2017-01-21T11:10:25.000Z</time>
      </trkpt>
      <trkpt lat="45.99995" lon="6.57436">
        <ele>1879.51</ele>
        <time>2017-01-21T11:10:38.000Z</time>
      </trkpt>
      <trkpt lat="45.99988" lon="6.57431">
        <ele>1881.44</ele>
        <time>2017-01-21T11:10:51.000Z</time>
      </trkpt>
      <trkpt lat="45.9998" lon="6.57426">
        <ele>1882.88</ele>
        <time>2017-01-21T11:11:04.000Z</time>
      </trkpt>
      <trkpt lat="45.99974" lon="6.57424">
        <ele>1884.8</ele>
        <time>2017-01-21T11:11:19.000Z</time>
      </trkpt>
      <trkpt lat="45.99971" lon="6.57419">
        <ele>1886.24</ele>
        <time>2017-01-21T11:11:32.000Z</time>
      </trkpt>
      <trkpt lat="45.99969" lon="6.57417">
        <ele>1886.72</ele>
        <time>2017-01-21T11:11:44.000Z</time>
      </trkpt>
      <trkpt lat="45.9997" lon="6.57421">
        <ele>1887.69</ele>
        <time>2017-01-21T11:11:56.000Z</time>
      </trkpt>
      <trkpt lat="45.99969" lon="6.57431">
        <ele>1888.65</ele>
        <time>2017-01-21T11:12:09.000Z</time>
      </trkpt>
      <trkpt lat="45.9997" lon="6.57442">
        <ele>1890.09</ele>
        <time>2017-01-21T11:12:23.000Z</time>
      </trkpt>
      <trkpt lat="45.99969" lon="6.5745">
        <ele>1891.05</ele>
        <time>2017-01-21T11:12:35.000Z</time>
      </trkpt>
      <trkpt lat="45.99966" lon="6.57463">
        <ele>1892.49</ele>
        <time>2017-01-21T11:12:49.000Z</time>
      </trkpt>
      <trkpt lat="45.99964" lon="6.57473">
        <ele>1892.97</ele>
        <time>2017-01-21T11:13:01.000Z</time>
      </trkpt>
      <trkpt lat="45.99962" lon="6.57479">
        <ele>1894.42</ele>
        <time>2017-01-21T11:13:13.000Z</time>
      </trkpt>
      <trkpt lat="45.99958" lon="6.57484">
        <ele>1895.38</ele>
        <time>2017-01-21T11:13:27.000Z</time>
      </trkpt>
      <trkpt lat="45.99954" lon="6.57479">
        <ele>1897.3</ele>
        <time>2017-01-21T11:13:40.000Z</time>
      </trkpt>
      <trkpt lat="45.99953" lon="6.57469">
        <ele>1899.22</ele>
        <time>2017-01-21T11:13:55.000Z</time>
      </trkpt>
      <trkpt lat="45.99949" lon="6.5746">
        <ele>1901.14</ele>
        <time>2017-01-21T11:14:10.000Z</time>
      </trkpt>
      <trkpt lat="45.99942" lon="6.57451">
        <ele>1903.07</ele>
        <time>2017-01-21T11:14:28.000Z</time>
      </trkpt>
      <trkpt lat="45.99935" lon="6.57447">
        <ele>1904.99</ele>
        <time>2017-01-21T11:14:42.000Z</time>
      </trkpt>
      <trkpt lat="45.99927" lon="6.57444">
        <ele>1906.91</ele>
        <time>2017-01-21T11:14:56.000Z</time>
      </trkpt>
      <trkpt lat="45.99924" lon="6.57446">
        <ele>1907.87</ele>
        <time>2017-01-21T11:15:14.000Z</time>
      </trkpt>
      <trkpt lat="45.9992" lon="6.57454">
        <ele>1909.32</ele>
        <time>2017-01-21T11:15:29.000Z</time>
      </trkpt>
      <trkpt lat="45.99917" lon="6.57468">
        <ele>1911.24</ele>
        <time>2017-01-21T11:15:47.000Z</time>
      </trkpt>
      <trkpt lat="45.99913" lon="6.57474">
        <ele>1913.16</ele>
        <time>2017-01-21T11:16:00.000Z</time>
      </trkpt>
      <trkpt lat="45.99908" lon="6.57478">
        <ele>1914.6</ele>
        <time>2017-01-21T11:16:13.000Z</time>
      </trkpt>
      <trkpt lat="45.99902" lon="6.57477">
        <ele>1915.56</ele>
        <time>2017-01-21T11:16:25.000Z</time>
      </trkpt>
      <trkpt lat="45.99895" lon="6.57475">
        <ele>1917.49</ele>
        <time>2017-01-21T11:16:38.000Z</time>
      </trkpt>
      <trkpt lat="45.99889" lon="6.57471">
        <ele>1918.93</ele>
        <time>2017-01-21T11:16:51.000Z</time>
      </trkpt>
      <trkpt lat="45.99881" lon="6.5747">
        <ele>1920.37</ele>
        <time>2017-01-21T11:17:04.000Z</time>
      </trkpt>
      <trkpt lat="45.99873" lon="6.5747">
        <ele>1922.29</ele>
        <time>2017-01-21T11:17:21.000Z</time>
      </trkpt>
      <trkpt lat="45.99865" lon="6.57473">
        <ele>1923.74</ele>
        <time>2017-01-21T11:17:35.000Z</time>
      </trkpt>
      <trkpt lat="45.99859" lon="6.5747">
        <ele>1925.66</ele>
        <time>2017-01-21T11:17:49.000Z</time>
      </trkpt>
      <trkpt lat="45.99846" lon="6.5746">
        <ele>1928.54</ele>
        <time>2017-01-21T11:18:13.000Z</time>
      </trkpt>
      <trkpt lat="45.99834" lon="6.57455">
        <ele>1930.95</ele>
        <time>2017-01-21T11:18:36.000Z</time>
      </trkpt>
      <trkpt lat="45.99827" lon="6.57455">
        <ele>1932.39</ele>
        <time>2017-01-21T11:18:51.000Z</time>
      </trkpt>
      <trkpt lat="45.99818" lon="6.57455">
        <ele>1933.83</ele>
        <time>2017-01-21T11:19:06.000Z</time>
      </trkpt>
      <trkpt lat="45.99809" lon="6.57454">
        <ele>1935.27</ele>
        <time>2017-01-21T11:19:19.000Z</time>
      </trkpt>
      <trkpt lat="45.99802" lon="6.57455">
        <ele>1937.67</ele>
        <time>2017-01-21T11:19:32.000Z</time>
      </trkpt>
      <trkpt lat="45.99797" lon="6.57462">
        <ele>1939.12</ele>
        <time>2017-01-21T11:19:48.000Z</time>
      </trkpt>
      <trkpt lat="45.99791" lon="6.57468">
        <ele>1941.04</ele>
        <time>2017-01-21T11:20:02.000Z</time>
      </trkpt>
      <trkpt lat="45.99789" lon="6.57464">
        <ele>1942.48</ele>
        <time>2017-01-21T11:20:12.000Z</time>
      </trkpt>
      <trkpt lat="45.9978" lon="6.57459">
        <ele>1944.4</ele>
        <time>2017-01-21T11:20:28.000Z</time>
      </trkpt>
      <trkpt lat="45.99778" lon="6.57458">
        <ele>1945.36</ele>
        <time>2017-01-21T11:20:41.000Z</time>
      </trkpt>
      <trkpt lat="45.99777" lon="6.5746">
        <ele>1944.4</ele>
        <time>2017-01-21T11:21:06.000Z</time>
      </trkpt>
      <trkpt lat="45.9978" lon="6.57464">
        <ele>1943.92</ele>
        <time>2017-01-21T11:21:31.000Z</time>
      </trkpt>
      <trkpt lat="45.9978" lon="6.57462">
        <ele>1943.92</ele>
        <time>2017-01-21T11:21:45.000Z</time>
      </trkpt>
      <trkpt lat="45.9978" lon="6.57462">
        <ele>1944.88</ele>
        <time>2017-01-21T11:21:49.000Z</time>
      </trkpt>
      <trkpt lat="45.99778" lon="6.57464">
        <ele>1945.36</ele>
        <time>2017-01-21T11:22:12.000Z</time>
      </trkpt>
      <trkpt lat="45.99775" lon="6.57466">
        <ele>1945.85</ele>
        <time>2017-01-21T11:22:39.000Z</time>
      </trkpt>
      <trkpt lat="45.99773" lon="6.57464">
        <ele>1946.33</ele>
        <time>2017-01-21T11:22:50.000Z</time>
      </trkpt>
      <trkpt lat="45.99772" lon="6.57465">
        <ele>1946.81</ele>
        <time>2017-01-21T11:23:00.000Z</time>
      </trkpt>
      <trkpt lat="45.99769" lon="6.57458">
        <ele>1947.29</ele>
        <time>2017-01-21T11:23:27.000Z</time>
      </trkpt>
      <trkpt lat="45.99762" lon="6.5745">
        <ele>1949.21</ele>
        <time>2017-01-21T11:23:44.000Z</time>
      </trkpt>
      <trkpt lat="45.99758" lon="6.57443">
        <ele>1950.65</ele>
        <time>2017-01-21T11:23:58.000Z</time>
      </trkpt>
      <trkpt lat="45.99752" lon="6.57439">
        <ele>1953.06</ele>
        <time>2017-01-21T11:24:12.000Z</time>
      </trkpt>
      <trkpt lat="45.99744" lon="6.57438">
        <ele>1954.5</ele>
        <time>2017-01-21T11:24:25.000Z</time>
      </trkpt>
      <trkpt lat="45.99739" lon="6.57433">
        <ele>1955.46</ele>
        <time>2017-01-21T11:24:37.000Z</time>
      </trkpt>
      <trkpt lat="45.99737" lon="6.57424">
        <ele>1957.38</ele>
        <time>2017-01-21T11:24:52.000Z</time>
      </trkpt>
      <trkpt lat="45.99734" lon="6.57416">
        <ele>1959.3</ele>
        <time>2017-01-21T11:25:05.000Z</time>
      </trkpt>
      <trkpt lat="45.99732" lon="6.57409">
        <ele>1960.27</ele>
        <time>2017-01-21T11:25:17.000Z</time>
      </trkpt>
      <trkpt lat="45.99725" lon="6.57411">
        <ele>1961.23</ele>
        <time>2017-01-21T11:25:29.000Z</time>
      </trkpt>
      <trkpt lat="45.99717" lon="6.57418">
        <ele>1963.15</ele>
        <time>2017-01-21T11:25:47.000Z</time>
      </trkpt>
      <trkpt lat="45.99711" lon="6.57422">
        <ele>1965.07</ele>
        <time>2017-01-21T11:26:01.000Z</time>
      </trkpt>
      <trkpt lat="45.99707" lon="6.57427">
        <ele>1966.99</ele>
        <time>2017-01-21T11:26:15.000Z</time>
      </trkpt>
      <trkpt lat="45.99704" lon="6.57431">
        <ele>1968.44</ele>
        <time>2017-01-21T11:26:25.000Z</time>
      </trkpt>
      <trkpt lat="45.99703" lon="6.57431">
        <ele>1967.96</ele>
        <time>2017-01-21T11:26:42.000Z</time>
      </trkpt>
      <trkpt lat="45.99697" lon="6.57429">
        <ele>1969.88</ele>
        <time>2017-01-21T11:26:55.000Z</time>
      </trkpt>
      <trkpt lat="45.99693" lon="6.57424">
        <ele>1970.84</ele>
        <time>2017-01-21T11:27:07.000Z</time>
      </trkpt>
      <trkpt lat="45.99686" lon="6.57417">
        <ele>1972.28</ele>
        <time>2017-01-21T11:27:21.000Z</time>
      </trkpt>
      <trkpt lat="45.99675" lon="6.5742">
        <ele>1973.72</ele>
        <time>2017-01-21T11:27:36.000Z</time>
      </trkpt>
      <trkpt lat="45.99667" lon="6.57418">
        <ele>1975.17</ele>
        <time>2017-01-21T11:27:52.000Z</time>
      </trkpt>
      <trkpt lat="45.99662" lon="6.57411">
        <ele>1977.09</ele>
        <time>2017-01-21T11:28:08.000Z</time>
      </trkpt>
      <trkpt lat="45.99656" lon="6.57408">
        <ele>1979.01</ele>
        <time>2017-01-21T11:28:22.000Z</time>
      </trkpt>
      <trkpt lat="45.99651" lon="6.57402">
        <ele>1980.93</ele>
        <time>2017-01-21T11:28:36.000Z</time>
      </trkpt>
      <trkpt lat="45.99651" lon="6.57398">
        <ele>1981.41</ele>
        <time>2017-01-21T11:28:51.000Z</time>
      </trkpt>
      <trkpt lat="45.99646" lon="6.57396">
        <ele>1982.38</ele>
        <time>2017-01-21T11:29:03.000Z</time>
      </trkpt>
      <trkpt lat="45.99644" lon="6.57397">
        <ele>1983.34</ele>
        <time>2017-01-21T11:29:25.000Z</time>
      </trkpt>
      <trkpt lat="45.99638" lon="6.57398">
        <ele>1984.78</ele>
        <time>2017-01-21T11:29:37.000Z</time>
      </trkpt>
      <trkpt lat="45.99635" lon="6.57401">
        <ele>1986.22</ele>
        <time>2017-01-21T11:29:48.000Z</time>
      </trkpt>
      <trkpt lat="45.99631" lon="6.5741">
        <ele>1987.66</ele>
        <time>2017-01-21T11:30:04.000Z</time>
      </trkpt>
      <trkpt lat="45.99629" lon="6.57418">
        <ele>1989.1</ele>
        <time>2017-01-21T11:30:18.000Z</time>
      </trkpt>
      <trkpt lat="45.99627" lon="6.57427">
        <ele>1990.55</ele>
        <time>2017-01-21T11:30:34.000Z</time>
      </trkpt>
      <trkpt lat="45.99623" lon="6.57429">
        <ele>1992.47</ele>
        <time>2017-01-21T11:30:46.000Z</time>
      </trkpt>
      <trkpt lat="45.99614" lon="6.57421">
        <ele>1993.43</ele>
        <time>2017-01-21T11:31:01.000Z</time>
      </trkpt>
      <trkpt lat="45.99609" lon="6.57411">
        <ele>1994.39</ele>
        <time>2017-01-21T11:31:16.000Z</time>
      </trkpt>
      <trkpt lat="45.99609" lon="6.57401">
        <ele>1996.32</ele>
        <time>2017-01-21T11:31:30.000Z</time>
      </trkpt>
      <trkpt lat="45.99607" lon="6.57401">
        <ele>1997.28</ele>
        <time>2017-01-21T11:31:46.000Z</time>
      </trkpt>
      <trkpt lat="45.99606" lon="6.57401">
        <ele>1997.76</ele>
        <time>2017-01-21T11:31:57.000Z</time>
      </trkpt>
      <trkpt lat="45.99603" lon="6.57401">
        <ele>1998.72</ele>
        <time>2017-01-21T11:32:07.000Z</time>
      </trkpt>
      <trkpt lat="45.99601" lon="6.57397">
        <ele>2000.64</ele>
        <time>2017-01-21T11:32:18.000Z</time>
      </trkpt>
      <trkpt lat="45.99595" lon="6.57401">
        <ele>2002.08</ele>
        <time>2017-01-21T11:32:30.000Z</time>
      </trkpt>
      <trkpt lat="45.99591" lon="6.57406">
        <ele>2003.04</ele>
        <time>2017-01-21T11:32:43.000Z</time>
      </trkpt>
      <trkpt lat="45.99589" lon="6.57408">
        <ele>2004.01</ele>
        <time>2017-01-21T11:32:56.000Z</time>
      </trkpt>
      <trkpt lat="45.99585" lon="6.57407">
        <ele>2005.45</ele>
        <time>2017-01-21T11:33:08.000Z</time>
      </trkpt>
      <trkpt lat="45.99578" lon="6.57402">
        <ele>2006.89</ele>
        <time>2017-01-21T11:33:23.000Z</time>
      </trkpt>
      <trkpt lat="45.99574" lon="6.57398">
        <ele>2008.33</ele>
        <time>2017-01-21T11:33:37.000Z</time>
      </trkpt>
      <trkpt lat="45.99571" lon="6.57393">
        <ele>2009.77</ele>
        <time>2017-01-21T11:33:51.000Z</time>
      </trkpt>
      <trkpt lat="45.99566" lon="6.57388">
        <ele>2010.73</ele>
        <time>2017-01-21T11:34:04.000Z</time>
      </trkpt>
      <trkpt lat="45.99562" lon="6.57396">
        <ele>2012.18</ele>
        <time>2017-01-21T11:34:21.000Z</time>
      </trkpt>
      <trkpt lat="45.99559" lon="6.57398">
        <ele>2013.62</ele>
        <time>2017-01-21T11:34:34.000Z</time>
      </trkpt>
      <trkpt lat="45.99556" lon="6.57395">
        <ele>2014.58</ele>
        <time>2017-01-21T11:34:46.000Z</time>
      </trkpt>
      <trkpt lat="45.99554" lon="6.57387">
        <ele>2016.02</ele>
        <time>2017-01-21T11:34:58.000Z</time>
      </trkpt>
      <trkpt lat="45.99551" lon="6.57381">
        <ele>2017.46</ele>
        <time>2017-01-21T11:35:11.000Z</time>
      </trkpt>
      <trkpt lat="45.99549" lon="6.57382">
        <ele>2017.94</ele>
        <time>2017-01-21T11:35:23.000Z</time>
      </trkpt>
      <trkpt lat="45.99548" lon="6.57387">
        <ele>2019.39</ele>
        <time>2017-01-21T11:35:40.000Z</time>
      </trkpt>
      <trkpt lat="45.99548" lon="6.5739">
        <ele>2019.87</ele>
        <time>2017-01-21T11:35:50.000Z</time>
      </trkpt>
      <trkpt lat="45.99546" lon="6.57396">
        <ele>2021.31</ele>
        <time>2017-01-21T11:36:02.000Z</time>
      </trkpt>
      <trkpt lat="45.99543" lon="6.57398">
        <ele>2023.23</ele>
        <time>2017-01-21T11:36:14.000Z</time>
      </trkpt>
      <trkpt lat="45.99538" lon="6.57402">
        <ele>2025.15</ele>
        <time>2017-01-21T11:36:27.000Z</time>
      </trkpt>
      <trkpt lat="45.9953" lon="6.57406">
        <ele>2026.6</ele>
        <time>2017-01-21T11:36:40.000Z</time>
      </trkpt>
      <trkpt lat="45.99529" lon="6.57415">
        <ele>2027.56</ele>
        <time>2017-01-21T11:36:51.000Z</time>
      </trkpt>
      <trkpt lat="45.99529" lon="6.57427">
        <ele>2029.48</ele>
        <time>2017-01-21T11:37:06.000Z</time>
      </trkpt>
      <trkpt lat="45.99528" lon="6.57441">
        <ele>2031.4</ele>
        <time>2017-01-21T11:37:24.000Z</time>
      </trkpt>
      <trkpt lat="45.99528" lon="6.57452">
        <ele>2032.84</ele>
        <time>2017-01-21T11:37:38.000Z</time>
      </trkpt>
      <trkpt lat="45.99526" lon="6.57468">
        <ele>2034.77</ele>
        <time>2017-01-21T11:37:53.000Z</time>
      </trkpt>
      <trkpt lat="45.9952" lon="6.57464">
        <ele>2036.21</ele>
        <time>2017-01-21T11:38:06.000Z</time>
      </trkpt>
      <trkpt lat="45.99514" lon="6.57459">
        <ele>2037.65</ele>
        <time>2017-01-21T11:38:19.000Z</time>
      </trkpt>
      <trkpt lat="45.99509" lon="6.57455">
        <ele>2040.05</ele>
        <time>2017-01-21T11:38:32.000Z</time>
      </trkpt>
      <trkpt lat="45.99503" lon="6.5745">
        <ele>2041.5</ele>
        <time>2017-01-21T11:38:43.000Z</time>
      </trkpt>
      <trkpt lat="45.99498" lon="6.57444">
        <ele>2042.94</ele>
        <time>2017-01-21T11:38:56.000Z</time>
      </trkpt>
      <trkpt lat="45.99491" lon="6.57441">
        <ele>2044.86</ele>
        <time>2017-01-21T11:39:09.000Z</time>
      </trkpt>
      <trkpt lat="45.99488" lon="6.57441">
        <ele>2045.82</ele>
        <time>2017-01-21T11:39:24.000Z</time>
      </trkpt>
      <trkpt lat="45.99482" lon="6.57441">
        <ele>2046.78</ele>
        <time>2017-01-21T11:39:37.000Z</time>
      </trkpt>
      <trkpt lat="45.99477" lon="6.57447">
        <ele>2048.71</ele>
        <time>2017-01-21T11:39:50.000Z</time>
      </trkpt>
      <trkpt lat="45.99476" lon="6.57455">
        <ele>2050.15</ele>
        <time>2017-01-21T11:40:03.000Z</time>
      </trkpt>
      <trkpt lat="45.99477" lon="6.57459">
        <ele>2051.11</ele>
        <time>2017-01-21T11:40:13.000Z</time>
      </trkpt>
      <trkpt lat="45.99478" lon="6.57463">
        <ele>2052.55</ele>
        <time>2017-01-21T11:40:27.000Z</time>
      </trkpt>
      <trkpt lat="45.99479" lon="6.57468">
        <ele>2053.99</ele>
        <time>2017-01-21T11:40:40.000Z</time>
      </trkpt>
      <trkpt lat="45.99478" lon="6.57475">
        <ele>2055.44</ele>
        <time>2017-01-21T11:40:51.000Z</time>
      </trkpt>
      <trkpt lat="45.99477" lon="6.57481">
        <ele>2056.88</ele>
        <time>2017-01-21T11:41:03.000Z</time>
      </trkpt>
      <trkpt lat="45.99477" lon="6.57483">
        <ele>2057.36</ele>
        <time>2017-01-21T11:41:18.000Z</time>
      </trkpt>
      <trkpt lat="45.99475" lon="6.57491">
        <ele>2059.28</ele>
        <time>2017-01-21T11:41:32.000Z</time>
      </trkpt>
      <trkpt lat="45.99473" lon="6.57498">
        <ele>2061.2</ele>
        <time>2017-01-21T11:41:44.000Z</time>
      </trkpt>
      <trkpt lat="45.99471" lon="6.57504">
        <ele>2062.65</ele>
        <time>2017-01-21T11:41:54.000Z</time>
      </trkpt>
      <trkpt lat="45.99471" lon="6.57512">
        <ele>2064.09</ele>
        <time>2017-01-21T11:42:07.000Z</time>
      </trkpt>
      <trkpt lat="45.99472" lon="6.57519">
        <ele>2066.01</ele>
        <time>2017-01-21T11:42:21.000Z</time>
      </trkpt>
      <trkpt lat="45.99472" lon="6.57527">
        <ele>2067.45</ele>
        <time>2017-01-21T11:42:34.000Z</time>
      </trkpt>
      <trkpt lat="45.99473" lon="6.57533">
        <ele>2068.89</ele>
        <time>2017-01-21T11:42:48.000Z</time>
      </trkpt>
      <trkpt lat="45.99471" lon="6.5754">
        <ele>2069.38</ele>
        <time>2017-01-21T11:43:06.000Z</time>
      </trkpt>
      <trkpt lat="45.99469" lon="6.57549">
        <ele>2071.3</ele>
        <time>2017-01-21T11:43:20.000Z</time>
      </trkpt>
      <trkpt lat="45.99468" lon="6.57556">
        <ele>2072.74</ele>
        <time>2017-01-21T11:43:33.000Z</time>
      </trkpt>
      <trkpt lat="45.99466" lon="6.57564">
        <ele>2075.14</ele>
        <time>2017-01-21T11:43:46.000Z</time>
      </trkpt>
      <trkpt lat="45.99463" lon="6.57568">
        <ele>2076.1</ele>
        <time>2017-01-21T11:43:57.000Z</time>
      </trkpt>
      <trkpt lat="45.99461" lon="6.5757">
        <ele>2077.55</ele>
        <time>2017-01-21T11:44:07.000Z</time>
      </trkpt>
      <trkpt lat="45.99458" lon="6.57573">
        <ele>2078.51</ele>
        <time>2017-01-21T11:44:33.000Z</time>
      </trkpt>
      <trkpt lat="45.99453" lon="6.57578">
        <ele>2079.95</ele>
        <time>2017-01-21T11:44:44.000Z</time>
      </trkpt>
      <trkpt lat="45.99448" lon="6.57572">
        <ele>2081.39</ele>
        <time>2017-01-21T11:44:56.000Z</time>
      </trkpt>
      <trkpt lat="45.99442" lon="6.57565">
        <ele>2082.83</ele>
        <time>2017-01-21T11:45:12.000Z</time>
      </trkpt>
      <trkpt lat="45.99438" lon="6.57562">
        <ele>2084.28</ele>
        <time>2017-01-21T11:45:24.000Z</time>
      </trkpt>
      <trkpt lat="45.99437" lon="6.57566">
        <ele>2085.24</ele>
        <time>2017-01-21T11:45:34.000Z</time>
      </trkpt>
      <trkpt lat="45.99435" lon="6.57576">
        <ele>2086.68</ele>
        <time>2017-01-21T11:45:49.000Z</time>
      </trkpt>
      <trkpt lat="45.99432" lon="6.57583">
        <ele>2088.12</ele>
        <time>2017-01-21T11:46:03.000Z</time>
      </trkpt>
      <trkpt lat="45.99428" lon="6.57588">
        <ele>2090.04</ele>
        <time>2017-01-21T11:46:16.000Z</time>
      </trkpt>
      <trkpt lat="45.99427" lon="6.57586">
        <ele>2090.52</ele>
        <time>2017-01-21T11:46:32.000Z</time>
      </trkpt>
      <trkpt lat="45.99422" lon="6.57581">
        <ele>2091.97</ele>
        <time>2017-01-21T11:46:44.000Z</time>
      </trkpt>
      <trkpt lat="45.99417" lon="6.57575">
        <ele>2093.89</ele>
        <time>2017-01-21T11:46:59.000Z</time>
      </trkpt>
      <trkpt lat="45.99413" lon="6.57572">
        <ele>2095.81</ele>
        <time>2017-01-21T11:47:12.000Z</time>
      </trkpt>
      <trkpt lat="45.99408" lon="6.57569">
        <ele>2097.25</ele>
        <time>2017-01-21T11:47:25.000Z</time>
      </trkpt>
      <trkpt lat="45.99403" lon="6.57563">
        <ele>2099.18</ele>
        <time>2017-01-21T11:47:39.000Z</time>
      </trkpt>
      <trkpt lat="45.99396" lon="6.57557">
        <ele>2101.1</ele>
        <time>2017-01-21T11:47:54.000Z</time>
      </trkpt>
      <trkpt lat="45.9939" lon="6.5755">
        <ele>2102.06</ele>
        <time>2017-01-21T11:48:06.000Z</time>
      </trkpt>
      <trkpt lat="45.99383" lon="6.57549">
        <ele>2103.98</ele>
        <time>2017-01-21T11:48:20.000Z</time>
      </trkpt>
      <trkpt lat="45.99378" lon="6.57542">
        <ele>2104.94</ele>
        <time>2017-01-21T11:48:32.000Z</time>
      </trkpt>
      <trkpt lat="45.99374" lon="6.57535">
        <ele>2105.91</ele>
        <time>2017-01-21T11:48:44.000Z</time>
      </trkpt>
      <trkpt lat="45.99369" lon="6.57528">
        <ele>2107.35</ele>
        <time>2017-01-21T11:48:58.000Z</time>
      </trkpt>
      <trkpt lat="45.99369" lon="6.57526">
        <ele>2106.87</ele>
        <time>2017-01-21T11:49:28.000Z</time>
      </trkpt>
      <trkpt lat="45.99371" lon="6.57524">
        <ele>2106.87</ele>
        <time>2017-01-21T11:49:58.000Z</time>
      </trkpt>
      <trkpt lat="45.99371" lon="6.57524">
        <ele>2106.87</ele>
        <time>2017-01-21T11:50:23.000Z</time>
      </trkpt>
      <trkpt lat="45.99369" lon="6.57525">
        <ele>2106.87</ele>
        <time>2017-01-21T11:50:43.000Z</time>
      </trkpt>
      <trkpt lat="45.99369" lon="6.57525">
        <ele>2106.87</ele>
        <time>2017-01-21T11:51:10.000Z</time>
      </trkpt>
      <trkpt lat="45.99369" lon="6.57529">
        <ele>2105.42</ele>
        <time>2017-01-21T11:51:44.000Z</time>
      </trkpt>
      <trkpt lat="45.99369" lon="6.57528">
        <ele>2105.42</ele>
        <time>2017-01-21T11:52:10.000Z</time>
      </trkpt>
      <trkpt lat="45.99369" lon="6.57528">
        <ele>2105.42</ele>
        <time>2017-01-21T11:52:51.000Z</time>
      </trkpt>
      <trkpt lat="45.9937" lon="6.57528">
        <ele>2110.71</ele>
        <time>2017-01-21T11:52:52.000Z</time>
      </trkpt>
      <trkpt lat="45.99369" lon="6.57528">
        <ele>2105.91</ele>
        <time>2017-01-21T11:52:53.000Z</time>
      </trkpt>
      <trkpt lat="45.9937" lon="6.57526">
        <ele>2105.42</ele>
        <time>2017-01-21T11:53:23.000Z</time>
      </trkpt>
      <trkpt lat="45.99371" lon="6.57527">
        <ele>2105.42</ele>
        <time>2017-01-21T11:53:57.000Z</time>
      </trkpt>
      <trkpt lat="45.9937" lon="6.57527">
        <ele>2105.42</ele>
        <time>2017-01-21T11:54:27.000Z</time>
      </trkpt>
      <trkpt lat="45.99371" lon="6.57527">
        <ele>2105.42</ele>
        <time>2017-01-21T11:55:09.000Z</time>
      </trkpt>
      <trkpt lat="45.99371" lon="6.57527">
        <ele>2105.42</ele>
        <time>2017-01-21T11:55:54.000Z</time>
      </trkpt>
      <trkpt lat="45.9937" lon="6.57527">
        <ele>2105.42</ele>
        <time>2017-01-21T11:56:42.000Z</time>
      </trkpt>
      <trkpt lat="45.9937" lon="6.57526">
        <ele>2105.42</ele>
        <time>2017-01-21T11:57:28.000Z</time>
      </trkpt>
      <trkpt lat="45.9937" lon="6.57527">
        <ele>2105.42</ele>
        <time>2017-01-21T11:58:07.000Z</time>
      </trkpt>
      <trkpt lat="45.9937" lon="6.57527">
        <ele>2105.42</ele>
        <time>2017-01-21T11:58:45.000Z</time>
      </trkpt>
      <trkpt lat="45.9937" lon="6.57527">
        <ele>2106.39</ele>
        <time>2017-01-21T11:59:23.000Z</time>
      </trkpt>
      <trkpt lat="45.9937" lon="6.57527">
        <ele>2106.39</ele>
        <time>2017-01-21T12:00:06.000Z</time>
      </trkpt>
      <trkpt lat="45.9937" lon="6.57527">
        <ele>2106.39</ele>
        <time>2017-01-21T12:00:49.000Z</time>
      </trkpt>
      <trkpt lat="45.9937" lon="6.57528">
        <ele>2106.39</ele>
        <time>2017-01-21T12:01:34.000Z</time>
      </trkpt>
      <trkpt lat="45.9937" lon="6.57527">
        <ele>2106.87</ele>
        <time>2017-01-21T12:02:11.000Z</time>
      </trkpt>
      <trkpt lat="45.9937" lon="6.57527">
        <ele>2106.87</ele>
        <time>2017-01-21T12:02:50.000Z</time>
      </trkpt>
      <trkpt lat="45.9937" lon="6.57527">
        <ele>2102.54</ele>
        <time>2017-01-21T12:03:25.000Z</time>
      </trkpt>
      <trkpt lat="45.9937" lon="6.57527">
        <ele>2109.75</ele>
        <time>2017-01-21T12:03:26.000Z</time>
      </trkpt>
      <trkpt lat="45.9937" lon="6.57527">
        <ele>2108.31</ele>
        <time>2017-01-21T12:03:27.000Z</time>
      </trkpt>
      <trkpt lat="45.99371" lon="6.57527">
        <ele>2107.35</ele>
        <time>2017-01-21T12:03:29.000Z</time>
      </trkpt>
      <trkpt lat="45.99371" lon="6.57527">
        <ele>2106.87</ele>
        <time>2017-01-21T12:04:04.000Z</time>
      </trkpt>
      <trkpt lat="45.99371" lon="6.57527">
        <ele>2106.87</ele>
        <time>2017-01-21T12:04:43.000Z</time>
      </trkpt>
      <trkpt lat="45.99371" lon="6.57527">
        <ele>2106.87</ele>
        <time>2017-01-21T12:05:19.000Z</time>
      </trkpt>
      <trkpt lat="45.99371" lon="6.57528">
        <ele>2106.87</ele>
        <time>2017-01-21T12:06:00.000Z</time>
      </trkpt>
      <trkpt lat="45.9937" lon="6.57528">
        <ele>2106.87</ele>
        <time>2017-01-21T12:06:38.000Z</time>
      </trkpt>
      <trkpt lat="45.99371" lon="6.57527">
        <ele>2106.39</ele>
        <time>2017-01-21T12:06:47.000Z</time>
      </trkpt>
      <trkpt lat="45.9937" lon="6.57528">
        <ele>2106.39</ele>
        <time>2017-01-21T12:07:12.000Z</time>
      </trkpt>
      <trkpt lat="45.9937" lon="6.57529">
        <ele>2106.39</ele>
        <time>2017-01-21T12:07:44.000Z</time>
      </trkpt>
      <trkpt lat="45.99369" lon="6.57528">
        <ele>2105.42</ele>
        <time>2017-01-21T12:08:09.000Z</time>
      </trkpt>
      <trkpt lat="45.99371" lon="6.57527">
        <ele>2107.35</ele>
        <time>2017-01-21T12:08:38.000Z</time>
      </trkpt>
      <trkpt lat="45.99372" lon="6.57527">
        <ele>2107.35</ele>
        <time>2017-01-21T12:09:14.000Z</time>
      </trkpt>
      <trkpt lat="45.99372" lon="6.57527">
        <ele>2107.35</ele>
        <time>2017-01-21T12:09:46.000Z</time>
      </trkpt>
      <trkpt lat="45.99372" lon="6.57528">
        <ele>2107.35</ele>
        <time>2017-01-21T12:10:26.000Z</time>
      </trkpt>
      <trkpt lat="45.99371" lon="6.57529">
        <ele>2108.79</ele>
        <time>2017-01-21T12:10:44.000Z</time>
      </trkpt>
      <trkpt lat="45.99372" lon="6.57528">
        <ele>2108.79</ele>
        <time>2017-01-21T12:11:00.000Z</time>
      </trkpt>
      <trkpt lat="45.99371" lon="6.57527">
        <ele>2108.79</ele>
        <time>2017-01-21T12:11:15.000Z</time>
      </trkpt>
      <trkpt lat="45.99369" lon="6.57527">
        <ele>2108.79</ele>
        <time>2017-01-21T12:11:36.000Z</time>
      </trkpt>
      <trkpt lat="45.99369" lon="6.57525">
        <ele>2108.79</ele>
        <time>2017-01-21T12:12:04.000Z</time>
      </trkpt>
      <trkpt lat="45.99367" lon="6.57523">
        <ele>2108.79</ele>
        <time>2017-01-21T12:12:22.000Z</time>
      </trkpt>
      <trkpt lat="45.99368" lon="6.57522">
        <ele>2108.31</ele>
        <time>2017-01-21T12:12:40.000Z</time>
      </trkpt>
      <trkpt lat="45.99364" lon="6.57518">
        <ele>2108.31</ele>
        <time>2017-01-21T12:13:06.000Z</time>
      </trkpt>
      <trkpt lat="45.99362" lon="6.57515">
        <ele>2108.31</ele>
        <time>2017-01-21T12:13:09.000Z</time>
      </trkpt>
      <trkpt lat="45.99353" lon="6.575">
        <ele>2109.75</ele>
        <time>2017-01-21T12:13:28.000Z</time>
      </trkpt>
      <trkpt lat="45.99346" lon="6.57491">
        <ele>2110.71</ele>
        <time>2017-01-21T12:13:42.000Z</time>
      </trkpt>
      <trkpt lat="45.9934" lon="6.57483">
        <ele>2112.15</ele>
        <time>2017-01-21T12:13:55.000Z</time>
      </trkpt>
      <trkpt lat="45.99332" lon="6.57472">
        <ele>2113.6</ele>
        <time>2017-01-21T12:14:11.000Z</time>
      </trkpt>
      <trkpt lat="45.99323" lon="6.57462">
        <ele>2114.08</ele>
        <time>2017-01-21T12:14:26.000Z</time>
      </trkpt>
      <trkpt lat="45.99316" lon="6.57452">
        <ele>2115.04</ele>
        <time>2017-01-21T12:14:40.000Z</time>
      </trkpt>
      <trkpt lat="45.99307" lon="6.5744">
        <ele>2116</ele>
        <time>2017-01-21T12:14:56.000Z</time>
      </trkpt>
      <trkpt lat="45.99296" lon="6.57429">
        <ele>2116.96</ele>
        <time>2017-01-21T12:15:13.000Z</time>
      </trkpt>
      <trkpt lat="45.99287" lon="6.57419">
        <ele>2117.92</ele>
        <time>2017-01-21T12:15:30.000Z</time>
      </trkpt>
      <trkpt lat="45.99279" lon="6.57411">
        <ele>2119.36</ele>
        <time>2017-01-21T12:15:46.000Z</time>
      </trkpt>
      <trkpt lat="45.99274" lon="6.57406">
        <ele>2120.81</ele>
        <time>2017-01-21T12:15:59.000Z</time>
      </trkpt>
      <trkpt lat="45.99268" lon="6.57402">
        <ele>2121.77</ele>
        <time>2017-01-21T12:16:13.000Z</time>
      </trkpt>
      <trkpt lat="45.99265" lon="6.57398">
        <ele>2123.69</ele>
        <time>2017-01-21T12:16:25.000Z</time>
      </trkpt>
      <trkpt lat="45.99262" lon="6.57396">
        <ele>2124.65</ele>
        <time>2017-01-21T12:16:35.000Z</time>
      </trkpt>
      <trkpt lat="45.9926" lon="6.57394">
        <ele>2125.13</ele>
        <time>2017-01-21T12:16:49.000Z</time>
      </trkpt>
      <trkpt lat="45.99256" lon="6.5739">
        <ele>2126.09</ele>
        <time>2017-01-21T12:17:03.000Z</time>
      </trkpt>
      <trkpt lat="45.99248" lon="6.57383">
        <ele>2128.02</ele>
        <time>2017-01-21T12:17:19.000Z</time>
      </trkpt>
      <trkpt lat="45.99244" lon="6.57379">
        <ele>2129.46</ele>
        <time>2017-01-21T12:17:33.000Z</time>
      </trkpt>
      <trkpt lat="45.9924" lon="6.57374">
        <ele>2130.42</ele>
        <time>2017-01-21T12:17:45.000Z</time>
      </trkpt>
      <trkpt lat="45.99237" lon="6.5737">
        <ele>2132.34</ele>
        <time>2017-01-21T12:17:59.000Z</time>
      </trkpt>
      <trkpt lat="45.99233" lon="6.57364">
        <ele>2133.78</ele>
        <time>2017-01-21T12:18:13.000Z</time>
      </trkpt>
      <trkpt lat="45.99228" lon="6.57358">
        <ele>2134.74</ele>
        <time>2017-01-21T12:18:27.000Z</time>
      </trkpt>
      <trkpt lat="45.99222" lon="6.57351">
        <ele>2136.67</ele>
        <time>2017-01-21T12:18:43.000Z</time>
      </trkpt>
      <trkpt lat="45.99216" lon="6.57343">
        <ele>2138.59</ele>
        <time>2017-01-21T12:18:59.000Z</time>
      </trkpt>
      <trkpt lat="45.9921" lon="6.57335">
        <ele>2140.03</ele>
        <time>2017-01-21T12:19:15.000Z</time>
      </trkpt>
      <trkpt lat="45.99204" lon="6.57329">
        <ele>2141.47</ele>
        <time>2017-01-21T12:19:28.000Z</time>
      </trkpt>
      <trkpt lat="45.99199" lon="6.57321">
        <ele>2142.92</ele>
        <time>2017-01-21T12:19:41.000Z</time>
      </trkpt>
      <trkpt lat="45.99192" lon="6.57313">
        <ele>2144.36</ele>
        <time>2017-01-21T12:19:56.000Z</time>
      </trkpt>
      <trkpt lat="45.99185" lon="6.57305">
        <ele>2145.8</ele>
        <time>2017-01-21T12:20:10.000Z</time>
      </trkpt>
      <trkpt lat="45.9918" lon="6.57298">
        <ele>2147.72</ele>
        <time>2017-01-21T12:20:26.000Z</time>
      </trkpt>
      <trkpt lat="45.99177" lon="6.57294">
        <ele>2148.68</ele>
        <time>2017-01-21T12:20:39.000Z</time>
      </trkpt>
      <trkpt lat="45.99171" lon="6.57285">
        <ele>2149.65</ele>
        <time>2017-01-21T12:20:54.000Z</time>
      </trkpt>
      <trkpt lat="45.99166" lon="6.57279">
        <ele>2151.09</ele>
        <time>2017-01-21T12:21:09.000Z</time>
      </trkpt>
      <trkpt lat="45.99162" lon="6.57273">
        <ele>2153.01</ele>
        <time>2017-01-21T12:21:23.000Z</time>
      </trkpt>
      <trkpt lat="45.99162" lon="6.57273">
        <ele>2153.49</ele>
        <time>2017-01-21T12:21:39.000Z</time>
      </trkpt>
      <trkpt lat="45.99158" lon="6.57267">
        <ele>2154.93</ele>
        <time>2017-01-21T12:21:53.000Z</time>
      </trkpt>
      <trkpt lat="45.99154" lon="6.57261">
        <ele>2156.37</ele>
        <time>2017-01-21T12:22:05.000Z</time>
      </trkpt>
      <trkpt lat="45.99148" lon="6.57255">
        <ele>2157.82</ele>
        <time>2017-01-21T12:22:19.000Z</time>
      </trkpt>
      <trkpt lat="45.99144" lon="6.57253">
        <ele>2158.78</ele>
        <time>2017-01-21T12:22:35.000Z</time>
      </trkpt>
      <trkpt lat="45.99137" lon="6.57249">
        <ele>2160.22</ele>
        <time>2017-01-21T12:22:51.000Z</time>
      </trkpt>
      <trkpt lat="45.99136" lon="6.57249">
        <ele>2160.7</ele>
        <time>2017-01-21T12:23:04.000Z</time>
      </trkpt>
      <trkpt lat="45.99132" lon="6.57244">
        <ele>2161.18</ele>
        <time>2017-01-21T12:23:18.000Z</time>
      </trkpt>
      <trkpt lat="45.99128" lon="6.5724">
        <ele>2162.62</ele>
        <time>2017-01-21T12:23:32.000Z</time>
      </trkpt>
      <trkpt lat="45.99123" lon="6.57234">
        <ele>2164.06</ele>
        <time>2017-01-21T12:23:48.000Z</time>
      </trkpt>
      <trkpt lat="45.99119" lon="6.57229">
        <ele>2165.99</ele>
        <time>2017-01-21T12:24:00.000Z</time>
      </trkpt>
      <trkpt lat="45.99116" lon="6.57224">
        <ele>2167.43</ele>
        <time>2017-01-21T12:24:13.000Z</time>
      </trkpt>
      <trkpt lat="45.99113" lon="6.57222">
        <ele>2167.91</ele>
        <time>2017-01-21T12:24:28.000Z</time>
      </trkpt>
      <trkpt lat="45.99109" lon="6.57216">
        <ele>2169.35</ele>
        <time>2017-01-21T12:24:43.000Z</time>
      </trkpt>
      <trkpt lat="45.99104" lon="6.57212">
        <ele>2170.79</ele>
        <time>2017-01-21T12:24:54.000Z</time>
      </trkpt>
      <trkpt lat="45.99101" lon="6.57208">
        <ele>2171.76</ele>
        <time>2017-01-21T12:25:07.000Z</time>
      </trkpt>
      <trkpt lat="45.99097" lon="6.57202">
        <ele>2173.2</ele>
        <time>2017-01-21T12:25:20.000Z</time>
      </trkpt>
      <trkpt lat="45.99091" lon="6.57198">
        <ele>2174.64</ele>
        <time>2017-01-21T12:25:32.000Z</time>
      </trkpt>
      <trkpt lat="45.99087" lon="6.57194">
        <ele>2176.08</ele>
        <time>2017-01-21T12:25:44.000Z</time>
      </trkpt>
      <trkpt lat="45.99081" lon="6.57186">
        <ele>2177.04</ele>
        <time>2017-01-21T12:25:57.000Z</time>
      </trkpt>
      <trkpt lat="45.99076" lon="6.57181">
        <ele>2178.48</ele>
        <time>2017-01-21T12:26:11.000Z</time>
      </trkpt>
      <trkpt lat="45.9907" lon="6.57173">
        <ele>2179.93</ele>
        <time>2017-01-21T12:26:26.000Z</time>
      </trkpt>
      <trkpt lat="45.99067" lon="6.57167">
        <ele>2181.85</ele>
        <time>2017-01-21T12:26:38.000Z</time>
      </trkpt>
      <trkpt lat="45.99062" lon="6.57161">
        <ele>2183.29</ele>
        <time>2017-01-21T12:26:51.000Z</time>
      </trkpt>
      <trkpt lat="45.99057" lon="6.57154">
        <ele>2184.73</ele>
        <time>2017-01-21T12:27:04.000Z</time>
      </trkpt>
      <trkpt lat="45.99052" lon="6.57148">
        <ele>2186.66</ele>
        <time>2017-01-21T12:27:17.000Z</time>
      </trkpt>
      <trkpt lat="45.99047" lon="6.57144">
        <ele>2187.62</ele>
        <time>2017-01-21T12:27:29.000Z</time>
      </trkpt>
      <trkpt lat="45.99042" lon="6.57138">
        <ele>2190.02</ele>
        <time>2017-01-21T12:27:43.000Z</time>
      </trkpt>
      <trkpt lat="45.99035" lon="6.57128">
        <ele>2191.94</ele>
        <time>2017-01-21T12:27:58.000Z</time>
      </trkpt>
      <trkpt lat="45.99031" lon="6.57122">
        <ele>2193.39</ele>
        <time>2017-01-21T12:28:11.000Z</time>
      </trkpt>
      <trkpt lat="45.99024" lon="6.57118">
        <ele>2194.35</ele>
        <time>2017-01-21T12:28:24.000Z</time>
      </trkpt>
      <trkpt lat="45.99019" lon="6.57113">
        <ele>2195.79</ele>
        <time>2017-01-21T12:28:39.000Z</time>
      </trkpt>
      <trkpt lat="45.9901" lon="6.57109">
        <ele>2197.71</ele>
        <time>2017-01-21T12:28:52.000Z</time>
      </trkpt>
      <trkpt lat="45.99002" lon="6.57104">
        <ele>2199.63</ele>
        <time>2017-01-21T12:29:08.000Z</time>
      </trkpt>
      <trkpt lat="45.99002" lon="6.57102">
        <ele>2200.11</ele>
        <time>2017-01-21T12:29:20.000Z</time>
      </trkpt>
      <trkpt lat="45.98997" lon="6.57099">
        <ele>2201.08</ele>
        <time>2017-01-21T12:29:34.000Z</time>
      </trkpt>
      <trkpt lat="45.98989" lon="6.57096">
        <ele>2203</ele>
        <time>2017-01-21T12:29:47.000Z</time>
      </trkpt>
      <trkpt lat="45.98983" lon="6.57091">
        <ele>2204.44</ele>
        <time>2017-01-21T12:30:00.000Z</time>
      </trkpt>
      <trkpt lat="45.98976" lon="6.57085">
        <ele>2206.36</ele>
        <time>2017-01-21T12:30:14.000Z</time>
      </trkpt>
      <trkpt lat="45.98971" lon="6.57081">
        <ele>2208.77</ele>
        <time>2017-01-21T12:30:28.000Z</time>
      </trkpt>
      <trkpt lat="45.98965" lon="6.57076">
        <ele>2210.69</ele>
        <time>2017-01-21T12:30:41.000Z</time>
      </trkpt>
      <trkpt lat="45.98959" lon="6.57072">
        <ele>2212.13</ele>
        <time>2017-01-21T12:30:55.000Z</time>
      </trkpt>
      <trkpt lat="45.98955" lon="6.57069">
        <ele>2214.05</ele>
        <time>2017-01-21T12:31:07.000Z</time>
      </trkpt>
      <trkpt lat="45.98952" lon="6.57067">
        <ele>2214.53</ele>
        <time>2017-01-21T12:31:27.000Z</time>
      </trkpt>
      <trkpt lat="45.98949" lon="6.57063">
        <ele>2215.98</ele>
        <time>2017-01-21T12:31:39.000Z</time>
      </trkpt>
      <trkpt lat="45.98942" lon="6.57057">
        <ele>2217.9</ele>
        <time>2017-01-21T12:31:55.000Z</time>
      </trkpt>
      <trkpt lat="45.98934" lon="6.57053">
        <ele>2218.86</ele>
        <time>2017-01-21T12:32:07.000Z</time>
      </trkpt>
      <trkpt lat="45.98925" lon="6.57049">
        <ele>2219.82</ele>
        <time>2017-01-21T12:32:21.000Z</time>
      </trkpt>
      <trkpt lat="45.98919" lon="6.57046">
        <ele>2220.78</ele>
        <time>2017-01-21T12:32:35.000Z</time>
      </trkpt>
      <trkpt lat="45.9891" lon="6.57041">
        <ele>2221.26</ele>
        <time>2017-01-21T12:32:48.000Z</time>
      </trkpt>
      <trkpt lat="45.989" lon="6.57035">
        <ele>2221.26</ele>
        <time>2017-01-21T12:33:02.000Z</time>
      </trkpt>
      <trkpt lat="45.98889" lon="6.5703">
        <ele>2221.74</ele>
        <time>2017-01-21T12:33:15.000Z</time>
      </trkpt>
      <trkpt lat="45.98876" lon="6.57024">
        <ele>2222.22</ele>
        <time>2017-01-21T12:33:31.000Z</time>
      </trkpt>
      <trkpt lat="45.98865" lon="6.57017">
        <ele>2222.71</ele>
        <time>2017-01-21T12:33:47.000Z</time>
      </trkpt>
      <trkpt lat="45.98852" lon="6.57011">
        <ele>2223.19</ele>
        <time>2017-01-21T12:34:04.000Z</time>
      </trkpt>
      <trkpt lat="45.98841" lon="6.57003">
        <ele>2224.15</ele>
        <time>2017-01-21T12:34:18.000Z</time>
      </trkpt>
      <trkpt lat="45.98841" lon="6.57003">
        <ele>2224.15</ele>
        <time>2017-01-21T12:34:19.000Z</time>
      </trkpt>
      <trkpt lat="45.98829" lon="6.57">
        <ele>2224.63</ele>
        <time>2017-01-21T12:34:34.000Z</time>
      </trkpt>
      <trkpt lat="45.98819" lon="6.56989">
        <ele>2226.07</ele>
        <time>2017-01-21T12:34:51.000Z</time>
      </trkpt>
      <trkpt lat="45.98808" lon="6.56983">
        <ele>2227.03</ele>
        <time>2017-01-21T12:35:06.000Z</time>
      </trkpt>
      <trkpt lat="45.98798" lon="6.56978">
        <ele>2227.99</ele>
        <time>2017-01-21T12:35:20.000Z</time>
      </trkpt>
      <trkpt lat="45.9879" lon="6.56974">
        <ele>2228.95</ele>
        <time>2017-01-21T12:35:34.000Z</time>
      </trkpt>
      <trkpt lat="45.98787" lon="6.5697">
        <ele>2230.88</ele>
        <time>2017-01-21T12:35:44.000Z</time>
      </trkpt>
      <trkpt lat="45.98785" lon="6.56968">
        <ele>2231.36</ele>
        <time>2017-01-21T12:35:56.000Z</time>
      </trkpt>
      <trkpt lat="45.98781" lon="6.56967">
        <ele>2231.84</ele>
        <time>2017-01-21T12:36:08.000Z</time>
      </trkpt>
      <trkpt lat="45.9878" lon="6.56965">
        <ele>2231.84</ele>
        <time>2017-01-21T12:36:25.000Z</time>
      </trkpt>
      <trkpt lat="45.98772" lon="6.56965">
        <ele>2233.76</ele>
        <time>2017-01-21T12:36:38.000Z</time>
      </trkpt>
      <trkpt lat="45.98767" lon="6.56963">
        <ele>2235.68</ele>
        <time>2017-01-21T12:36:51.000Z</time>
      </trkpt>
      <trkpt lat="45.98761" lon="6.56961">
        <ele>2238.09</ele>
        <time>2017-01-21T12:37:05.000Z</time>
      </trkpt>
      <trkpt lat="45.98755" lon="6.56959">
        <ele>2239.53</ele>
        <time>2017-01-21T12:37:17.000Z</time>
      </trkpt>
      <trkpt lat="45.98755" lon="6.56959">
        <ele>2240.01</ele>
        <time>2017-01-21T12:37:39.000Z</time>
      </trkpt>
      <trkpt lat="45.9875" lon="6.56958">
        <ele>2240.49</ele>
        <time>2017-01-21T12:37:57.000Z</time>
      </trkpt>
      <trkpt lat="45.98743" lon="6.56956">
        <ele>2242.41</ele>
        <time>2017-01-21T12:38:09.000Z</time>
      </trkpt>
      <trkpt lat="45.98738" lon="6.56955">
        <ele>2244.82</ele>
        <time>2017-01-21T12:38:24.000Z</time>
      </trkpt>
      <trkpt lat="45.98737" lon="6.56955">
        <ele>2245.3</ele>
        <time>2017-01-21T12:38:45.000Z</time>
      </trkpt>
      <trkpt lat="45.98731" lon="6.56953">
        <ele>2246.74</ele>
        <time>2017-01-21T12:38:58.000Z</time>
      </trkpt>
      <trkpt lat="45.98726" lon="6.56952">
        <ele>2248.66</ele>
        <time>2017-01-21T12:39:13.000Z</time>
      </trkpt>
      <trkpt lat="45.98722" lon="6.5695">
        <ele>2250.1</ele>
        <time>2017-01-21T12:39:29.000Z</time>
      </trkpt>
      <trkpt lat="45.98718" lon="6.56948">
        <ele>2251.54</ele>
        <time>2017-01-21T12:39:49.000Z</time>
      </trkpt>
      <trkpt lat="45.98712" lon="6.56946">
        <ele>2252.99</ele>
        <time>2017-01-21T12:40:02.000Z</time>
      </trkpt>
      <trkpt lat="45.98705" lon="6.56944">
        <ele>2255.39</ele>
        <time>2017-01-21T12:40:15.000Z</time>
      </trkpt>
      <trkpt lat="45.98701" lon="6.56943">
        <ele>2256.83</ele>
        <time>2017-01-21T12:40:28.000Z</time>
      </trkpt>
      <trkpt lat="45.98702" lon="6.56944">
        <ele>2256.83</ele>
        <time>2017-01-21T12:40:51.000Z</time>
      </trkpt>
      <trkpt lat="45.98697" lon="6.56944">
        <ele>2258.27</ele>
        <time>2017-01-21T12:41:06.000Z</time>
      </trkpt>
      <trkpt lat="45.98689" lon="6.56941">
        <ele>2260.68</ele>
        <time>2017-01-21T12:41:23.000Z</time>
      </trkpt>
      <trkpt lat="45.98683" lon="6.56939">
        <ele>2263.08</ele>
        <time>2017-01-21T12:41:37.000Z</time>
      </trkpt>
      <trkpt lat="45.98678" lon="6.56939">
        <ele>2264.52</ele>
        <time>2017-01-21T12:41:53.000Z</time>
      </trkpt>
      <trkpt lat="45.98674" lon="6.56938">
        <ele>2265.96</ele>
        <time>2017-01-21T12:42:21.000Z</time>
      </trkpt>
      <trkpt lat="45.98669" lon="6.56936">
        <ele>2267.41</ele>
        <time>2017-01-21T12:42:34.000Z</time>
      </trkpt>
      <trkpt lat="45.98662" lon="6.56937">
        <ele>2269.33</ele>
        <time>2017-01-21T12:42:47.000Z</time>
      </trkpt>
      <trkpt lat="45.98656" lon="6.56937">
        <ele>2271.73</ele>
        <time>2017-01-21T12:43:00.000Z</time>
      </trkpt>
      <trkpt lat="45.98649" lon="6.56937">
        <ele>2273.17</ele>
        <time>2017-01-21T12:43:13.000Z</time>
      </trkpt>
      <trkpt lat="45.98649" lon="6.56938">
        <ele>2273.66</ele>
        <time>2017-01-21T12:43:29.000Z</time>
      </trkpt>
      <trkpt lat="45.98641" lon="6.5694">
        <ele>2275.1</ele>
        <time>2017-01-21T12:43:44.000Z</time>
      </trkpt>
      <trkpt lat="45.98636" lon="6.56942">
        <ele>2277.02</ele>
        <time>2017-01-21T12:43:56.000Z</time>
      </trkpt>
      <trkpt lat="45.98632" lon="6.56942">
        <ele>2277.98</ele>
        <time>2017-01-21T12:44:08.000Z</time>
      </trkpt>
      <trkpt lat="45.98628" lon="6.5694">
        <ele>2278.94</ele>
        <time>2017-01-21T12:44:25.000Z</time>
      </trkpt>
      <trkpt lat="45.98623" lon="6.56937">
        <ele>2280.87</ele>
        <time>2017-01-21T12:44:39.000Z</time>
      </trkpt>
      <trkpt lat="45.98621" lon="6.56936">
        <ele>2280.87</ele>
        <time>2017-01-21T12:44:59.000Z</time>
      </trkpt>
      <trkpt lat="45.98612" lon="6.56933">
        <ele>2281.83</ele>
        <time>2017-01-21T12:45:13.000Z</time>
      </trkpt>
      <trkpt lat="45.98607" lon="6.56927">
        <ele>2283.75</ele>
        <time>2017-01-21T12:45:25.000Z</time>
      </trkpt>
      <trkpt lat="45.98605" lon="6.5692">
        <ele>2284.23</ele>
        <time>2017-01-21T12:45:42.000Z</time>
      </trkpt>
      <trkpt lat="45.98601" lon="6.56913">
        <ele>2285.19</ele>
        <time>2017-01-21T12:45:55.000Z</time>
      </trkpt>
      <trkpt lat="45.98594" lon="6.56906">
        <ele>2286.15</ele>
        <time>2017-01-21T12:46:08.000Z</time>
      </trkpt>
      <trkpt lat="45.98585" lon="6.56897">
        <ele>2287.59</ele>
        <time>2017-01-21T12:46:21.000Z</time>
      </trkpt>
      <trkpt lat="45.98577" lon="6.56887">
        <ele>2288.56</ele>
        <time>2017-01-21T12:46:36.000Z</time>
      </trkpt>
      <trkpt lat="45.98571" lon="6.56877">
        <ele>2289.52</ele>
        <time>2017-01-21T12:46:49.000Z</time>
      </trkpt>
      <trkpt lat="45.98564" lon="6.56867">
        <ele>2290.96</ele>
        <time>2017-01-21T12:47:02.000Z</time>
      </trkpt>
      <trkpt lat="45.98558" lon="6.56862">
        <ele>2290.96</ele>
        <time>2017-01-21T12:47:10.000Z</time>
      </trkpt>
      <trkpt lat="45.98554" lon="6.56859">
        <ele>2291.44</ele>
        <time>2017-01-21T12:47:26.000Z</time>
      </trkpt>
      <trkpt lat="45.98553" lon="6.56857">
        <ele>2291.44</ele>
        <time>2017-01-21T12:47:41.000Z</time>
      </trkpt>
      <trkpt lat="45.98553" lon="6.56858">
        <ele>2290</ele>
        <time>2017-01-21T12:47:45.000Z</time>
      </trkpt>
      <trkpt lat="45.98553" lon="6.56858">
        <ele>2290</ele>
        <time>2017-01-21T12:48:12.000Z</time>
      </trkpt>
      <trkpt lat="45.98553" lon="6.56858">
        <ele>2290</ele>
        <time>2017-01-21T12:48:55.000Z</time>
      </trkpt>
      <trkpt lat="45.98553" lon="6.56858">
        <ele>2290</ele>
        <time>2017-01-21T12:49:21.000Z</time>
      </trkpt>
      <trkpt lat="45.98553" lon="6.56858">
        <ele>2290</ele>
        <time>2017-01-21T12:49:43.000Z</time>
      </trkpt>
      <trkpt lat="45.98553" lon="6.56858">
        <ele>2290</ele>
        <time>2017-01-21T12:50:07.000Z</time>
      </trkpt>
      <trkpt lat="45.98553" lon="6.56858">
        <ele>2290</ele>
        <time>2017-01-21T12:50:35.000Z</time>
      </trkpt>
      <trkpt lat="45.98553" lon="6.56858">
        <ele>2290</ele>
        <time>2017-01-21T12:51:03.000Z</time>
      </trkpt>
      <trkpt lat="45.98553" lon="6.56858">
        <ele>2290</ele>
        <time>2017-01-21T12:51:26.000Z</time>
      </trkpt>
      <trkpt lat="45.98553" lon="6.56859">
        <ele>2289.52</ele>
        <time>2017-01-21T12:51:56.000Z</time>
      </trkpt>
      <trkpt lat="45.98553" lon="6.56858">
        <ele>2289.52</ele>
        <time>2017-01-21T12:52:28.000Z</time>
      </trkpt>
      <trkpt lat="45.98553" lon="6.56858">
        <ele>2289.52</ele>
        <time>2017-01-21T12:52:56.000Z</time>
      </trkpt>
      <trkpt lat="45.98556" lon="6.56858">
        <ele>2290.48</ele>
        <time>2017-01-21T13:56:24.000Z</time>
      </trkpt>
      <trkpt lat="45.98556" lon="6.56858">
        <ele>2290.96</ele>
        <time>2017-01-21T13:57:08.000Z</time>
      </trkpt>
      <trkpt lat="45.98556" lon="6.56858">
        <ele>2290.96</ele>
        <time>2017-01-21T13:57:37.000Z</time>
      </trkpt>
      <trkpt lat="45.98555" lon="6.56859">
        <ele>2290.96</ele>
        <time>2017-01-21T13:58:21.000Z</time>
      </trkpt>
      <trkpt lat="45.98555" lon="6.56858">
        <ele>2290.96</ele>
        <time>2017-01-21T13:58:54.000Z</time>
      </trkpt>
      <trkpt lat="45.98555" lon="6.56858">
        <ele>2290.96</ele>
        <time>2017-01-21T13:59:33.000Z</time>
      </trkpt>
      <trkpt lat="45.98555" lon="6.56858">
        <ele>2290.96</ele>
        <time>2017-01-21T14:00:08.000Z</time>
      </trkpt>
      <trkpt lat="45.98555" lon="6.56858">
        <ele>2290.96</ele>
        <time>2017-01-21T14:00:18.000Z</time>
      </trkpt>
      <trkpt lat="45.98554" lon="6.56858">
        <ele>2293.84</ele>
        <time>2017-01-21T14:00:20.000Z</time>
      </trkpt>
      <trkpt lat="45.98554" lon="6.56858">
        <ele>2290.48</ele>
        <time>2017-01-21T14:00:21.000Z</time>
      </trkpt>
      <trkpt lat="45.98555" lon="6.56858">
        <ele>2294.32</ele>
        <time>2017-01-21T14:00:22.000Z</time>
      </trkpt>
      <trkpt lat="45.98555" lon="6.56858">
        <ele>2290.48</ele>
        <time>2017-01-21T14:00:23.000Z</time>
      </trkpt>
      <trkpt lat="45.98555" lon="6.56859">
        <ele>2293.84</ele>
        <time>2017-01-21T14:00:24.000Z</time>
      </trkpt>
      <trkpt lat="45.98555" lon="6.56858">
        <ele>2291.92</ele>
        <time>2017-01-21T14:00:43.000Z</time>
      </trkpt>
      <trkpt lat="45.98555" lon="6.56862">
        <ele>2291.92</ele>
        <time>2017-01-21T14:01:04.000Z</time>
      </trkpt>
      <trkpt lat="45.98555" lon="6.56869">
        <ele>2291.92</ele>
        <time>2017-01-21T14:01:10.000Z</time>
      </trkpt>
      <trkpt lat="45.98554" lon="6.56879">
        <ele>2291.92</ele>
        <time>2017-01-21T14:01:15.000Z</time>
      </trkpt>
      <trkpt lat="45.98547" lon="6.56913">
        <ele>2288.56</ele>
        <time>2017-01-21T14:01:24.000Z</time>
      </trkpt>
      <trkpt lat="45.98547" lon="6.56938">
        <ele>2285.19</ele>
        <time>2017-01-21T14:01:30.000Z</time>
      </trkpt>
      <trkpt lat="45.98542" lon="6.56941">
        <ele>2283.75</ele>
        <time>2017-01-21T14:01:36.000Z</time>
      </trkpt>
      <trkpt lat="45.98534" lon="6.56949">
        <ele>2282.31</ele>
        <time>2017-01-21T14:01:53.000Z</time>
      </trkpt>
      <trkpt lat="45.98534" lon="6.56977">
        <ele>2279.9</ele>
        <time>2017-01-21T14:02:02.000Z</time>
      </trkpt>
      <trkpt lat="45.9853" lon="6.56991">
        <ele>2278.46</ele>
        <time>2017-01-21T14:02:05.000Z</time>
      </trkpt>
      <trkpt lat="45.98528" lon="6.57002">
        <ele>2277.02</ele>
        <time>2017-01-21T14:02:07.000Z</time>
      </trkpt>
      <trkpt lat="45.98523" lon="6.57045">
        <ele>2274.62</ele>
        <time>2017-01-21T14:02:18.000Z</time>
      </trkpt>
      <trkpt lat="45.98523" lon="6.57054">
        <ele>2274.62</ele>
        <time>2017-01-21T14:02:30.000Z</time>
      </trkpt>
      <trkpt lat="45.98525" lon="6.57058">
        <ele>2274.62</ele>
        <time>2017-01-21T14:02:42.000Z</time>
      </trkpt>
      <trkpt lat="45.98525" lon="6.57057">
        <ele>2274.62</ele>
        <time>2017-01-21T14:02:59.000Z</time>
      </trkpt>
      <trkpt lat="45.98525" lon="6.57058">
        <ele>2274.62</ele>
        <time>2017-01-21T14:03:14.000Z</time>
      </trkpt>
      <trkpt lat="45.98524" lon="6.57057">
        <ele>2273.66</ele>
        <time>2017-01-21T14:03:31.000Z</time>
      </trkpt>
      <trkpt lat="45.98524" lon="6.57057">
        <ele>2273.66</ele>
        <time>2017-01-21T14:03:53.000Z</time>
      </trkpt>
      <trkpt lat="45.98524" lon="6.57057">
        <ele>2273.17</ele>
        <time>2017-01-21T14:04:08.000Z</time>
      </trkpt>
      <trkpt lat="45.98526" lon="6.57059">
        <ele>2273.17</ele>
        <time>2017-01-21T14:04:36.000Z</time>
      </trkpt>
      <trkpt lat="45.98527" lon="6.57059">
        <ele>2273.17</ele>
        <time>2017-01-21T14:05:09.000Z</time>
      </trkpt>
      <trkpt lat="45.98526" lon="6.57059">
        <ele>2273.17</ele>
        <time>2017-01-21T14:05:28.000Z</time>
      </trkpt>
      <trkpt lat="45.98527" lon="6.57058">
        <ele>2273.17</ele>
        <time>2017-01-21T14:05:49.000Z</time>
      </trkpt>
      <trkpt lat="45.98527" lon="6.57057">
        <ele>2273.17</ele>
        <time>2017-01-21T14:06:09.000Z</time>
      </trkpt>
      <trkpt lat="45.98527" lon="6.57056">
        <ele>2273.17</ele>
        <time>2017-01-21T14:06:26.000Z</time>
      </trkpt>
      <trkpt lat="45.98526" lon="6.57056">
        <ele>2273.17</ele>
        <time>2017-01-21T14:06:44.000Z</time>
      </trkpt>
      <trkpt lat="45.98526" lon="6.57057">
        <ele>2273.17</ele>
        <time>2017-01-21T14:07:03.000Z</time>
      </trkpt>
      <trkpt lat="45.98527" lon="6.57057">
        <ele>2273.17</ele>
        <time>2017-01-21T14:07:25.000Z</time>
      </trkpt>
      <trkpt lat="45.98527" lon="6.57058">
        <ele>2272.69</ele>
        <time>2017-01-21T14:07:45.000Z</time>
      </trkpt>
      <trkpt lat="45.98526" lon="6.57057">
        <ele>2272.69</ele>
        <time>2017-01-21T14:08:06.000Z</time>
      </trkpt>
      <trkpt lat="45.98526" lon="6.57057">
        <ele>2272.69</ele>
        <time>2017-01-21T14:08:23.000Z</time>
      </trkpt>
      <trkpt lat="45.98526" lon="6.57057">
        <ele>2272.69</ele>
        <time>2017-01-21T14:08:49.000Z</time>
      </trkpt>
      <trkpt lat="45.98526" lon="6.57056">
        <ele>2272.69</ele>
        <time>2017-01-21T14:09:10.000Z</time>
      </trkpt>
      <trkpt lat="45.98526" lon="6.57057">
        <ele>2272.69</ele>
        <time>2017-01-21T14:09:26.000Z</time>
      </trkpt>
      <trkpt lat="45.98526" lon="6.57057">
        <ele>2272.69</ele>
        <time>2017-01-21T14:09:41.000Z</time>
      </trkpt>
      <trkpt lat="45.98525" lon="6.57056">
        <ele>2272.69</ele>
        <time>2017-01-21T14:10:04.000Z</time>
      </trkpt>
      <trkpt lat="45.98526" lon="6.57057">
        <ele>2272.69</ele>
        <time>2017-01-21T14:10:38.000Z</time>
      </trkpt>
      <trkpt lat="45.98525" lon="6.57056">
        <ele>2272.69</ele>
        <time>2017-01-21T14:10:58.000Z</time>
      </trkpt>
      <trkpt lat="45.98525" lon="6.57056">
        <ele>2272.69</ele>
        <time>2017-01-21T14:11:25.000Z</time>
      </trkpt>
      <trkpt lat="45.98526" lon="6.57057">
        <ele>2272.69</ele>
        <time>2017-01-21T14:11:56.000Z</time>
      </trkpt>
      <trkpt lat="45.98525" lon="6.57056">
        <ele>2272.21</ele>
        <time>2017-01-21T14:12:21.000Z</time>
      </trkpt>
      <trkpt lat="45.98526" lon="6.57055">
        <ele>2272.21</ele>
        <time>2017-01-21T14:12:45.000Z</time>
      </trkpt>
      <trkpt lat="45.98526" lon="6.57054">
        <ele>2272.21</ele>
        <time>2017-01-21T14:12:50.000Z</time>
      </trkpt>
      <trkpt lat="45.98536" lon="6.57044">
        <ele>2271.73</ele>
        <time>2017-01-21T14:12:57.000Z</time>
      </trkpt>
      <trkpt lat="45.98542" lon="6.57035">
        <ele>2271.25</ele>
        <time>2017-01-21T14:13:03.000Z</time>
      </trkpt>
      <trkpt lat="45.98547" lon="6.57026">
        <ele>2271.25</ele>
        <time>2017-01-21T14:13:09.000Z</time>
      </trkpt>
      <trkpt lat="45.98555" lon="6.57012">
        <ele>2271.25</ele>
        <time>2017-01-21T14:13:20.000Z</time>
      </trkpt>
      <trkpt lat="45.98569" lon="6.57001">
        <ele>2270.77</ele>
        <time>2017-01-21T14:13:38.000Z</time>
      </trkpt>
      <trkpt lat="45.98596" lon="6.56989">
        <ele>2268.37</ele>
        <time>2017-01-21T14:13:53.000Z</time>
      </trkpt>
      <trkpt lat="45.98632" lon="6.56973">
        <ele>2265</ele>
        <time>2017-01-21T14:14:09.000Z</time>
      </trkpt>
      <trkpt lat="45.9866" lon="6.56958">
        <ele>2261.16</ele>
        <time>2017-01-21T14:14:18.000Z</time>
      </trkpt>
      <trkpt lat="45.98664" lon="6.56956">
        <ele>2260.68</ele>
        <time>2017-01-21T14:14:20.000Z</time>
      </trkpt>
      <trkpt lat="45.98681" lon="6.56949">
        <ele>2257.31</ele>
        <time>2017-01-21T14:14:29.000Z</time>
      </trkpt>
      <trkpt lat="45.98695" lon="6.56948">
        <ele>2255.87</ele>
        <time>2017-01-21T14:14:34.000Z</time>
      </trkpt>
      <trkpt lat="45.98697" lon="6.56949">
        <ele>2255.39</ele>
        <time>2017-01-21T14:14:42.000Z</time>
      </trkpt>
      <trkpt lat="45.98697" lon="6.56949">
        <ele>2255.39</ele>
        <time>2017-01-21T14:14:43.000Z</time>
      </trkpt>
      <trkpt lat="45.98707" lon="6.56942">
        <ele>2254.91</ele>
        <time>2017-01-21T14:14:52.000Z</time>
      </trkpt>
      <trkpt lat="45.98721" lon="6.56943">
        <ele>2250.58</ele>
        <time>2017-01-21T14:14:58.000Z</time>
      </trkpt>
      <trkpt lat="45.98729" lon="6.56949">
        <ele>2247.7</ele>
        <time>2017-01-21T14:15:01.000Z</time>
      </trkpt>
      <trkpt lat="45.98741" lon="6.56953">
        <ele>2243.85</ele>
        <time>2017-01-21T14:15:05.000Z</time>
      </trkpt>
      <trkpt lat="45.98756" lon="6.56956">
        <ele>2240.01</ele>
        <time>2017-01-21T14:15:09.000Z</time>
      </trkpt>
      <trkpt lat="45.98766" lon="6.56962">
        <ele>2236.16</ele>
        <time>2017-01-21T14:15:12.000Z</time>
      </trkpt>
      <trkpt lat="45.98779" lon="6.56966">
        <ele>2231.36</ele>
        <time>2017-01-21T14:15:16.000Z</time>
      </trkpt>
      <trkpt lat="45.9878" lon="6.56967">
        <ele>2231.36</ele>
        <time>2017-01-21T14:15:17.000Z</time>
      </trkpt>
      <trkpt lat="45.98787" lon="6.56969">
        <ele>2229.92</ele>
        <time>2017-01-21T14:15:19.000Z</time>
      </trkpt>
      <trkpt lat="45.98802" lon="6.56978">
        <ele>2227.03</ele>
        <time>2017-01-21T14:15:23.000Z</time>
      </trkpt>
      <trkpt lat="45.9882" lon="6.56989">
        <ele>2225.11</ele>
        <time>2017-01-21T14:15:27.000Z</time>
      </trkpt>
      <trkpt lat="45.9885" lon="6.57004">
        <ele>2222.71</ele>
        <time>2017-01-21T14:15:33.000Z</time>
      </trkpt>
      <trkpt lat="45.98871" lon="6.57004">
        <ele>2221.26</ele>
        <time>2017-01-21T14:15:37.000Z</time>
      </trkpt>
      <trkpt lat="45.98915" lon="6.56978">
        <ele>2217.42</ele>
        <time>2017-01-21T14:15:48.000Z</time>
      </trkpt>
      <trkpt lat="45.98925" lon="6.56975">
        <ele>2215.5</ele>
        <time>2017-01-21T14:16:00.000Z</time>
      </trkpt>
      <trkpt lat="45.98924" lon="6.56975">
        <ele>2215.5</ele>
        <time>2017-01-21T14:16:23.000Z</time>
      </trkpt>
      <trkpt lat="45.98924" lon="6.56974">
        <ele>2215.5</ele>
        <time>2017-01-21T14:16:45.000Z</time>
      </trkpt>
      <trkpt lat="45.98927" lon="6.56973">
        <ele>2215.5</ele>
        <time>2017-01-21T14:17:12.000Z</time>
      </trkpt>
      <trkpt lat="45.98943" lon="6.56972">
        <ele>2213.57</ele>
        <time>2017-01-21T14:17:25.000Z</time>
      </trkpt>
      <trkpt lat="45.98966" lon="6.56983">
        <ele>2210.21</ele>
        <time>2017-01-21T14:17:37.000Z</time>
      </trkpt>
      <trkpt lat="45.98986" lon="6.56996">
        <ele>2207.32</ele>
        <time>2017-01-21T14:17:46.000Z</time>
      </trkpt>
      <trkpt lat="45.98989" lon="6.56998">
        <ele>2207.32</ele>
        <time>2017-01-21T14:17:47.000Z</time>
      </trkpt>
      <trkpt lat="45.9901" lon="6.57011">
        <ele>2205.4</ele>
        <time>2017-01-21T14:17:59.000Z</time>
      </trkpt>
      <trkpt lat="45.99029" lon="6.5702">
        <ele>2203</ele>
        <time>2017-01-21T14:18:11.000Z</time>
      </trkpt>
      <trkpt lat="45.99033" lon="6.57014">
        <ele>2201.56</ele>
        <time>2017-01-21T14:18:15.000Z</time>
      </trkpt>
      <trkpt lat="45.9904" lon="6.5701">
        <ele>2198.19</ele>
        <time>2017-01-21T14:18:18.000Z</time>
      </trkpt>
      <trkpt lat="45.99049" lon="6.57015">
        <ele>2196.75</ele>
        <time>2017-01-21T14:18:22.000Z</time>
      </trkpt>
      <trkpt lat="45.99054" lon="6.57018">
        <ele>2195.31</ele>
        <time>2017-01-21T14:18:31.000Z</time>
      </trkpt>
      <trkpt lat="45.99055" lon="6.57018">
        <ele>2194.83</ele>
        <time>2017-01-21T14:18:32.000Z</time>
      </trkpt>
      <trkpt lat="45.9906" lon="6.57007">
        <ele>2191.94</ele>
        <time>2017-01-21T14:18:36.000Z</time>
      </trkpt>
      <trkpt lat="45.99062" lon="6.57008">
        <ele>2190.98</ele>
        <time>2017-01-21T14:18:37.000Z</time>
      </trkpt>
      <trkpt lat="45.99065" lon="6.57009">
        <ele>2190.02</ele>
        <time>2017-01-21T14:18:49.000Z</time>
      </trkpt>
      <trkpt lat="45.99065" lon="6.56996">
        <ele>2187.14</ele>
        <time>2017-01-21T14:18:54.000Z</time>
      </trkpt>
      <trkpt lat="45.99069" lon="6.56996">
        <ele>2185.69</ele>
        <time>2017-01-21T14:18:56.000Z</time>
      </trkpt>
      <trkpt lat="45.99071" lon="6.56997">
        <ele>2185.69</ele>
        <time>2017-01-21T14:18:57.000Z</time>
      </trkpt>
      <trkpt lat="45.99076" lon="6.57">
        <ele>2184.25</ele>
        <time>2017-01-21T14:19:00.000Z</time>
      </trkpt>
      <trkpt lat="45.99094" lon="6.57012">
        <ele>2181.37</ele>
        <time>2017-01-21T14:19:09.000Z</time>
      </trkpt>
      <trkpt lat="45.99105" lon="6.57023">
        <ele>2179.45</ele>
        <time>2017-01-21T14:19:15.000Z</time>
      </trkpt>
      <trkpt lat="45.99117" lon="6.57033">
        <ele>2176.08</ele>
        <time>2017-01-21T14:19:26.000Z</time>
      </trkpt>
      <trkpt lat="45.99117" lon="6.57032">
        <ele>2176.08</ele>
        <time>2017-01-21T14:19:34.000Z</time>
      </trkpt>
      <trkpt lat="45.99123" lon="6.57024">
        <ele>2172.72</ele>
        <time>2017-01-21T14:19:38.000Z</time>
      </trkpt>
      <trkpt lat="45.99127" lon="6.57025">
        <ele>2170.31</ele>
        <time>2017-01-21T14:19:41.000Z</time>
      </trkpt>
      <trkpt lat="45.99131" lon="6.5702">
        <ele>2167.43</ele>
        <time>2017-01-21T14:19:45.000Z</time>
      </trkpt>
      <trkpt lat="45.9913" lon="6.57019">
        <ele>2167.43</ele>
        <time>2017-01-21T14:19:46.000Z</time>
      </trkpt>
      <trkpt lat="45.99129" lon="6.5702">
        <ele>2167.43</ele>
        <time>2017-01-21T14:19:55.000Z</time>
      </trkpt>
      <trkpt lat="45.99135" lon="6.57018">
        <ele>2165.51</ele>
        <time>2017-01-21T14:19:58.000Z</time>
      </trkpt>
      <trkpt lat="45.99138" lon="6.57009">
        <ele>2161.66</ele>
        <time>2017-01-21T14:20:02.000Z</time>
      </trkpt>
      <trkpt lat="45.99143" lon="6.57011">
        <ele>2159.26</ele>
        <time>2017-01-21T14:20:05.000Z</time>
      </trkpt>
      <trkpt lat="45.99142" lon="6.5701">
        <ele>2158.78</ele>
        <time>2017-01-21T14:20:11.000Z</time>
      </trkpt>
      <trkpt lat="45.99144" lon="6.57003">
        <ele>2155.41</ele>
        <time>2017-01-21T14:20:15.000Z</time>
      </trkpt>
      <trkpt lat="45.99141" lon="6.56994">
        <ele>2154.45</ele>
        <time>2017-01-21T14:20:25.000Z</time>
      </trkpt>
      <trkpt lat="45.99147" lon="6.56991">
        <ele>2151.57</ele>
        <time>2017-01-21T14:20:30.000Z</time>
      </trkpt>
      <trkpt lat="45.99151" lon="6.56983">
        <ele>2147.72</ele>
        <time>2017-01-21T14:20:34.000Z</time>
      </trkpt>
      <trkpt lat="45.9915" lon="6.56981">
        <ele>2147.72</ele>
        <time>2017-01-21T14:20:35.000Z</time>
      </trkpt>
      <trkpt lat="45.99156" lon="6.56976">
        <ele>2144.84</ele>
        <time>2017-01-21T14:20:38.000Z</time>
      </trkpt>
      <trkpt lat="45.99155" lon="6.56967">
        <ele>2141.47</ele>
        <time>2017-01-21T14:20:41.000Z</time>
      </trkpt>
      <trkpt lat="45.9915" lon="6.56964">
        <ele>2140.51</ele>
        <time>2017-01-21T14:20:51.000Z</time>
      </trkpt>
      <trkpt lat="45.99151" lon="6.56963">
        <ele>2140.51</ele>
        <time>2017-01-21T14:21:05.000Z</time>
      </trkpt>
      <trkpt lat="45.99156" lon="6.56953">
        <ele>2135.71</ele>
        <time>2017-01-21T14:21:10.000Z</time>
      </trkpt>
      <trkpt lat="45.9916" lon="6.56948">
        <ele>2131.86</ele>
        <time>2017-01-21T14:21:14.000Z</time>
      </trkpt>
      <trkpt lat="45.99161" lon="6.56948">
        <ele>2131.86</ele>
        <time>2017-01-21T14:21:15.000Z</time>
      </trkpt>
      <trkpt lat="45.99161" lon="6.56948">
        <ele>2131.38</ele>
        <time>2017-01-21T14:21:18.000Z</time>
      </trkpt>
      <trkpt lat="45.9916" lon="6.56937">
        <ele>2128.98</ele>
        <time>2017-01-21T14:21:22.000Z</time>
      </trkpt>
      <trkpt lat="45.99155" lon="6.5693">
        <ele>2126.57</ele>
        <time>2017-01-21T14:21:34.000Z</time>
      </trkpt>
      <trkpt lat="45.99155" lon="6.56929">
        <ele>2126.57</ele>
        <time>2017-01-21T14:21:39.000Z</time>
      </trkpt>
      <trkpt lat="45.99158" lon="6.56926">
        <ele>2125.13</ele>
        <time>2017-01-21T14:21:42.000Z</time>
      </trkpt>
      <trkpt lat="45.99159" lon="6.56926">
        <ele>2124.17</ele>
        <time>2017-01-21T14:21:43.000Z</time>
      </trkpt>
      <trkpt lat="45.99159" lon="6.56919">
        <ele>2120.81</ele>
        <time>2017-01-21T14:21:47.000Z</time>
      </trkpt>
      <trkpt lat="45.99161" lon="6.56921">
        <ele>2120.32</ele>
        <time>2017-01-21T14:21:49.000Z</time>
      </trkpt>
      <trkpt lat="45.99161" lon="6.56919">
        <ele>2120.32</ele>
        <time>2017-01-21T14:21:58.000Z</time>
      </trkpt>
      <trkpt lat="45.99168" lon="6.56914">
        <ele>2117.44</ele>
        <time>2017-01-21T14:22:03.000Z</time>
      </trkpt>
      <trkpt lat="45.99163" lon="6.56902">
        <ele>2114.56</ele>
        <time>2017-01-21T14:22:07.000Z</time>
      </trkpt>
      <trkpt lat="45.99154" lon="6.56883">
        <ele>2110.23</ele>
        <time>2017-01-21T14:22:12.000Z</time>
      </trkpt>
      <trkpt lat="45.9915" lon="6.56876">
        <ele>2109.27</ele>
        <time>2017-01-21T14:22:14.000Z</time>
      </trkpt>
      <trkpt lat="45.99147" lon="6.5687">
        <ele>2108.79</ele>
        <time>2017-01-21T14:22:30.000Z</time>
      </trkpt>
      <trkpt lat="45.99154" lon="6.56863">
        <ele>2104.46</ele>
        <time>2017-01-21T14:22:35.000Z</time>
      </trkpt>
      <trkpt lat="45.99154" lon="6.56854">
        <ele>2101.58</ele>
        <time>2017-01-21T14:22:37.000Z</time>
      </trkpt>
      <trkpt lat="45.99155" lon="6.56844">
        <ele>2097.25</ele>
        <time>2017-01-21T14:22:40.000Z</time>
      </trkpt>
      <trkpt lat="45.9916" lon="6.56835">
        <ele>2092.93</ele>
        <time>2017-01-21T14:22:43.000Z</time>
      </trkpt>
      <trkpt lat="45.99164" lon="6.56831">
        <ele>2089.08</ele>
        <time>2017-01-21T14:22:45.000Z</time>
      </trkpt>
      <trkpt lat="45.99167" lon="6.56821">
        <ele>2084.76</ele>
        <time>2017-01-21T14:22:47.000Z</time>
      </trkpt>
      <trkpt lat="45.99168" lon="6.56805">
        <ele>2080.43</ele>
        <time>2017-01-21T14:22:51.000Z</time>
      </trkpt>
      <trkpt lat="45.99172" lon="6.56807">
        <ele>2077.07</ele>
        <time>2017-01-21T14:22:54.000Z</time>
      </trkpt>
      <trkpt lat="45.9917" lon="6.56806">
        <ele>2077.55</ele>
        <time>2017-01-21T14:23:01.000Z</time>
      </trkpt>
      <trkpt lat="45.99173" lon="6.56797">
        <ele>2073.7</ele>
        <time>2017-01-21T14:23:05.000Z</time>
      </trkpt>
      <trkpt lat="45.99177" lon="6.56785">
        <ele>2068.41</ele>
        <time>2017-01-21T14:23:10.000Z</time>
      </trkpt>
      <trkpt lat="45.99182" lon="6.56777">
        <ele>2064.09</ele>
        <time>2017-01-21T14:23:12.000Z</time>
      </trkpt>
      <trkpt lat="45.99179" lon="6.56766">
        <ele>2062.17</ele>
        <time>2017-01-21T14:23:14.000Z</time>
      </trkpt>
      <trkpt lat="45.99177" lon="6.5675">
        <ele>2059.76</ele>
        <time>2017-01-21T14:23:17.000Z</time>
      </trkpt>
      <trkpt lat="45.99171" lon="6.56739">
        <ele>2056.88</ele>
        <time>2017-01-21T14:23:26.000Z</time>
      </trkpt>
      <trkpt lat="45.99171" lon="6.56739">
        <ele>2056.4</ele>
        <time>2017-01-21T14:23:30.000Z</time>
      </trkpt>
      <trkpt lat="45.99178" lon="6.56736">
        <ele>2054.47</ele>
        <time>2017-01-21T14:23:33.000Z</time>
      </trkpt>
      <trkpt lat="45.99184" lon="6.56724">
        <ele>2049.67</ele>
        <time>2017-01-21T14:23:36.000Z</time>
      </trkpt>
      <trkpt lat="45.99184" lon="6.5671">
        <ele>2046.3</ele>
        <time>2017-01-21T14:23:38.000Z</time>
      </trkpt>
      <trkpt lat="45.99178" lon="6.56679">
        <ele>2041.5</ele>
        <time>2017-01-21T14:23:43.000Z</time>
      </trkpt>
      <trkpt lat="45.99175" lon="6.5667">
        <ele>2040.54</ele>
        <time>2017-01-21T14:23:45.000Z</time>
      </trkpt>
      <trkpt lat="45.99173" lon="6.56665">
        <ele>2039.57</ele>
        <time>2017-01-21T14:23:47.000Z</time>
      </trkpt>
      <trkpt lat="45.9918" lon="6.56655">
        <ele>2036.21</ele>
        <time>2017-01-21T14:23:52.000Z</time>
      </trkpt>
      <trkpt lat="45.99184" lon="6.56658">
        <ele>2034.77</ele>
        <time>2017-01-21T14:23:54.000Z</time>
      </trkpt>
      <trkpt lat="45.99185" lon="6.56657">
        <ele>2034.77</ele>
        <time>2017-01-21T14:24:08.000Z</time>
      </trkpt>
      <trkpt lat="45.99191" lon="6.56649">
        <ele>2031.88</ele>
        <time>2017-01-21T14:24:12.000Z</time>
      </trkpt>
      <trkpt lat="45.99197" lon="6.56644">
        <ele>2029</ele>
        <time>2017-01-21T14:24:14.000Z</time>
      </trkpt>
      <trkpt lat="45.99207" lon="6.5663">
        <ele>2021.31</ele>
        <time>2017-01-21T14:24:18.000Z</time>
      </trkpt>
      <trkpt lat="45.99212" lon="6.56622">
        <ele>2016.98</ele>
        <time>2017-01-21T14:24:20.000Z</time>
      </trkpt>
      <trkpt lat="45.99217" lon="6.56618">
        <ele>2013.62</ele>
        <time>2017-01-21T14:24:22.000Z</time>
      </trkpt>
      <trkpt lat="45.99216" lon="6.56611">
        <ele>2010.73</ele>
        <time>2017-01-21T14:24:24.000Z</time>
      </trkpt>
      <trkpt lat="45.99217" lon="6.56603">
        <ele>2005.93</ele>
        <time>2017-01-21T14:24:27.000Z</time>
      </trkpt>
      <trkpt lat="45.99226" lon="6.56602">
        <ele>2002.08</ele>
        <time>2017-01-21T14:24:30.000Z</time>
      </trkpt>
      <trkpt lat="45.99228" lon="6.56589">
        <ele>1997.76</ele>
        <time>2017-01-21T14:24:32.000Z</time>
      </trkpt>
      <trkpt lat="45.99224" lon="6.56583">
        <ele>1997.28</ele>
        <time>2017-01-21T14:24:34.000Z</time>
      </trkpt>
      <trkpt lat="45.99222" lon="6.56581">
        <ele>1997.28</ele>
        <time>2017-01-21T14:24:46.000Z</time>
      </trkpt>
      <trkpt lat="45.99222" lon="6.5658">
        <ele>1997.28</ele>
        <time>2017-01-21T14:24:47.000Z</time>
      </trkpt>
      <trkpt lat="45.99234" lon="6.56569">
        <ele>1993.43</ele>
        <time>2017-01-21T14:24:52.000Z</time>
      </trkpt>
      <trkpt lat="45.99245" lon="6.56559">
        <ele>1989.59</ele>
        <time>2017-01-21T14:24:55.000Z</time>
      </trkpt>
      <trkpt lat="45.99256" lon="6.56547">
        <ele>1986.22</ele>
        <time>2017-01-21T14:24:58.000Z</time>
      </trkpt>
      <trkpt lat="45.9926" lon="6.56535">
        <ele>1982.86</ele>
        <time>2017-01-21T14:25:01.000Z</time>
      </trkpt>
      <trkpt lat="45.99257" lon="6.56534">
        <ele>1982.86</ele>
        <time>2017-01-21T14:25:09.000Z</time>
      </trkpt>
      <trkpt lat="45.99257" lon="6.56534">
        <ele>1982.38</ele>
        <time>2017-01-21T14:25:31.000Z</time>
      </trkpt>
      <trkpt lat="45.99256" lon="6.56536">
        <ele>1982.38</ele>
        <time>2017-01-21T14:25:57.000Z</time>
      </trkpt>
      <trkpt lat="45.99257" lon="6.56535">
        <ele>1982.38</ele>
        <time>2017-01-21T14:26:23.000Z</time>
      </trkpt>
      <trkpt lat="45.99248" lon="6.56517">
        <ele>1979.49</ele>
        <time>2017-01-21T14:26:29.000Z</time>
      </trkpt>
      <trkpt lat="45.99242" lon="6.56494">
        <ele>1974.69</ele>
        <time>2017-01-21T14:26:33.000Z</time>
      </trkpt>
      <trkpt lat="45.99242" lon="6.56488">
        <ele>1973.24</ele>
        <time>2017-01-21T14:26:34.000Z</time>
      </trkpt>
      <trkpt lat="45.99244" lon="6.56465">
        <ele>1966.51</ele>
        <time>2017-01-21T14:26:38.000Z</time>
      </trkpt>
      <trkpt lat="45.99242" lon="6.56454">
        <ele>1963.63</ele>
        <time>2017-01-21T14:26:40.000Z</time>
      </trkpt>
      <trkpt lat="45.99235" lon="6.56442">
        <ele>1959.3</ele>
        <time>2017-01-21T14:26:43.000Z</time>
      </trkpt>
      <trkpt lat="45.99237" lon="6.56438">
        <ele>1958.34</ele>
        <time>2017-01-21T14:26:45.000Z</time>
      </trkpt>
      <trkpt lat="45.99239" lon="6.56435">
        <ele>1957.86</ele>
        <time>2017-01-21T14:26:47.000Z</time>
      </trkpt>
      <trkpt lat="45.99237" lon="6.56428">
        <ele>1955.46</ele>
        <time>2017-01-21T14:26:49.000Z</time>
      </trkpt>
      <trkpt lat="45.9924" lon="6.5641">
        <ele>1949.69</ele>
        <time>2017-01-21T14:26:52.000Z</time>
      </trkpt>
      <trkpt lat="45.99241" lon="6.56401">
        <ele>1946.33</ele>
        <time>2017-01-21T14:26:54.000Z</time>
      </trkpt>
      <trkpt lat="45.99239" lon="6.56391">
        <ele>1942.96</ele>
        <time>2017-01-21T14:26:56.000Z</time>
      </trkpt>
      <trkpt lat="45.9924" lon="6.56382">
        <ele>1939.6</ele>
        <time>2017-01-21T14:26:58.000Z</time>
      </trkpt>
      <trkpt lat="45.99238" lon="6.56381">
        <ele>1939.6</ele>
        <time>2017-01-21T14:26:59.000Z</time>
      </trkpt>
      <trkpt lat="45.99236" lon="6.56383">
        <ele>1938.64</ele>
        <time>2017-01-21T14:27:08.000Z</time>
      </trkpt>
      <trkpt lat="45.99237" lon="6.56384">
        <ele>1938.64</ele>
        <time>2017-01-21T14:27:28.000Z</time>
      </trkpt>
      <trkpt lat="45.99236" lon="6.56371">
        <ele>1935.27</ele>
        <time>2017-01-21T14:27:32.000Z</time>
      </trkpt>
      <trkpt lat="45.99237" lon="6.56344">
        <ele>1928.06</ele>
        <time>2017-01-21T14:27:37.000Z</time>
      </trkpt>
      <trkpt lat="45.99242" lon="6.56335">
        <ele>1924.7</ele>
        <time>2017-01-21T14:27:39.000Z</time>
      </trkpt>
      <trkpt lat="45.9924" lon="6.56322">
        <ele>1920.37</ele>
        <time>2017-01-21T14:27:42.000Z</time>
      </trkpt>
      <trkpt lat="45.9924" lon="6.56312">
        <ele>1917.49</ele>
        <time>2017-01-21T14:27:44.000Z</time>
      </trkpt>
      <trkpt lat="45.99234" lon="6.5631">
        <ele>1914.6</ele>
        <time>2017-01-21T14:27:46.000Z</time>
      </trkpt>
      <trkpt lat="45.99229" lon="6.56312">
        <ele>1913.64</ele>
        <time>2017-01-21T14:27:58.000Z</time>
      </trkpt>
      <trkpt lat="45.99228" lon="6.563">
        <ele>1909.32</ele>
        <time>2017-01-21T14:28:02.000Z</time>
      </trkpt>
      <trkpt lat="45.99227" lon="6.56287">
        <ele>1905.95</ele>
        <time>2017-01-21T14:28:05.000Z</time>
      </trkpt>
      <trkpt lat="45.99218" lon="6.56284">
        <ele>1902.59</ele>
        <time>2017-01-21T14:28:07.000Z</time>
      </trkpt>
      <trkpt lat="45.99216" lon="6.56273">
        <ele>1898.74</ele>
        <time>2017-01-21T14:28:09.000Z</time>
      </trkpt>
      <trkpt lat="45.99212" lon="6.56247">
        <ele>1891.53</ele>
        <time>2017-01-21T14:28:14.000Z</time>
      </trkpt>
      <trkpt lat="45.99215" lon="6.56234">
        <ele>1888.65</ele>
        <time>2017-01-21T14:28:16.000Z</time>
      </trkpt>
      <trkpt lat="45.9921" lon="6.56225">
        <ele>1884.8</ele>
        <time>2017-01-21T14:28:18.000Z</time>
      </trkpt>
      <trkpt lat="45.99195" lon="6.56225">
        <ele>1882.4</ele>
        <time>2017-01-21T14:28:22.000Z</time>
      </trkpt>
      <trkpt lat="45.99195" lon="6.56226">
        <ele>1882.88</ele>
        <time>2017-01-21T14:28:31.000Z</time>
      </trkpt>
      <trkpt lat="45.99194" lon="6.56225">
        <ele>1882.88</ele>
        <time>2017-01-21T14:28:32.000Z</time>
      </trkpt>
      <trkpt lat="45.99194" lon="6.56211">
        <ele>1880</ele>
        <time>2017-01-21T14:28:36.000Z</time>
      </trkpt>
      <trkpt lat="45.99194" lon="6.56195">
        <ele>1874.71</ele>
        <time>2017-01-21T14:28:39.000Z</time>
      </trkpt>
      <trkpt lat="45.99196" lon="6.56194">
        <ele>1874.23</ele>
        <time>2017-01-21T14:28:41.000Z</time>
      </trkpt>
      <trkpt lat="45.99198" lon="6.56196">
        <ele>1874.23</ele>
        <time>2017-01-21T14:28:54.000Z</time>
      </trkpt>
      <trkpt lat="45.99189" lon="6.56188">
        <ele>1872.3</ele>
        <time>2017-01-21T14:28:59.000Z</time>
      </trkpt>
      <trkpt lat="45.99165" lon="6.56185">
        <ele>1867.98</ele>
        <time>2017-01-21T14:29:05.000Z</time>
      </trkpt>
      <trkpt lat="45.99157" lon="6.56185">
        <ele>1866.54</ele>
        <time>2017-01-21T14:29:07.000Z</time>
      </trkpt>
      <trkpt lat="45.99143" lon="6.56181">
        <ele>1865.09</ele>
        <time>2017-01-21T14:29:10.000Z</time>
      </trkpt>
      <trkpt lat="45.99133" lon="6.56177">
        <ele>1862.69</ele>
        <time>2017-01-21T14:29:13.000Z</time>
      </trkpt>
      <trkpt lat="45.99133" lon="6.56156">
        <ele>1858.85</ele>
        <time>2017-01-21T14:29:17.000Z</time>
      </trkpt>
      <trkpt lat="45.99133" lon="6.56142">
        <ele>1855.48</ele>
        <time>2017-01-21T14:29:19.000Z</time>
      </trkpt>
      <trkpt lat="45.99136" lon="6.5614">
        <ele>1854.04</ele>
        <time>2017-01-21T14:29:21.000Z</time>
      </trkpt>
      <trkpt lat="45.99138" lon="6.5614">
        <ele>1853.08</ele>
        <time>2017-01-21T14:29:23.000Z</time>
      </trkpt>
      <trkpt lat="45.99148" lon="6.56131">
        <ele>1851.16</ele>
        <time>2017-01-21T14:29:28.000Z</time>
      </trkpt>
      <trkpt lat="45.99161" lon="6.56124">
        <ele>1849.23</ele>
        <time>2017-01-21T14:29:35.000Z</time>
      </trkpt>
      <trkpt lat="45.99165" lon="6.56104">
        <ele>1844.91</ele>
        <time>2017-01-21T14:29:39.000Z</time>
      </trkpt>
      <trkpt lat="45.9917" lon="6.56079">
        <ele>1838.18</ele>
        <time>2017-01-21T14:29:42.000Z</time>
      </trkpt>
      <trkpt lat="45.99173" lon="6.56069">
        <ele>1835.29</ele>
        <time>2017-01-21T14:29:43.000Z</time>
      </trkpt>
      <trkpt lat="45.99172" lon="6.56054">
        <ele>1829.53</ele>
        <time>2017-01-21T14:29:45.000Z</time>
      </trkpt>
      <trkpt lat="45.99173" lon="6.56041">
        <ele>1825.68</ele>
        <time>2017-01-21T14:29:47.000Z</time>
      </trkpt>
      <trkpt lat="45.99176" lon="6.56029">
        <ele>1821.84</ele>
        <time>2017-01-21T14:29:49.000Z</time>
      </trkpt>
      <trkpt lat="45.99177" lon="6.56029">
        <ele>1820.87</ele>
        <time>2017-01-21T14:29:55.000Z</time>
      </trkpt>
      <trkpt lat="45.99178" lon="6.56028">
        <ele>1820.87</ele>
        <time>2017-01-21T14:30:00.000Z</time>
      </trkpt>
      <trkpt lat="45.99178" lon="6.56">
        <ele>1816.07</ele>
        <time>2017-01-21T14:30:05.000Z</time>
      </trkpt>
      <trkpt lat="45.99176" lon="6.55992">
        <ele>1813.66</ele>
        <time>2017-01-21T14:30:06.000Z</time>
      </trkpt>
      <trkpt lat="45.99162" lon="6.55967">
        <ele>1806.45</ele>
        <time>2017-01-21T14:30:10.000Z</time>
      </trkpt>
      <trkpt lat="45.99158" lon="6.55965">
        <ele>1806.45</ele>
        <time>2017-01-21T14:30:11.000Z</time>
      </trkpt>
      <trkpt lat="45.99155" lon="6.55952">
        <ele>1803.09</ele>
        <time>2017-01-21T14:30:14.000Z</time>
      </trkpt>
      <trkpt lat="45.99159" lon="6.55937">
        <ele>1799.73</ele>
        <time>2017-01-21T14:30:17.000Z</time>
      </trkpt>
      <trkpt lat="45.99157" lon="6.55931">
        <ele>1797.8</ele>
        <time>2017-01-21T14:30:18.000Z</time>
      </trkpt>
      <trkpt lat="45.99161" lon="6.55924">
        <ele>1795.4</ele>
        <time>2017-01-21T14:30:21.000Z</time>
      </trkpt>
      <trkpt lat="45.99163" lon="6.55926">
        <ele>1795.4</ele>
        <time>2017-01-21T14:30:39.000Z</time>
      </trkpt>
      <trkpt lat="45.99164" lon="6.55926">
        <ele>1795.4</ele>
        <time>2017-01-21T14:31:06.000Z</time>
      </trkpt>
      <trkpt lat="45.99161" lon="6.55905">
        <ele>1791.55</ele>
        <time>2017-01-21T14:31:11.000Z</time>
      </trkpt>
      <trkpt lat="45.99163" lon="6.55892">
        <ele>1788.67</ele>
        <time>2017-01-21T14:31:13.000Z</time>
      </trkpt>
      <trkpt lat="45.99161" lon="6.55877">
        <ele>1784.34</ele>
        <time>2017-01-21T14:31:15.000Z</time>
      </trkpt>
      <trkpt lat="45.99157" lon="6.55862">
        <ele>1780.5</ele>
        <time>2017-01-21T14:31:17.000Z</time>
      </trkpt>
      <trkpt lat="45.99149" lon="6.55854">
        <ele>1777.61</ele>
        <time>2017-01-21T14:31:19.000Z</time>
      </trkpt>
      <trkpt lat="45.99149" lon="6.55836">
        <ele>1773.29</ele>
        <time>2017-01-21T14:31:22.000Z</time>
      </trkpt>
      <trkpt lat="45.99149" lon="6.55829">
        <ele>1771.37</ele>
        <time>2017-01-21T14:31:23.000Z</time>
      </trkpt>
      <trkpt lat="45.99148" lon="6.55823">
        <ele>1769.44</ele>
        <time>2017-01-21T14:31:24.000Z</time>
      </trkpt>
      <trkpt lat="45.99148" lon="6.55817">
        <ele>1769.44</ele>
        <time>2017-01-21T14:31:25.000Z</time>
      </trkpt>
      <trkpt lat="45.99151" lon="6.55807">
        <ele>1768.48</ele>
        <time>2017-01-21T14:31:27.000Z</time>
      </trkpt>
      <trkpt lat="45.99155" lon="6.55799">
        <ele>1766.56</ele>
        <time>2017-01-21T14:31:29.000Z</time>
      </trkpt>
      <trkpt lat="45.99147" lon="6.55796">
        <ele>1765.6</ele>
        <time>2017-01-21T14:31:37.000Z</time>
      </trkpt>
      <trkpt lat="45.99144" lon="6.55798">
        <ele>1766.08</ele>
        <time>2017-01-21T14:32:02.000Z</time>
      </trkpt>
      <trkpt lat="45.99148" lon="6.55783">
        <ele>1762.71</ele>
        <time>2017-01-21T14:32:06.000Z</time>
      </trkpt>
      <trkpt lat="45.99152" lon="6.5578">
        <ele>1761.75</ele>
        <time>2017-01-21T14:32:08.000Z</time>
      </trkpt>
      <trkpt lat="45.99155" lon="6.55762">
        <ele>1756.95</ele>
        <time>2017-01-21T14:32:12.000Z</time>
      </trkpt>
      <trkpt lat="45.99157" lon="6.55758">
        <ele>1755.02</ele>
        <time>2017-01-21T14:32:13.000Z</time>
      </trkpt>
      <trkpt lat="45.99149" lon="6.55739">
        <ele>1749.74</ele>
        <time>2017-01-21T14:32:17.000Z</time>
      </trkpt>
      <trkpt lat="45.99152" lon="6.55732">
        <ele>1749.26</ele>
        <time>2017-01-21T14:32:18.000Z</time>
      </trkpt>
      <trkpt lat="45.99152" lon="6.55725">
        <ele>1747.81</ele>
        <time>2017-01-21T14:32:19.000Z</time>
      </trkpt>
      <trkpt lat="45.99152" lon="6.55704">
        <ele>1744.45</ele>
        <time>2017-01-21T14:32:21.000Z</time>
      </trkpt>
      <trkpt lat="45.99151" lon="6.55685">
        <ele>1741.08</ele>
        <time>2017-01-21T14:32:23.000Z</time>
      </trkpt>
      <trkpt lat="45.99149" lon="6.55659">
        <ele>1737.24</ele>
        <time>2017-01-21T14:32:26.000Z</time>
      </trkpt>
      <trkpt lat="45.99149" lon="6.5564">
        <ele>1733.88</ele>
        <time>2017-01-21T14:32:28.000Z</time>
      </trkpt>
      <trkpt lat="45.9915" lon="6.5562">
        <ele>1730.03</ele>
        <time>2017-01-21T14:32:30.000Z</time>
      </trkpt>
      <trkpt lat="45.99154" lon="6.55605">
        <ele>1726.18</ele>
        <time>2017-01-21T14:32:32.000Z</time>
      </trkpt>
      <trkpt lat="45.99154" lon="6.5559">
        <ele>1722.82</ele>
        <time>2017-01-21T14:32:36.000Z</time>
      </trkpt>
      <trkpt lat="45.99148" lon="6.55592">
        <ele>1723.78</ele>
        <time>2017-01-21T14:32:45.000Z</time>
      </trkpt>
      <trkpt lat="45.99145" lon="6.55588">
        <ele>1723.78</ele>
        <time>2017-01-21T14:33:09.000Z</time>
      </trkpt>
      <trkpt lat="45.99138" lon="6.55584">
        <ele>1722.82</ele>
        <time>2017-01-21T14:33:13.000Z</time>
      </trkpt>
      <trkpt lat="45.99135" lon="6.55584">
        <ele>1721.86</ele>
        <time>2017-01-21T14:33:15.000Z</time>
      </trkpt>
      <trkpt lat="45.99126" lon="6.55562">
        <ele>1717.05</ele>
        <time>2017-01-21T14:33:19.000Z</time>
      </trkpt>
      <trkpt lat="45.99124" lon="6.55535">
        <ele>1714.17</ele>
        <time>2017-01-21T14:33:22.000Z</time>
      </trkpt>
      <trkpt lat="45.99123" lon="6.55525">
        <ele>1713.21</ele>
        <time>2017-01-21T14:33:23.000Z</time>
      </trkpt>
      <trkpt lat="45.99126" lon="6.55502">
        <ele>1707.92</ele>
        <time>2017-01-21T14:33:26.000Z</time>
      </trkpt>
      <trkpt lat="45.99129" lon="6.55495">
        <ele>1705.52</ele>
        <time>2017-01-21T14:33:27.000Z</time>
      </trkpt>
      <trkpt lat="45.99139" lon="6.55488">
        <ele>1702.63</ele>
        <time>2017-01-21T14:33:30.000Z</time>
      </trkpt>
      <trkpt lat="45.99142" lon="6.55493">
        <ele>1702.63</ele>
        <time>2017-01-21T14:33:47.000Z</time>
      </trkpt>
      <trkpt lat="45.99142" lon="6.55499">
        <ele>1702.63</ele>
        <time>2017-01-21T14:34:13.000Z</time>
      </trkpt>
      <trkpt lat="45.99144" lon="6.55497">
        <ele>1702.63</ele>
        <time>2017-01-21T14:34:31.000Z</time>
      </trkpt>
      <trkpt lat="45.99144" lon="6.55498">
        <ele>1702.63</ele>
        <time>2017-01-21T14:35:00.000Z</time>
      </trkpt>
      <trkpt lat="45.99145" lon="6.55495">
        <ele>1702.15</ele>
        <time>2017-01-21T14:35:25.000Z</time>
      </trkpt>
      <trkpt lat="45.99142" lon="6.55485">
        <ele>1698.31</ele>
        <time>2017-01-21T14:35:29.000Z</time>
      </trkpt>
      <trkpt lat="45.99139" lon="6.55475">
        <ele>1694.94</ele>
        <time>2017-01-21T14:35:31.000Z</time>
      </trkpt>
      <trkpt lat="45.99139" lon="6.55461">
        <ele>1691.1</ele>
        <time>2017-01-21T14:35:34.000Z</time>
      </trkpt>
      <trkpt lat="45.99137" lon="6.55461">
        <ele>1689.65</ele>
        <time>2017-01-21T14:35:36.000Z</time>
      </trkpt>
      <trkpt lat="45.99136" lon="6.5546">
        <ele>1689.65</ele>
        <time>2017-01-21T14:35:37.000Z</time>
      </trkpt>
      <trkpt lat="45.99131" lon="6.55448">
        <ele>1685.81</ele>
        <time>2017-01-21T14:35:42.000Z</time>
      </trkpt>
      <trkpt lat="45.9913" lon="6.55447">
        <ele>1685.81</ele>
        <time>2017-01-21T14:35:43.000Z</time>
      </trkpt>
      <trkpt lat="45.99128" lon="6.55447">
        <ele>1685.81</ele>
        <time>2017-01-21T14:35:48.000Z</time>
      </trkpt>
      <trkpt lat="45.99131" lon="6.55442">
        <ele>1683.89</ele>
        <time>2017-01-21T14:35:51.000Z</time>
      </trkpt>
      <trkpt lat="45.99128" lon="6.55429">
        <ele>1679.56</ele>
        <time>2017-01-21T14:35:54.000Z</time>
      </trkpt>
      <trkpt lat="45.99126" lon="6.55411">
        <ele>1675.23</ele>
        <time>2017-01-21T14:35:57.000Z</time>
      </trkpt>
      <trkpt lat="45.99123" lon="6.55406">
        <ele>1674.27</ele>
        <time>2017-01-21T14:35:59.000Z</time>
      </trkpt>
      <trkpt lat="45.99121" lon="6.55404">
        <ele>1673.79</ele>
        <time>2017-01-21T14:36:04.000Z</time>
      </trkpt>
      <trkpt lat="45.99116" lon="6.55387">
        <ele>1669.47</ele>
        <time>2017-01-21T14:36:10.000Z</time>
      </trkpt>
      <trkpt lat="45.99117" lon="6.55377">
        <ele>1666.1</ele>
        <time>2017-01-21T14:36:12.000Z</time>
      </trkpt>
      <trkpt lat="45.99112" lon="6.55366">
        <ele>1662.26</ele>
        <time>2017-01-21T14:36:18.000Z</time>
      </trkpt>
      <trkpt lat="45.99115" lon="6.55364">
        <ele>1660.33</ele>
        <time>2017-01-21T14:36:19.000Z</time>
      </trkpt>
      <trkpt lat="45.99129" lon="6.5536">
        <ele>1657.93</ele>
        <time>2017-01-21T14:36:23.000Z</time>
      </trkpt>
      <trkpt lat="45.99134" lon="6.55363">
        <ele>1656.97</ele>
        <time>2017-01-21T14:36:31.000Z</time>
      </trkpt>
      <trkpt lat="45.99134" lon="6.55362">
        <ele>1656.97</ele>
        <time>2017-01-21T14:36:33.000Z</time>
      </trkpt>
      <trkpt lat="45.99142" lon="6.55346">
        <ele>1654.09</ele>
        <time>2017-01-21T14:36:39.000Z</time>
      </trkpt>
      <trkpt lat="45.99149" lon="6.5533">
        <ele>1649.28</ele>
        <time>2017-01-21T14:36:43.000Z</time>
      </trkpt>
      <trkpt lat="45.99153" lon="6.55328">
        <ele>1649.28</ele>
        <time>2017-01-21T14:36:44.000Z</time>
      </trkpt>
      <trkpt lat="45.99153" lon="6.55318">
        <ele>1646.4</ele>
        <time>2017-01-21T14:36:47.000Z</time>
      </trkpt>
      <trkpt lat="45.99141" lon="6.55311">
        <ele>1642.55</ele>
        <time>2017-01-21T14:36:51.000Z</time>
      </trkpt>
      <trkpt lat="45.99134" lon="6.55307">
        <ele>1641.11</ele>
        <time>2017-01-21T14:36:53.000Z</time>
      </trkpt>
      <trkpt lat="45.99129" lon="6.55303">
        <ele>1640.63</ele>
        <time>2017-01-21T14:37:03.000Z</time>
      </trkpt>
      <trkpt lat="45.99137" lon="6.55295">
        <ele>1637.74</ele>
        <time>2017-01-21T14:37:08.000Z</time>
      </trkpt>
      <trkpt lat="45.99142" lon="6.5529">
        <ele>1636.3</ele>
        <time>2017-01-21T14:37:10.000Z</time>
      </trkpt>
      <trkpt lat="45.99148" lon="6.55286">
        <ele>1634.86</ele>
        <time>2017-01-21T14:37:14.000Z</time>
      </trkpt>
      <trkpt lat="45.99158" lon="6.55278">
        <ele>1632.46</ele>
        <time>2017-01-21T14:37:22.000Z</time>
      </trkpt>
      <trkpt lat="45.99158" lon="6.55278">
        <ele>1632.46</ele>
        <time>2017-01-21T14:37:25.000Z</time>
      </trkpt>
      <trkpt lat="45.99157" lon="6.55264">
        <ele>1628.61</ele>
        <time>2017-01-21T14:37:31.000Z</time>
      </trkpt>
      <trkpt lat="45.99158" lon="6.55263">
        <ele>1627.17</ele>
        <time>2017-01-21T14:37:34.000Z</time>
      </trkpt>
      <trkpt lat="45.9916" lon="6.55261">
        <ele>1627.17</ele>
        <time>2017-01-21T14:37:43.000Z</time>
      </trkpt>
      <trkpt lat="45.99168" lon="6.55258">
        <ele>1625.25</ele>
        <time>2017-01-21T14:37:52.000Z</time>
      </trkpt>
      <trkpt lat="45.99175" lon="6.55251">
        <ele>1623.8</ele>
        <time>2017-01-21T14:37:58.000Z</time>
      </trkpt>
      <trkpt lat="45.99176" lon="6.55235">
        <ele>1621.88</ele>
        <time>2017-01-21T14:38:03.000Z</time>
      </trkpt>
      <trkpt lat="45.99177" lon="6.55204">
        <ele>1617.07</ele>
        <time>2017-01-21T14:38:08.000Z</time>
      </trkpt>
      <trkpt lat="45.99181" lon="6.55167">
        <ele>1611.79</ele>
        <time>2017-01-21T14:38:13.000Z</time>
      </trkpt>
      <trkpt lat="45.99183" lon="6.55154">
        <ele>1608.42</ele>
        <time>2017-01-21T14:38:15.000Z</time>
      </trkpt>
      <trkpt lat="45.99184" lon="6.55154">
        <ele>1608.42</ele>
        <time>2017-01-21T14:38:16.000Z</time>
      </trkpt>
      <trkpt lat="45.99183" lon="6.55153">
        <ele>1608.42</ele>
        <time>2017-01-21T14:38:24.000Z</time>
      </trkpt>
      <trkpt lat="45.99182" lon="6.55137">
        <ele>1604.1</ele>
        <time>2017-01-21T14:38:29.000Z</time>
      </trkpt>
      <trkpt lat="45.99185" lon="6.55121">
        <ele>1602.66</ele>
        <time>2017-01-21T14:38:33.000Z</time>
      </trkpt>
      <trkpt lat="45.99176" lon="6.55118">
        <ele>1600.73</ele>
        <time>2017-01-21T14:38:36.000Z</time>
      </trkpt>
      <trkpt lat="45.99175" lon="6.55119">
        <ele>1600.73</ele>
        <time>2017-01-21T14:38:37.000Z</time>
      </trkpt>
      <trkpt lat="45.99173" lon="6.55118">
        <ele>1600.73</ele>
        <time>2017-01-21T14:38:39.000Z</time>
      </trkpt>
      <trkpt lat="45.99179" lon="6.55109">
        <ele>1598.33</ele>
        <time>2017-01-21T14:38:43.000Z</time>
      </trkpt>
      <trkpt lat="45.99183" lon="6.55101">
        <ele>1597.85</ele>
        <time>2017-01-21T14:38:47.000Z</time>
      </trkpt>
      <trkpt lat="45.99185" lon="6.55103">
        <ele>1596.89</ele>
        <time>2017-01-21T14:39:02.000Z</time>
      </trkpt>
      <trkpt lat="45.99185" lon="6.55102">
        <ele>1596.89</ele>
        <time>2017-01-21T14:39:07.000Z</time>
      </trkpt>
      <trkpt lat="45.9918" lon="6.551">
        <ele>1595.93</ele>
        <time>2017-01-21T14:39:11.000Z</time>
      </trkpt>
      <trkpt lat="45.9918" lon="6.55102">
        <ele>1595.93</ele>
        <time>2017-01-21T14:39:27.000Z</time>
      </trkpt>
      <trkpt lat="45.99181" lon="6.55103">
        <ele>1595.45</ele>
        <time>2017-01-21T14:39:53.000Z</time>
      </trkpt>
      <trkpt lat="45.99179" lon="6.55103">
        <ele>1595.45</ele>
        <time>2017-01-21T14:39:56.000Z</time>
      </trkpt>
      <trkpt lat="45.99169" lon="6.55104">
        <ele>1593.04</ele>
        <time>2017-01-21T14:40:02.000Z</time>
      </trkpt>
      <trkpt lat="45.99169" lon="6.55103">
        <ele>1593.04</ele>
        <time>2017-01-21T14:40:03.000Z</time>
      </trkpt>
      <trkpt lat="45.99163" lon="6.55095">
        <ele>1591.6</ele>
        <time>2017-01-21T14:40:10.000Z</time>
      </trkpt>
      <trkpt lat="45.99165" lon="6.55091">
        <ele>1589.2</ele>
        <time>2017-01-21T14:40:14.000Z</time>
      </trkpt>
      <trkpt lat="45.99168" lon="6.55086">
        <ele>1586.31</ele>
        <time>2017-01-21T14:40:24.000Z</time>
      </trkpt>
      <trkpt lat="45.9917" lon="6.55084">
        <ele>1585.83</ele>
        <time>2017-01-21T14:40:28.000Z</time>
      </trkpt>
      <trkpt lat="45.99179" lon="6.55073">
        <ele>1583.43</ele>
        <time>2017-01-21T14:40:32.000Z</time>
      </trkpt>
      <trkpt lat="45.99182" lon="6.5507">
        <ele>1581.99</ele>
        <time>2017-01-21T14:40:36.000Z</time>
      </trkpt>
      <trkpt lat="45.99181" lon="6.55055">
        <ele>1577.66</ele>
        <time>2017-01-21T14:40:40.000Z</time>
      </trkpt>
      <trkpt lat="45.9918" lon="6.55042">
        <ele>1574.78</ele>
        <time>2017-01-21T14:40:43.000Z</time>
      </trkpt>
      <trkpt lat="45.99181" lon="6.55036">
        <ele>1572.85</ele>
        <time>2017-01-21T14:40:45.000Z</time>
      </trkpt>
      <trkpt lat="45.99181" lon="6.55027">
        <ele>1569.97</ele>
        <time>2017-01-21T14:40:52.000Z</time>
      </trkpt>
      <trkpt lat="45.99176" lon="6.5503">
        <ele>1570.45</ele>
        <time>2017-01-21T14:41:18.000Z</time>
      </trkpt>
      <trkpt lat="45.99179" lon="6.55025">
        <ele>1570.45</ele>
        <time>2017-01-21T14:41:51.000Z</time>
      </trkpt>
      <trkpt lat="45.99179" lon="6.55025">
        <ele>1570.45</ele>
        <time>2017-01-21T14:41:53.000Z</time>
      </trkpt>
      <trkpt lat="45.99171" lon="6.5502">
        <ele>1567.09</ele>
        <time>2017-01-21T14:41:59.000Z</time>
      </trkpt>
      <trkpt lat="45.9917" lon="6.5502">
        <ele>1567.09</ele>
        <time>2017-01-21T14:42:00.000Z</time>
      </trkpt>
      <trkpt lat="45.99164" lon="6.55016">
        <ele>1565.16</ele>
        <time>2017-01-21T14:42:04.000Z</time>
      </trkpt>
      <trkpt lat="45.9915" lon="6.5501">
        <ele>1561.32</ele>
        <time>2017-01-21T14:42:14.000Z</time>
      </trkpt>
      <trkpt lat="45.99141" lon="6.55005">
        <ele>1559.4</ele>
        <time>2017-01-21T14:42:20.000Z</time>
      </trkpt>
      <trkpt lat="45.99126" lon="6.54996">
        <ele>1557.47</ele>
        <time>2017-01-21T14:42:32.000Z</time>
      </trkpt>
      <trkpt lat="45.99121" lon="6.54992">
        <ele>1556.51</ele>
        <time>2017-01-21T14:42:41.000Z</time>
      </trkpt>
      <trkpt lat="45.99113" lon="6.54985">
        <ele>1554.59</ele>
        <time>2017-01-21T14:42:51.000Z</time>
      </trkpt>
      <trkpt lat="45.99108" lon="6.54977">
        <ele>1551.22</ele>
        <time>2017-01-21T14:43:03.000Z</time>
      </trkpt>
      <trkpt lat="45.99105" lon="6.54976">
        <ele>1551.22</ele>
        <time>2017-01-21T14:43:05.000Z</time>
      </trkpt>
      <trkpt lat="45.99094" lon="6.54972">
        <ele>1549.3</ele>
        <time>2017-01-21T14:43:15.000Z</time>
      </trkpt>
      <trkpt lat="45.9908" lon="6.54976">
        <ele>1547.86</ele>
        <time>2017-01-21T14:43:28.000Z</time>
      </trkpt>
      <trkpt lat="45.99076" lon="6.54972">
        <ele>1545.94</ele>
        <time>2017-01-21T14:43:40.000Z</time>
      </trkpt>
      <trkpt lat="45.99075" lon="6.5497">
        <ele>1545.46</ele>
        <time>2017-01-21T14:43:43.000Z</time>
      </trkpt>
      <trkpt lat="45.99074" lon="6.54964">
        <ele>1543.05</ele>
        <time>2017-01-21T14:43:57.000Z</time>
      </trkpt>
      <trkpt lat="45.99073" lon="6.54961">
        <ele>1542.57</ele>
        <time>2017-01-21T14:44:02.000Z</time>
      </trkpt>
      <trkpt lat="45.99067" lon="6.54953">
        <ele>1540.17</ele>
        <time>2017-01-21T14:44:10.000Z</time>
      </trkpt>
      <trkpt lat="45.9906" lon="6.54944">
        <ele>1538.25</ele>
        <time>2017-01-21T14:44:19.000Z</time>
      </trkpt>
      <trkpt lat="45.99052" lon="6.54932">
        <ele>1535.36</ele>
        <time>2017-01-21T14:44:28.000Z</time>
      </trkpt>
      <trkpt lat="45.99045" lon="6.5492">
        <ele>1532</ele>
        <time>2017-01-21T14:44:42.000Z</time>
      </trkpt>
      <trkpt lat="45.99038" lon="6.54912">
        <ele>1530.08</ele>
        <time>2017-01-21T14:44:54.000Z</time>
      </trkpt>
      <trkpt lat="45.99029" lon="6.54906">
        <ele>1527.19</ele>
        <time>2017-01-21T14:45:07.000Z</time>
      </trkpt>
      <trkpt lat="45.99023" lon="6.54899">
        <ele>1524.79</ele>
        <time>2017-01-21T14:45:22.000Z</time>
      </trkpt>
      <trkpt lat="45.99018" lon="6.54898">
        <ele>1523.83</ele>
        <time>2017-01-21T14:45:37.000Z</time>
      </trkpt>
      <trkpt lat="45.99017" lon="6.54898">
        <ele>1523.83</ele>
        <time>2017-01-21T14:45:41.000Z</time>
      </trkpt>
      <trkpt lat="45.99007" lon="6.54897">
        <ele>1522.39</ele>
        <time>2017-01-21T14:45:52.000Z</time>
      </trkpt>
      <trkpt lat="45.99005" lon="6.54895">
        <ele>1519.98</ele>
        <time>2017-01-21T14:46:07.000Z</time>
      </trkpt>
      <trkpt lat="45.98999" lon="6.54894">
        <ele>1518.06</ele>
        <time>2017-01-21T14:46:21.000Z</time>
      </trkpt>
      <trkpt lat="45.98996" lon="6.54897">
        <ele>1518.54</ele>
        <time>2017-01-21T14:46:33.000Z</time>
      </trkpt>
      <trkpt lat="45.98998" lon="6.54893">
        <ele>1516.62</ele>
        <time>2017-01-21T14:46:35.000Z</time>
      </trkpt>
      <trkpt lat="45.98999" lon="6.54885">
        <ele>1515.18</ele>
        <time>2017-01-21T14:46:48.000Z</time>
      </trkpt>
      <trkpt lat="45.99001" lon="6.54875">
        <ele>1512.77</ele>
        <time>2017-01-21T14:46:58.000Z</time>
      </trkpt>
      <trkpt lat="45.99009" lon="6.54866">
        <ele>1512.29</ele>
        <time>2017-01-21T14:47:17.000Z</time>
      </trkpt>
      <trkpt lat="45.99006" lon="6.54864">
        <ele>1510.85</ele>
        <time>2017-01-21T14:47:32.000Z</time>
      </trkpt>
      <trkpt lat="45.98996" lon="6.54864">
        <ele>1508.93</ele>
        <time>2017-01-21T14:47:41.000Z</time>
      </trkpt>
      <trkpt lat="45.98994" lon="6.54862">
        <ele>1508.93</ele>
        <time>2017-01-21T14:48:06.000Z</time>
      </trkpt>
      <trkpt lat="45.98997" lon="6.54862">
        <ele>1508.93</ele>
        <time>2017-01-21T14:48:23.000Z</time>
      </trkpt>
      <trkpt lat="45.98999" lon="6.54865">
        <ele>1509.41</ele>
        <time>2017-01-21T14:48:46.000Z</time>
      </trkpt>
      <trkpt lat="45.98998" lon="6.54862">
        <ele>1509.41</ele>
        <time>2017-01-21T14:48:50.000Z</time>
      </trkpt>
      <trkpt lat="45.99003" lon="6.54856">
        <ele>1507.48</ele>
        <time>2017-01-21T14:48:59.000Z</time>
      </trkpt>
      <trkpt lat="45.99007" lon="6.54848">
        <ele>1506.04</ele>
        <time>2017-01-21T14:49:10.000Z</time>
      </trkpt>
      <trkpt lat="45.99009" lon="6.54848">
        <ele>1505.56</ele>
        <time>2017-01-21T14:49:17.000Z</time>
      </trkpt>
      <trkpt lat="45.99014" lon="6.54845">
        <ele>1505.08</ele>
        <time>2017-01-21T14:49:19.000Z</time>
      </trkpt>
      <trkpt lat="45.99014" lon="6.54841">
        <ele>1502.2</ele>
        <time>2017-01-21T14:49:29.000Z</time>
      </trkpt>
      <trkpt lat="45.99013" lon="6.54841">
        <ele>1501.72</ele>
        <time>2017-01-21T14:49:41.000Z</time>
      </trkpt>
      <trkpt lat="45.99012" lon="6.54834">
        <ele>1500.27</ele>
        <time>2017-01-21T14:50:02.000Z</time>
      </trkpt>
      <trkpt lat="45.99012" lon="6.54834">
        <ele>1499.31</ele>
        <time>2017-01-21T14:50:10.000Z</time>
      </trkpt>
      <trkpt lat="45.99006" lon="6.54832">
        <ele>1496.91</ele>
        <time>2017-01-21T14:50:24.000Z</time>
      </trkpt>
      <trkpt lat="45.99004" lon="6.54831">
        <ele>1495.95</ele>
        <time>2017-01-21T14:50:39.000Z</time>
      </trkpt>
      <trkpt lat="45.99" lon="6.5483">
        <ele>1494.51</ele>
        <time>2017-01-21T14:50:50.000Z</time>
      </trkpt>
      <trkpt lat="45.98999" lon="6.54828">
        <ele>1494.51</ele>
        <time>2017-01-21T14:50:53.000Z</time>
      </trkpt>
      <trkpt lat="45.98992" lon="6.54822">
        <ele>1491.14</ele>
        <time>2017-01-21T14:51:03.000Z</time>
      </trkpt>
      <trkpt lat="45.98988" lon="6.5482">
        <ele>1489.22</ele>
        <time>2017-01-21T14:51:13.000Z</time>
      </trkpt>
      <trkpt lat="45.9898" lon="6.54815">
        <ele>1487.3</ele>
        <time>2017-01-21T14:51:24.000Z</time>
      </trkpt>
      <trkpt lat="45.98968" lon="6.54817">
        <ele>1485.85</ele>
        <time>2017-01-21T14:51:35.000Z</time>
      </trkpt>
      <trkpt lat="45.98956" lon="6.54817">
        <ele>1483.93</ele>
        <time>2017-01-21T14:51:45.000Z</time>
      </trkpt>
      <trkpt lat="45.98956" lon="6.54816">
        <ele>1483.93</ele>
        <time>2017-01-21T14:51:47.000Z</time>
      </trkpt>
      <trkpt lat="45.9894" lon="6.54813">
        <ele>1479.61</ele>
        <time>2017-01-21T14:51:59.000Z</time>
      </trkpt>
      <trkpt lat="45.98934" lon="6.54813">
        <ele>1477.68</ele>
        <time>2017-01-21T14:52:09.000Z</time>
      </trkpt>
      <trkpt lat="45.98932" lon="6.54813">
        <ele>1476.72</ele>
        <time>2017-01-21T14:52:18.000Z</time>
      </trkpt>
      <trkpt lat="45.98922" lon="6.54811">
        <ele>1473.36</ele>
        <time>2017-01-21T14:52:25.000Z</time>
      </trkpt>
      <trkpt lat="45.98921" lon="6.54811">
        <ele>1473.36</ele>
        <time>2017-01-21T14:52:28.000Z</time>
      </trkpt>
      <trkpt lat="45.98901" lon="6.54806">
        <ele>1469.51</ele>
        <time>2017-01-21T14:52:37.000Z</time>
      </trkpt>
      <trkpt lat="45.98898" lon="6.54802">
        <ele>1469.51</ele>
        <time>2017-01-21T14:52:44.000Z</time>
      </trkpt>
      <trkpt lat="45.98896" lon="6.54796">
        <ele>1468.07</ele>
        <time>2017-01-21T14:52:54.000Z</time>
      </trkpt>
      <trkpt lat="45.98891" lon="6.54799">
        <ele>1466.63</ele>
        <time>2017-01-21T14:53:07.000Z</time>
      </trkpt>
      <trkpt lat="45.9889" lon="6.54799">
        <ele>1466.63</ele>
        <time>2017-01-21T14:53:09.000Z</time>
      </trkpt>
      <trkpt lat="45.98881" lon="6.54792">
        <ele>1463.26</ele>
        <time>2017-01-21T14:53:19.000Z</time>
      </trkpt>
      <trkpt lat="45.98877" lon="6.54788">
        <ele>1461.82</ele>
        <time>2017-01-21T14:53:29.000Z</time>
      </trkpt>
      <trkpt lat="45.98876" lon="6.54789">
        <ele>1461.34</ele>
        <time>2017-01-21T14:53:30.000Z</time>
      </trkpt>
      <trkpt lat="45.98872" lon="6.54788">
        <ele>1459.42</ele>
        <time>2017-01-21T14:53:41.000Z</time>
      </trkpt>
      <trkpt lat="45.98869" lon="6.54789">
        <ele>1458.94</ele>
        <time>2017-01-21T14:53:54.000Z</time>
      </trkpt>
      <trkpt lat="45.98866" lon="6.54787">
        <ele>1457.5</ele>
        <time>2017-01-21T14:54:06.000Z</time>
      </trkpt>
      <trkpt lat="45.98867" lon="6.54786">
        <ele>1457.02</ele>
        <time>2017-01-21T14:54:12.000Z</time>
      </trkpt>
      <trkpt lat="45.98862" lon="6.54785">
        <ele>1455.57</ele>
        <time>2017-01-21T14:54:16.000Z</time>
      </trkpt>
      <trkpt lat="45.9886" lon="6.54784">
        <ele>1453.65</ele>
        <time>2017-01-21T14:54:31.000Z</time>
      </trkpt>
      <trkpt lat="45.98859" lon="6.54783">
        <ele>1452.69</ele>
        <time>2017-01-21T14:54:46.000Z</time>
      </trkpt>
      <trkpt lat="45.98856" lon="6.54784">
        <ele>1452.21</ele>
        <time>2017-01-21T14:54:56.000Z</time>
      </trkpt>
      <trkpt lat="45.98853" lon="6.54783">
        <ele>1450.77</ele>
        <time>2017-01-21T14:55:09.000Z</time>
      </trkpt>
      <trkpt lat="45.98851" lon="6.54782">
        <ele>1449.81</ele>
        <time>2017-01-21T14:55:19.000Z</time>
      </trkpt>
      <trkpt lat="45.98851" lon="6.5478">
        <ele>1449.32</ele>
        <time>2017-01-21T14:55:33.000Z</time>
      </trkpt>
      <trkpt lat="45.98847" lon="6.5478">
        <ele>1447.4</ele>
        <time>2017-01-21T14:55:46.000Z</time>
      </trkpt>
      <trkpt lat="45.98847" lon="6.54778">
        <ele>1446.92</ele>
        <time>2017-01-21T14:56:02.000Z</time>
      </trkpt>
      <trkpt lat="45.98845" lon="6.5478">
        <ele>1446.44</ele>
        <time>2017-01-21T14:56:19.000Z</time>
      </trkpt>
      <trkpt lat="45.98842" lon="6.54778">
        <ele>1445</ele>
        <time>2017-01-21T14:56:35.000Z</time>
      </trkpt>
      <trkpt lat="45.98838" lon="6.54778">
        <ele>1444.52</ele>
        <time>2017-01-21T14:56:50.000Z</time>
      </trkpt>
      <trkpt lat="45.98835" lon="6.54778">
        <ele>1443.56</ele>
        <time>2017-01-21T14:57:02.000Z</time>
      </trkpt>
      <trkpt lat="45.98832" lon="6.54778">
        <ele>1442.6</ele>
        <time>2017-01-21T14:57:19.000Z</time>
      </trkpt>
      <trkpt lat="45.98832" lon="6.54779">
        <ele>1442.11</ele>
        <time>2017-01-21T14:57:30.000Z</time>
      </trkpt>
      <trkpt lat="45.98827" lon="6.54777">
        <ele>1441.15</ele>
        <time>2017-01-21T14:57:46.000Z</time>
      </trkpt>
      <trkpt lat="45.98823" lon="6.54777">
        <ele>1440.19</ele>
        <time>2017-01-21T14:57:57.000Z</time>
      </trkpt>
      <trkpt lat="45.98823" lon="6.54775">
        <ele>1439.23</ele>
        <time>2017-01-21T14:58:10.000Z</time>
      </trkpt>
      <trkpt lat="45.98821" lon="6.54776">
        <ele>1437.79</ele>
        <time>2017-01-21T14:58:25.000Z</time>
      </trkpt>
      <trkpt lat="45.98819" lon="6.54776">
        <ele>1437.79</ele>
        <time>2017-01-21T14:58:38.000Z</time>
      </trkpt>
      <trkpt lat="45.98816" lon="6.54774">
        <ele>1437.31</ele>
        <time>2017-01-21T14:58:52.000Z</time>
      </trkpt>
      <trkpt lat="45.98814" lon="6.54772">
        <ele>1435.87</ele>
        <time>2017-01-21T14:59:04.000Z</time>
      </trkpt>
      <trkpt lat="45.98811" lon="6.54771">
        <ele>1434.42</ele>
        <time>2017-01-21T14:59:18.000Z</time>
      </trkpt>
      <trkpt lat="45.98811" lon="6.54768">
        <ele>1433.46</ele>
        <time>2017-01-21T14:59:29.000Z</time>
      </trkpt>
      <trkpt lat="45.98809" lon="6.54768">
        <ele>1432.98</ele>
        <time>2017-01-21T14:59:42.000Z</time>
      </trkpt>
      <trkpt lat="45.98808" lon="6.54766">
        <ele>1432.5</ele>
        <time>2017-01-21T14:59:54.000Z</time>
      </trkpt>
      <trkpt lat="45.98808" lon="6.54768">
        <ele>1431.54</ele>
        <time>2017-01-21T15:00:10.000Z</time>
      </trkpt>
      <trkpt lat="45.98808" lon="6.54767">
        <ele>1431.06</ele>
        <time>2017-01-21T15:00:24.000Z</time>
      </trkpt>
      <trkpt lat="45.98806" lon="6.54766">
        <ele>1430.58</ele>
        <time>2017-01-21T15:00:35.000Z</time>
      </trkpt>
      <trkpt lat="45.98806" lon="6.54766">
        <ele>1430.58</ele>
        <time>2017-01-21T15:00:36.000Z</time>
      </trkpt>
      <trkpt lat="45.98804" lon="6.54765">
        <ele>1430.1</ele>
        <time>2017-01-21T15:00:38.000Z</time>
      </trkpt>
      <trkpt lat="45.98799" lon="6.54766">
        <ele>1428.66</ele>
        <time>2017-01-21T15:00:42.000Z</time>
      </trkpt>
      <trkpt lat="45.98781" lon="6.54773">
        <ele>1428.18</ele>
        <time>2017-01-21T15:00:56.000Z</time>
      </trkpt>
      <trkpt lat="45.98772" lon="6.5478">
        <ele>1428.18</ele>
        <time>2017-01-21T15:01:09.000Z</time>
      </trkpt>
      <trkpt lat="45.98771" lon="6.54782">
        <ele>1428.18</ele>
        <time>2017-01-21T15:01:24.000Z</time>
      </trkpt>
      <trkpt lat="45.9877" lon="6.54783">
        <ele>1427.7</ele>
        <time>2017-01-21T15:01:57.000Z</time>
      </trkpt>
      <trkpt lat="45.98766" lon="6.54781">
        <ele>1428.18</ele>
        <time>2017-01-21T15:02:13.000Z</time>
      </trkpt>
      <trkpt lat="45.98772" lon="6.54785">
        <ele>1428.18</ele>
        <time>2017-01-21T15:02:49.000Z</time>
      </trkpt>
      <trkpt lat="45.98774" lon="6.54782">
        <ele>1426.73</ele>
        <time>2017-01-21T15:03:14.000Z</time>
      </trkpt>
      <trkpt lat="45.9877" lon="6.54781">
        <ele>1427.7</ele>
        <time>2017-01-21T15:03:25.000Z</time>
      </trkpt>
      <trkpt lat="45.98768" lon="6.54782">
        <ele>1428.66</ele>
        <time>2017-01-21T15:03:47.000Z</time>
      </trkpt>
      <trkpt lat="45.98765" lon="6.54777">
        <ele>1427.7</ele>
        <time>2017-01-21T15:04:07.000Z</time>
      </trkpt>
      <trkpt lat="45.98762" lon="6.54779">
        <ele>1427.21</ele>
        <time>2017-01-21T15:04:20.000Z</time>
      </trkpt>
      <trkpt lat="45.9876" lon="6.54779">
        <ele>1426.73</ele>
        <time>2017-01-21T15:04:27.000Z</time>
      </trkpt>
      <trkpt lat="45.98758" lon="6.54779">
        <ele>1425.77</ele>
        <time>2017-01-21T15:04:29.000Z</time>
      </trkpt>
      <trkpt lat="45.98749" lon="6.54782">
        <ele>1423.85</ele>
        <time>2017-01-21T15:04:37.000Z</time>
      </trkpt>
      <trkpt lat="45.98749" lon="6.54782">
        <ele>1423.85</ele>
        <time>2017-01-21T15:04:38.000Z</time>
      </trkpt>
      <trkpt lat="45.98735" lon="6.54784">
        <ele>1420.97</ele>
        <time>2017-01-21T15:04:47.000Z</time>
      </trkpt>
      <trkpt lat="45.98722" lon="6.54784">
        <ele>1417.6</ele>
        <time>2017-01-21T15:04:57.000Z</time>
      </trkpt>
      <trkpt lat="45.98719" lon="6.54785">
        <ele>1416.64</ele>
        <time>2017-01-21T15:05:03.000Z</time>
      </trkpt>
      <trkpt lat="45.98708" lon="6.54784">
        <ele>1414.72</ele>
        <time>2017-01-21T15:05:10.000Z</time>
      </trkpt>
      <trkpt lat="45.98698" lon="6.5478">
        <ele>1412.79</ele>
        <time>2017-01-21T15:05:21.000Z</time>
      </trkpt>
      <trkpt lat="45.98687" lon="6.54782">
        <ele>1410.39</ele>
        <time>2017-01-21T15:05:27.000Z</time>
      </trkpt>
      <trkpt lat="45.98684" lon="6.54784">
        <ele>1408.95</ele>
        <time>2017-01-21T15:05:30.000Z</time>
      </trkpt>
      <trkpt lat="45.98667" lon="6.54791">
        <ele>1406.55</ele>
        <time>2017-01-21T15:05:38.000Z</time>
      </trkpt>
      <trkpt lat="45.98657" lon="6.54793">
        <ele>1403.66</ele>
        <time>2017-01-21T15:05:43.000Z</time>
      </trkpt>
      <trkpt lat="45.98652" lon="6.54794">
        <ele>1404.14</ele>
        <time>2017-01-21T15:05:48.000Z</time>
      </trkpt>
      <trkpt lat="45.98632" lon="6.54799">
        <ele>1399.82</ele>
        <time>2017-01-21T15:05:58.000Z</time>
      </trkpt>
      <trkpt lat="45.98627" lon="6.548">
        <ele>1398.86</ele>
        <time>2017-01-21T15:06:00.000Z</time>
      </trkpt>
      <trkpt lat="45.98621" lon="6.54799">
        <ele>1396.45</ele>
        <time>2017-01-21T15:06:03.000Z</time>
      </trkpt>
      <trkpt lat="45.98605" lon="6.548">
        <ele>1393.09</ele>
        <time>2017-01-21T15:06:15.000Z</time>
      </trkpt>
      <trkpt lat="45.98598" lon="6.548">
        <ele>1391.65</ele>
        <time>2017-01-21T15:06:25.000Z</time>
      </trkpt>
      <trkpt lat="45.98589" lon="6.54799">
        <ele>1389.24</ele>
        <time>2017-01-21T15:06:34.000Z</time>
      </trkpt>
      <trkpt lat="45.98585" lon="6.54799">
        <ele>1388.28</ele>
        <time>2017-01-21T15:06:36.000Z</time>
      </trkpt>
      <trkpt lat="45.98583" lon="6.54798">
        <ele>1387.32</ele>
        <time>2017-01-21T15:06:37.000Z</time>
      </trkpt>
      <trkpt lat="45.9858" lon="6.54799">
        <ele>1385.88</ele>
        <time>2017-01-21T15:06:39.000Z</time>
      </trkpt>
      <trkpt lat="45.98569" lon="6.54803">
        <ele>1384.92</ele>
        <time>2017-01-21T15:06:49.000Z</time>
      </trkpt>
      <trkpt lat="45.9856" lon="6.54804">
        <ele>1382.99</ele>
        <time>2017-01-21T15:06:52.000Z</time>
      </trkpt>
      <trkpt lat="45.98552" lon="6.54803">
        <ele>1382.03</ele>
        <time>2017-01-21T15:06:54.000Z</time>
      </trkpt>
      <trkpt lat="45.98547" lon="6.54802">
        <ele>1382.03</ele>
        <time>2017-01-21T15:06:55.000Z</time>
      </trkpt>
      <trkpt lat="45.98522" lon="6.54811">
        <ele>1381.55</ele>
        <time>2017-01-21T15:07:06.000Z</time>
      </trkpt>
      <trkpt lat="45.98521" lon="6.54818">
        <ele>1381.55</ele>
        <time>2017-01-21T15:07:23.000Z</time>
      </trkpt>
      <trkpt lat="45.98508" lon="6.54828">
        <ele>1381.55</ele>
        <time>2017-01-21T15:07:39.000Z</time>
      </trkpt>
      <trkpt lat="45.98505" lon="6.5483">
        <ele>1381.55</ele>
        <time>2017-01-21T15:07:42.000Z</time>
      </trkpt>
      <trkpt lat="45.98489" lon="6.54835">
        <ele>1381.55</ele>
        <time>2017-01-21T15:07:53.000Z</time>
      </trkpt>
      <trkpt lat="45.98479" lon="6.54836">
        <ele>1381.55</ele>
        <time>2017-01-21T15:08:09.000Z</time>
      </trkpt>
      <trkpt lat="45.98469" lon="6.54835">
        <ele>1381.55</ele>
        <time>2017-01-21T15:08:21.000Z</time>
      </trkpt>
      <trkpt lat="45.98459" lon="6.54839">
        <ele>1381.55</ele>
        <time>2017-01-21T15:08:36.000Z</time>
      </trkpt>
      <trkpt lat="45.98451" lon="6.54842">
        <ele>1381.55</ele>
        <time>2017-01-21T15:08:48.000Z</time>
      </trkpt>
      <trkpt lat="45.98446" lon="6.54845">
        <ele>1381.55</ele>
        <time>2017-01-21T15:08:53.000Z</time>
      </trkpt>
      <trkpt lat="45.98443" lon="6.54848">
        <ele>1381.55</ele>
        <time>2017-01-21T15:08:55.000Z</time>
      </trkpt>
      <trkpt lat="45.9844" lon="6.54852">
        <ele>1381.07</ele>
        <time>2017-01-21T15:08:56.000Z</time>
      </trkpt>
      <trkpt lat="45.98436" lon="6.54855">
        <ele>1380.11</ele>
        <time>2017-01-21T15:08:57.000Z</time>
      </trkpt>
      <trkpt lat="45.98424" lon="6.5486">
        <ele>1377.71</ele>
        <time>2017-01-21T15:09:00.000Z</time>
      </trkpt>
      <trkpt lat="45.98419" lon="6.54862">
        <ele>1376.26</ele>
        <time>2017-01-21T15:09:01.000Z</time>
      </trkpt>
      <trkpt lat="45.98415" lon="6.54864">
        <ele>1375.3</ele>
        <time>2017-01-21T15:09:02.000Z</time>
      </trkpt>
      <trkpt lat="45.98402" lon="6.54868">
        <ele>1373.38</ele>
        <time>2017-01-21T15:09:09.000Z</time>
      </trkpt>
      <trkpt lat="45.98405" lon="6.54868">
        <ele>1373.38</ele>
        <time>2017-01-21T15:09:35.000Z</time>
      </trkpt>
      <trkpt lat="45.98403" lon="6.54885">
        <ele>1373.38</ele>
        <time>2017-01-21T15:09:59.000Z</time>
      </trkpt>
      <trkpt lat="45.98414" lon="6.54892">
        <ele>1373.38</ele>
        <time>2017-01-21T15:10:25.000Z</time>
      </trkpt>
      <trkpt lat="45.98418" lon="6.54885">
        <ele>1372.9</ele>
        <time>2017-01-21T15:10:49.000Z</time>
      </trkpt>
      <trkpt lat="45.98417" lon="6.54885">
        <ele>1372.9</ele>
        <time>2017-01-21T15:11:05.000Z</time>
      </trkpt>
      <trkpt lat="45.98418" lon="6.54886">
        <ele>1372.9</ele>
        <time>2017-01-21T15:11:21.000Z</time>
      </trkpt>
      <trkpt lat="45.98409" lon="6.54889">
        <ele>1372.42</ele>
        <time>2017-01-21T15:11:47.000Z</time>
      </trkpt>
      <trkpt lat="45.9841" lon="6.54884">
        <ele>1372.42</ele>
        <time>2017-01-21T15:12:10.000Z</time>
      </trkpt>
      <trkpt lat="45.98415" lon="6.54883">
        <ele>1372.42</ele>
        <time>2017-01-21T15:12:31.000Z</time>
      </trkpt>
      <trkpt lat="45.98413" lon="6.54877">
        <ele>1372.42</ele>
        <time>2017-01-21T15:13:00.000Z</time>
      </trkpt>
      <trkpt lat="45.9841" lon="6.5488">
        <ele>1372.42</ele>
        <time>2017-01-21T15:13:28.000Z</time>
      </trkpt>
      <trkpt lat="45.98412" lon="6.54883">
        <ele>1372.42</ele>
        <time>2017-01-21T15:13:57.000Z</time>
      </trkpt>
      <trkpt lat="45.98412" lon="6.54874">
        <ele>1370.02</ele>
        <time>2017-01-21T15:14:01.000Z</time>
      </trkpt>
      <trkpt lat="45.98412" lon="6.54874">
        <ele>1369.05</ele>
        <time>2017-01-21T15:14:02.000Z</time>
      </trkpt>
      <trkpt lat="45.98407" lon="6.54855">
        <ele>1365.69</ele>
        <time>2017-01-21T15:14:08.000Z</time>
      </trkpt>
      <trkpt lat="45.98408" lon="6.54853">
        <ele>1365.69</ele>
        <time>2017-01-21T15:14:19.000Z</time>
      </trkpt>
      <trkpt lat="45.98411" lon="6.54851">
        <ele>1365.69</ele>
        <time>2017-01-21T15:14:32.000Z</time>
      </trkpt>
      <trkpt lat="45.9841" lon="6.54849">
        <ele>1365.69</ele>
        <time>2017-01-21T15:14:36.000Z</time>
      </trkpt>
      <trkpt lat="45.98407" lon="6.54848">
        <ele>1364.73</ele>
        <time>2017-01-21T15:14:49.000Z</time>
      </trkpt>
      <trkpt lat="45.98404" lon="6.54845">
        <ele>1364.73</ele>
        <time>2017-01-21T15:15:14.000Z</time>
      </trkpt>
      <trkpt lat="45.98408" lon="6.54843">
        <ele>1364.73</ele>
        <time>2017-01-21T15:15:36.000Z</time>
      </trkpt>
      <trkpt lat="45.98406" lon="6.54845">
        <ele>1364.73</ele>
        <time>2017-01-21T15:15:53.000Z</time>
      </trkpt>
      <trkpt lat="45.98408" lon="6.54846">
        <ele>1364.73</ele>
        <time>2017-01-21T15:16:12.000Z</time>
      </trkpt>
      <trkpt lat="45.98408" lon="6.54843">
        <ele>1364.73</ele>
        <time>2017-01-21T15:16:29.000Z</time>
      </trkpt>
      <trkpt lat="45.98407" lon="6.54841">
        <ele>1364.73</ele>
        <time>2017-01-21T15:16:31.000Z</time>
      </trkpt>
      <trkpt lat="45.98406" lon="6.54833">
        <ele>1362.33</ele>
        <time>2017-01-21T15:16:40.000Z</time>
      </trkpt>
      <trkpt lat="45.98406" lon="6.54831">
        <ele>1361.36</ele>
        <time>2017-01-21T15:16:41.000Z</time>
      </trkpt>
      <trkpt lat="45.98403" lon="6.54819">
        <ele>1358.96</ele>
        <time>2017-01-21T15:16:47.000Z</time>
      </trkpt>
      <trkpt lat="45.98398" lon="6.54809">
        <ele>1355.12</ele>
        <time>2017-01-21T15:16:53.000Z</time>
      </trkpt>
      <trkpt lat="45.98398" lon="6.54808">
        <ele>1355.12</ele>
        <time>2017-01-21T15:16:54.000Z</time>
      </trkpt>
      <trkpt lat="45.98396" lon="6.54805">
        <ele>1355.12</ele>
        <time>2017-01-21T15:17:15.000Z</time>
      </trkpt>
      <trkpt lat="45.98394" lon="6.54805">
        <ele>1355.12</ele>
        <time>2017-01-21T15:17:19.000Z</time>
      </trkpt>
      <trkpt lat="45.98389" lon="6.5481">
        <ele>1352.71</ele>
        <time>2017-01-21T15:17:23.000Z</time>
      </trkpt>
      <trkpt lat="45.98389" lon="6.5481">
        <ele>1352.71</ele>
        <time>2017-01-21T15:17:25.000Z</time>
      </trkpt>
      <trkpt lat="45.98384" lon="6.54802">
        <ele>1349.35</ele>
        <time>2017-01-21T15:17:31.000Z</time>
      </trkpt>
      <trkpt lat="45.98379" lon="6.54788">
        <ele>1344.54</ele>
        <time>2017-01-21T15:17:36.000Z</time>
      </trkpt>
      <trkpt lat="45.98379" lon="6.54784">
        <ele>1344.06</ele>
        <time>2017-01-21T15:17:40.000Z</time>
      </trkpt>
      <trkpt lat="45.98375" lon="6.54772">
        <ele>1340.7</ele>
        <time>2017-01-21T15:17:44.000Z</time>
      </trkpt>
      <trkpt lat="45.98375" lon="6.5477">
        <ele>1340.7</ele>
        <time>2017-01-21T15:17:45.000Z</time>
      </trkpt>
      <trkpt lat="45.98375" lon="6.54769">
        <ele>1340.7</ele>
        <time>2017-01-21T15:17:46.000Z</time>
      </trkpt>
      <trkpt lat="45.9837" lon="6.54758">
        <ele>1338.29</ele>
        <time>2017-01-21T15:17:54.000Z</time>
      </trkpt>
      <trkpt lat="45.98372" lon="6.54757">
        <ele>1337.81</ele>
        <time>2017-01-21T15:18:10.000Z</time>
      </trkpt>
      <trkpt lat="45.98365" lon="6.54742">
        <ele>1334.45</ele>
        <time>2017-01-21T15:18:15.000Z</time>
      </trkpt>
      <trkpt lat="45.98363" lon="6.54726">
        <ele>1331.56</ele>
        <time>2017-01-21T15:18:19.000Z</time>
      </trkpt>
      <trkpt lat="45.9836" lon="6.54724">
        <ele>1330.12</ele>
        <time>2017-01-21T15:18:21.000Z</time>
      </trkpt>
      <trkpt lat="45.9836" lon="6.54718">
        <ele>1329.64</ele>
        <time>2017-01-21T15:18:23.000Z</time>
      </trkpt>
      <trkpt lat="45.98359" lon="6.54707">
        <ele>1327.72</ele>
        <time>2017-01-21T15:18:26.000Z</time>
      </trkpt>
      <trkpt lat="45.98352" lon="6.54692">
        <ele>1325.31</ele>
        <time>2017-01-21T15:18:29.000Z</time>
      </trkpt>
      <trkpt lat="45.98349" lon="6.54687">
        <ele>1323.87</ele>
        <time>2017-01-21T15:18:30.000Z</time>
      </trkpt>
      <trkpt lat="45.98344" lon="6.54678">
        <ele>1322.91</ele>
        <time>2017-01-21T15:18:32.000Z</time>
      </trkpt>
      <trkpt lat="45.98347" lon="6.54662">
        <ele>1320.03</ele>
        <time>2017-01-21T15:18:36.000Z</time>
      </trkpt>
      <trkpt lat="45.98354" lon="6.54638">
        <ele>1316.66</ele>
        <time>2017-01-21T15:18:41.000Z</time>
      </trkpt>
      <trkpt lat="45.98354" lon="6.54634">
        <ele>1316.18</ele>
        <time>2017-01-21T15:18:42.000Z</time>
      </trkpt>
      <trkpt lat="45.98356" lon="6.54627">
        <ele>1314.26</ele>
        <time>2017-01-21T15:18:44.000Z</time>
      </trkpt>
      <trkpt lat="45.98357" lon="6.54626">
        <ele>1313.78</ele>
        <time>2017-01-21T15:18:45.000Z</time>
      </trkpt>
      <trkpt lat="45.98357" lon="6.54627">
        <ele>1313.3</ele>
        <time>2017-01-21T15:18:57.000Z</time>
      </trkpt>
      <trkpt lat="45.98359" lon="6.54624">
        <ele>1312.82</ele>
        <time>2017-01-21T15:19:02.000Z</time>
      </trkpt>
      <trkpt lat="45.98365" lon="6.54607">
        <ele>1310.9</ele>
        <time>2017-01-21T15:19:07.000Z</time>
      </trkpt>
      <trkpt lat="45.98373" lon="6.54597">
        <ele>1309.45</ele>
        <time>2017-01-21T15:19:10.000Z</time>
      </trkpt>
      <trkpt lat="45.98381" lon="6.54588">
        <ele>1307.53</ele>
        <time>2017-01-21T15:19:12.000Z</time>
      </trkpt>
      <trkpt lat="45.98393" lon="6.54575">
        <ele>1305.61</ele>
        <time>2017-01-21T15:19:15.000Z</time>
      </trkpt>
      <trkpt lat="45.98409" lon="6.54548">
        <ele>1302.72</ele>
        <time>2017-01-21T15:19:20.000Z</time>
      </trkpt>
      <trkpt lat="45.98434" lon="6.54482">
        <ele>1298.88</ele>
        <time>2017-01-21T15:19:32.000Z</time>
      </trkpt>
      <trkpt lat="45.98438" lon="6.54476">
        <ele>1298.88</ele>
        <time>2017-01-21T15:19:40.000Z</time>
      </trkpt>
      <trkpt lat="45.98437" lon="6.54477">
        <ele>1298.4</ele>
        <time>2017-01-21T15:19:53.000Z</time>
      </trkpt>
      <trkpt lat="45.9844" lon="6.54474">
        <ele>1298.88</ele>
        <time>2017-01-21T15:20:08.000Z</time>
      </trkpt>
      <trkpt lat="45.98443" lon="6.54467">
        <ele>1297.92</ele>
        <time>2017-01-21T15:20:12.000Z</time>
      </trkpt>
      <trkpt lat="45.98444" lon="6.54454">
        <ele>1296.48</ele>
        <time>2017-01-21T15:20:16.000Z</time>
      </trkpt>
      <trkpt lat="45.98443" lon="6.54442">
        <ele>1293.59</ele>
        <time>2017-01-21T15:20:23.000Z</time>
      </trkpt>
      <trkpt lat="45.98444" lon="6.54443">
        <ele>1293.59</ele>
        <time>2017-01-21T15:20:36.000Z</time>
      </trkpt>
      <trkpt lat="45.9844" lon="6.54441">
        <ele>1294.55</ele>
        <time>2017-01-21T15:20:48.000Z</time>
      </trkpt>
      <trkpt lat="45.98434" lon="6.54435">
        <ele>1295.03</ele>
        <time>2017-01-21T15:21:00.000Z</time>
      </trkpt>
      <trkpt lat="45.98435" lon="6.54425">
        <ele>1295.99</ele>
        <time>2017-01-21T15:21:11.000Z</time>
      </trkpt>
      <trkpt lat="45.98436" lon="6.54415">
        <ele>1295.99</ele>
        <time>2017-01-21T15:21:23.000Z</time>
      </trkpt>
      <trkpt lat="45.98434" lon="6.54415">
        <ele>1295.99</ele>
        <time>2017-01-21T15:21:35.000Z</time>
      </trkpt>
      <trkpt lat="45.98436" lon="6.54411">
        <ele>1295.99</ele>
        <time>2017-01-21T15:21:46.000Z</time>
      </trkpt>
      <trkpt lat="45.98439" lon="6.54402">
        <ele>1297.44</ele>
        <time>2017-01-21T15:22:00.000Z</time>
      </trkpt>
      <trkpt lat="45.98442" lon="6.54394">
        <ele>1299.36</ele>
        <time>2017-01-21T15:22:14.000Z</time>
      </trkpt>
      <trkpt lat="45.98443" lon="6.54386">
        <ele>1300.32</ele>
        <time>2017-01-21T15:22:29.000Z</time>
      </trkpt>
      <trkpt lat="45.98445" lon="6.54379">
        <ele>1301.28</ele>
        <time>2017-01-21T15:22:42.000Z</time>
      </trkpt>
      <trkpt lat="45.98446" lon="6.54371">
        <ele>1302.24</ele>
        <time>2017-01-21T15:22:56.000Z</time>
      </trkpt>
      <trkpt lat="45.98448" lon="6.54362">
        <ele>1302.24</ele>
        <time>2017-01-21T15:23:15.000Z</time>
      </trkpt>
      <trkpt lat="45.98444" lon="6.54364">
        <ele>1302.72</ele>
        <time>2017-01-21T15:23:31.000Z</time>
      </trkpt>
      <trkpt lat="45.98447" lon="6.54351">
        <ele>1304.17</ele>
        <time>2017-01-21T15:23:49.000Z</time>
      </trkpt>
      <trkpt lat="45.98453" lon="6.54345">
        <ele>1305.61</ele>
        <time>2017-01-21T15:24:05.000Z</time>
      </trkpt>
      <trkpt lat="45.9846" lon="6.54344">
        <ele>1307.53</ele>
        <time>2017-01-21T15:24:21.000Z</time>
      </trkpt>
      <trkpt lat="45.98465" lon="6.54345">
        <ele>1308.01</ele>
        <time>2017-01-21T15:24:36.000Z</time>
      </trkpt>
      <trkpt lat="45.9847" lon="6.54347">
        <ele>1309.45</ele>
        <time>2017-01-21T15:24:51.000Z</time>
      </trkpt>
      <trkpt lat="45.98474" lon="6.54351">
        <ele>1311.38</ele>
        <time>2017-01-21T15:25:08.000Z</time>
      </trkpt>
      <trkpt lat="45.9848" lon="6.54352">
        <ele>1311.86</ele>
        <time>2017-01-21T15:25:23.000Z</time>
      </trkpt>
      <trkpt lat="45.98486" lon="6.54355">
        <ele>1312.82</ele>
        <time>2017-01-21T15:25:36.000Z</time>
      </trkpt>
      <trkpt lat="45.98495" lon="6.54356">
        <ele>1314.26</ele>
        <time>2017-01-21T15:25:51.000Z</time>
      </trkpt>
      <trkpt lat="45.98502" lon="6.54353">
        <ele>1315.22</ele>
        <time>2017-01-21T15:26:05.000Z</time>
      </trkpt>
      <trkpt lat="45.98505" lon="6.54352">
        <ele>1315.22</ele>
        <time>2017-01-21T15:26:18.000Z</time>
      </trkpt>
      <trkpt lat="45.98508" lon="6.54348">
        <ele>1315.22</ele>
        <time>2017-01-21T15:26:30.000Z</time>
      </trkpt>
      <trkpt lat="45.98509" lon="6.54351">
        <ele>1315.22</ele>
        <time>2017-01-21T15:26:47.000Z</time>
      </trkpt>
      <trkpt lat="45.9852" lon="6.54352">
        <ele>1315.7</ele>
        <time>2017-01-21T15:27:02.000Z</time>
      </trkpt>
      <trkpt lat="45.98525" lon="6.54354">
        <ele>1315.7</ele>
        <time>2017-01-21T15:27:15.000Z</time>
      </trkpt>
      <trkpt lat="45.98524" lon="6.54351">
        <ele>1315.7</ele>
        <time>2017-01-21T15:27:51.000Z</time>
      </trkpt>
      <trkpt lat="45.98523" lon="6.54355">
        <ele>1315.7</ele>
        <time>2017-01-21T15:28:20.000Z</time>
      </trkpt>
      <trkpt lat="45.98528" lon="6.54348">
        <ele>1316.18</ele>
        <time>2017-01-21T15:28:55.000Z</time>
      </trkpt>
      <trkpt lat="45.98523" lon="6.54354">
        <ele>1316.18</ele>
        <time>2017-01-21T15:29:23.000Z</time>
      </trkpt>
      <trkpt lat="45.98523" lon="6.54357">
        <ele>1316.18</ele>
        <time>2017-01-21T15:29:49.000Z</time>
      </trkpt>
      <trkpt lat="45.98526" lon="6.54349">
        <ele>1316.18</ele>
        <time>2017-01-21T15:30:12.000Z</time>
      </trkpt>
      <trkpt lat="45.98529" lon="6.54353">
        <ele>1316.18</ele>
        <time>2017-01-21T15:30:36.000Z</time>
      </trkpt>
      <trkpt lat="45.9853" lon="6.54354">
        <ele>1316.18</ele>
        <time>2017-01-21T15:30:41.000Z</time>
      </trkpt>
      <trkpt lat="45.98546" lon="6.54359">
        <ele>1314.74</ele>
        <time>2017-01-21T15:30:49.000Z</time>
      </trkpt>
      <trkpt lat="45.98569" lon="6.54368">
        <ele>1313.3</ele>
        <time>2017-01-21T15:31:02.000Z</time>
      </trkpt>
      <trkpt lat="45.98595" lon="6.54383">
        <ele>1309.93</ele>
        <time>2017-01-21T15:31:12.000Z</time>
      </trkpt>
      <trkpt lat="45.98609" lon="6.54388">
        <ele>1306.57</ele>
        <time>2017-01-21T15:31:17.000Z</time>
      </trkpt>
      <trkpt lat="45.98618" lon="6.54386">
        <ele>1303.2</ele>
        <time>2017-01-21T15:31:20.000Z</time>
      </trkpt>
      <trkpt lat="45.98623" lon="6.54386">
        <ele>1301.76</ele>
        <time>2017-01-21T15:31:21.000Z</time>
      </trkpt>
      <trkpt lat="45.98637" lon="6.54383">
        <ele>1300.32</ele>
        <time>2017-01-21T15:31:24.000Z</time>
      </trkpt>
      <trkpt lat="45.98657" lon="6.54387">
        <ele>1297.44</ele>
        <time>2017-01-21T15:31:28.000Z</time>
      </trkpt>
      <trkpt lat="45.98668" lon="6.54393">
        <ele>1295.99</ele>
        <time>2017-01-21T15:31:30.000Z</time>
      </trkpt>
      <trkpt lat="45.9871" lon="6.5441">
        <ele>1292.15</ele>
        <time>2017-01-21T15:31:37.000Z</time>
      </trkpt>
      <trkpt lat="45.98714" lon="6.54413">
        <ele>1292.15</ele>
        <time>2017-01-21T15:31:38.000Z</time>
      </trkpt>
      <trkpt lat="45.98757" lon="6.54427">
        <ele>1288.78</ele>
        <time>2017-01-21T15:31:47.000Z</time>
      </trkpt>
      <trkpt lat="45.98785" lon="6.54435">
        <ele>1286.86</ele>
        <time>2017-01-21T15:31:57.000Z</time>
      </trkpt>
      <trkpt lat="45.98809" lon="6.54438">
        <ele>1283.5</ele>
        <time>2017-01-21T15:32:03.000Z</time>
      </trkpt>
      <trkpt lat="45.98834" lon="6.54439">
        <ele>1280.13</ele>
        <time>2017-01-21T15:32:10.000Z</time>
      </trkpt>
      <trkpt lat="45.98848" lon="6.5444">
        <ele>1276.77</ele>
        <time>2017-01-21T15:32:18.000Z</time>
      </trkpt>
      <trkpt lat="45.98864" lon="6.54441">
        <ele>1272.92</ele>
        <time>2017-01-21T15:32:24.000Z</time>
      </trkpt>
      <trkpt lat="45.98871" lon="6.54437">
        <ele>1271.48</ele>
        <time>2017-01-21T15:32:27.000Z</time>
      </trkpt>
      <trkpt lat="45.98882" lon="6.54438">
        <ele>1269.56</ele>
        <time>2017-01-21T15:32:31.000Z</time>
      </trkpt>
      <trkpt lat="45.98886" lon="6.5444">
        <ele>1268.12</ele>
        <time>2017-01-21T15:32:33.000Z</time>
      </trkpt>
      <trkpt lat="45.98903" lon="6.54439">
        <ele>1267.16</ele>
        <time>2017-01-21T15:32:44.000Z</time>
      </trkpt>
      <trkpt lat="45.98922" lon="6.54433">
        <ele>1267.16</ele>
        <time>2017-01-21T15:32:56.000Z</time>
      </trkpt>
      <trkpt lat="45.98931" lon="6.54435">
        <ele>1264.27</ele>
        <time>2017-01-21T15:33:00.000Z</time>
      </trkpt>
      <trkpt lat="45.98943" lon="6.54434">
        <ele>1261.39</ele>
        <time>2017-01-21T15:33:04.000Z</time>
      </trkpt>
      <trkpt lat="45.98963" lon="6.54426">
        <ele>1257.06</ele>
        <time>2017-01-21T15:33:16.000Z</time>
      </trkpt>
      <trkpt lat="45.98976" lon="6.54414">
        <ele>1253.7</ele>
        <time>2017-01-21T15:33:21.000Z</time>
      </trkpt>
      <trkpt lat="45.9898" lon="6.54411">
        <ele>1252.25</ele>
        <time>2017-01-21T15:33:23.000Z</time>
      </trkpt>
      <trkpt lat="45.99003" lon="6.54399">
        <ele>1250.33</ele>
        <time>2017-01-21T15:33:35.000Z</time>
      </trkpt>
      <trkpt lat="45.99024" lon="6.54396">
        <ele>1246.49</ele>
        <time>2017-01-21T15:33:40.000Z</time>
      </trkpt>
      <trkpt lat="45.9904" lon="6.54392">
        <ele>1244.56</ele>
        <time>2017-01-21T15:33:47.000Z</time>
      </trkpt>
      <trkpt lat="45.9905" lon="6.54391">
        <ele>1242.64</ele>
        <time>2017-01-21T15:33:58.000Z</time>
      </trkpt>
      <trkpt lat="45.99063" lon="6.5439">
        <ele>1240.72</ele>
        <time>2017-01-21T15:34:07.000Z</time>
      </trkpt>
      <trkpt lat="45.99071" lon="6.54388">
        <ele>1238.8</ele>
        <time>2017-01-21T15:34:10.000Z</time>
      </trkpt>
      <trkpt lat="45.99078" lon="6.54384">
        <ele>1236.87</ele>
        <time>2017-01-21T15:34:18.000Z</time>
      </trkpt>
      <trkpt lat="45.99085" lon="6.54381">
        <ele>1233.99</ele>
        <time>2017-01-21T15:34:24.000Z</time>
      </trkpt>
      <trkpt lat="45.99097" lon="6.54376">
        <ele>1232.55</ele>
        <time>2017-01-21T15:34:34.000Z</time>
      </trkpt>
      <trkpt lat="45.99099" lon="6.54376">
        <ele>1232.07</ele>
        <time>2017-01-21T15:34:36.000Z</time>
      </trkpt>
      <trkpt lat="45.9911" lon="6.54373">
        <ele>1229.66</ele>
        <time>2017-01-21T15:34:47.000Z</time>
      </trkpt>
      <trkpt lat="45.99107" lon="6.54367">
        <ele>1230.62</ele>
        <time>2017-01-21T15:35:00.000Z</time>
      </trkpt>
      <trkpt lat="45.99108" lon="6.54367">
        <ele>1226.78</ele>
        <time>2017-01-21T15:35:01.000Z</time>
      </trkpt>
      <trkpt lat="45.9912" lon="6.54375">
        <ele>1229.66</ele>
        <time>2017-01-21T15:35:18.000Z</time>
      </trkpt>
      <trkpt lat="45.99117" lon="6.54372">
        <ele>1230.14</ele>
        <time>2017-01-21T15:35:39.000Z</time>
      </trkpt>
      <trkpt lat="45.99114" lon="6.54372">
        <ele>1231.59</ele>
        <time>2017-01-21T15:35:42.000Z</time>
      </trkpt>
      <trkpt lat="45.99112" lon="6.54369">
        <ele>1232.07</ele>
        <time>2017-01-21T15:35:55.000Z</time>
      </trkpt>
      <trkpt lat="45.99121" lon="6.54356">
        <ele>1229.18</ele>
        <time>2017-01-21T15:36:00.000Z</time>
      </trkpt>
      <trkpt lat="45.99131" lon="6.54344">
        <ele>1225.82</ele>
        <time>2017-01-21T15:36:04.000Z</time>
      </trkpt>
      <trkpt lat="45.99133" lon="6.54338">
        <ele>1224.86</ele>
        <time>2017-01-21T15:36:13.000Z</time>
      </trkpt>
      <trkpt lat="45.99136" lon="6.54334">
        <ele>1223.42</ele>
        <time>2017-01-21T15:36:24.000Z</time>
      </trkpt>
      <trkpt lat="45.99136" lon="6.54334">
        <ele>1223.42</ele>
        <time>2017-01-21T15:36:26.000Z</time>
      </trkpt>
      <trkpt lat="45.9914" lon="6.54324">
        <ele>1221.97</ele>
        <time>2017-01-21T15:36:30.000Z</time>
      </trkpt>
      <trkpt lat="45.9914" lon="6.54323">
        <ele>1217.65</ele>
        <time>2017-01-21T15:36:32.000Z</time>
      </trkpt>
      <trkpt lat="45.9914" lon="6.54323">
        <ele>1219.57</ele>
        <time>2017-01-21T15:36:33.000Z</time>
      </trkpt>
      <trkpt lat="45.99138" lon="6.54322">
        <ele>1221.49</ele>
        <time>2017-01-21T15:36:46.000Z</time>
      </trkpt>
      <trkpt lat="45.99139" lon="6.54322">
        <ele>1221.49</ele>
        <time>2017-01-21T15:36:48.000Z</time>
      </trkpt>
      <trkpt lat="45.99143" lon="6.54319">
        <ele>1219.57</ele>
        <time>2017-01-21T15:36:52.000Z</time>
      </trkpt>
      <trkpt lat="45.99142" lon="6.54317">
        <ele>1219.09</ele>
        <time>2017-01-21T15:36:55.000Z</time>
      </trkpt>
      <trkpt lat="45.99144" lon="6.54313">
        <ele>1217.17</ele>
        <time>2017-01-21T15:36:58.000Z</time>
      </trkpt>
      <trkpt lat="45.99144" lon="6.54311">
        <ele>1217.17</ele>
        <time>2017-01-21T15:37:01.000Z</time>
      </trkpt>
      <trkpt lat="45.99148" lon="6.54301">
        <ele>1214.28</ele>
        <time>2017-01-21T15:37:05.000Z</time>
      </trkpt>
      <trkpt lat="45.99148" lon="6.54295">
        <ele>1211.88</ele>
        <time>2017-01-21T15:37:12.000Z</time>
      </trkpt>
      <trkpt lat="45.9915" lon="6.5429">
        <ele>1209.96</ele>
        <time>2017-01-21T15:37:16.000Z</time>
      </trkpt>
      <trkpt lat="45.99149" lon="6.54289">
        <ele>1209.96</ele>
        <time>2017-01-21T15:37:18.000Z</time>
      </trkpt>
      <trkpt lat="45.99144" lon="6.54285">
        <ele>1209.48</ele>
        <time>2017-01-21T15:37:25.000Z</time>
      </trkpt>
      <trkpt lat="45.99143" lon="6.54278">
        <ele>1208.03</ele>
        <time>2017-01-21T15:37:33.000Z</time>
      </trkpt>
      <trkpt lat="45.99146" lon="6.54266">
        <ele>1205.63</ele>
        <time>2017-01-21T15:37:38.000Z</time>
      </trkpt>
      <trkpt lat="45.99143" lon="6.54264">
        <ele>1205.15</ele>
        <time>2017-01-21T15:37:45.000Z</time>
      </trkpt>
      <trkpt lat="45.99148" lon="6.54256">
        <ele>1202.75</ele>
        <time>2017-01-21T15:37:50.000Z</time>
      </trkpt>
      <trkpt lat="45.99147" lon="6.54255">
        <ele>1202.75</ele>
        <time>2017-01-21T15:37:51.000Z</time>
      </trkpt>
      <trkpt lat="45.99151" lon="6.54241">
        <ele>1198.9</ele>
        <time>2017-01-21T15:37:57.000Z</time>
      </trkpt>
      <trkpt lat="45.99153" lon="6.54238">
        <ele>1198.9</ele>
        <time>2017-01-21T15:37:58.000Z</time>
      </trkpt>
      <trkpt lat="45.99159" lon="6.54228">
        <ele>1196.98</ele>
        <time>2017-01-21T15:38:01.000Z</time>
      </trkpt>
      <trkpt lat="45.99161" lon="6.54224">
        <ele>1196.02</ele>
        <time>2017-01-21T15:38:02.000Z</time>
      </trkpt>
      <trkpt lat="45.99172" lon="6.54208">
        <ele>1193.61</ele>
        <time>2017-01-21T15:38:06.000Z</time>
      </trkpt>
      <trkpt lat="45.99182" lon="6.54192">
        <ele>1190.73</ele>
        <time>2017-01-21T15:38:10.000Z</time>
      </trkpt>
      <trkpt lat="45.99188" lon="6.5416">
        <ele>1188.33</ele>
        <time>2017-01-21T15:38:15.000Z</time>
      </trkpt>
      <trkpt lat="45.99194" lon="6.54147">
        <ele>1186.4</ele>
        <time>2017-01-21T15:38:18.000Z</time>
      </trkpt>
      <trkpt lat="45.99186" lon="6.54142">
        <ele>1185.44</ele>
        <time>2017-01-21T15:38:23.000Z</time>
      </trkpt>
      <trkpt lat="45.99192" lon="6.5413">
        <ele>1184</ele>
        <time>2017-01-21T15:38:28.000Z</time>
      </trkpt>
      <trkpt lat="45.99208" lon="6.54115">
        <ele>1181.6</ele>
        <time>2017-01-21T15:38:35.000Z</time>
      </trkpt>
      <trkpt lat="45.99209" lon="6.54113">
        <ele>1181.12</ele>
        <time>2017-01-21T15:38:36.000Z</time>
      </trkpt>
      <trkpt lat="45.99205" lon="6.54114">
        <ele>1181.12</ele>
        <time>2017-01-21T15:38:49.000Z</time>
      </trkpt>
      <trkpt lat="45.99202" lon="6.5411">
        <ele>1181.12</ele>
        <time>2017-01-21T15:39:09.000Z</time>
      </trkpt>
      <trkpt lat="45.99206" lon="6.54112">
        <ele>1181.12</ele>
        <time>2017-01-21T15:39:15.000Z</time>
      </trkpt>
      <trkpt lat="45.99226" lon="6.54097">
        <ele>1177.75</ele>
        <time>2017-01-21T15:39:21.000Z</time>
      </trkpt>
      <trkpt lat="45.99238" lon="6.54085">
        <ele>1174.87</ele>
        <time>2017-01-21T15:39:25.000Z</time>
      </trkpt>
      <trkpt lat="45.9925" lon="6.54075">
        <ele>1171.98</ele>
        <time>2017-01-21T15:39:30.000Z</time>
      </trkpt>
      <trkpt lat="45.99257" lon="6.54067">
        <ele>1170.54</ele>
        <time>2017-01-21T15:39:32.000Z</time>
      </trkpt>
      <trkpt lat="45.99276" lon="6.54051">
        <ele>1168.14</ele>
        <time>2017-01-21T15:39:37.000Z</time>
      </trkpt>
      <trkpt lat="45.99279" lon="6.54049">
        <ele>1167.18</ele>
        <time>2017-01-21T15:39:38.000Z</time>
      </trkpt>
      <trkpt lat="45.99283" lon="6.54044">
        <ele>1166.7</ele>
        <time>2017-01-21T15:39:40.000Z</time>
      </trkpt>
      <trkpt lat="45.99284" lon="6.54041">
        <ele>1167.18</ele>
        <time>2017-01-21T15:39:56.000Z</time>
      </trkpt>
      <trkpt lat="45.99296" lon="6.54031">
        <ele>1163.33</ele>
        <time>2017-01-21T15:40:01.000Z</time>
      </trkpt>
      <trkpt lat="45.99299" lon="6.54027">
        <ele>1162.37</ele>
        <time>2017-01-21T15:40:03.000Z</time>
      </trkpt>
      <trkpt lat="45.99307" lon="6.54017">
        <ele>1159.97</ele>
        <time>2017-01-21T15:40:07.000Z</time>
      </trkpt>
      <trkpt lat="45.99319" lon="6.54001">
        <ele>1157.08</ele>
        <time>2017-01-21T15:40:12.000Z</time>
      </trkpt>
      <trkpt lat="45.99324" lon="6.53995">
        <ele>1156.12</ele>
        <time>2017-01-21T15:40:14.000Z</time>
      </trkpt>
      <trkpt lat="45.99327" lon="6.53993">
        <ele>1155.64</ele>
        <time>2017-01-21T15:40:15.000Z</time>
      </trkpt>
      <trkpt lat="45.9933" lon="6.53987">
        <ele>1154.68</ele>
        <time>2017-01-21T15:40:17.000Z</time>
      </trkpt>
      <trkpt lat="45.99333" lon="6.53982">
        <ele>1154.2</ele>
        <time>2017-01-21T15:40:19.000Z</time>
      </trkpt>
      <trkpt lat="45.99335" lon="6.53978">
        <ele>1153.72</ele>
        <time>2017-01-21T15:40:33.000Z</time>
      </trkpt>
      <trkpt lat="45.99334" lon="6.5398">
        <ele>1153.72</ele>
        <time>2017-01-21T15:40:47.000Z</time>
      </trkpt>
      <trkpt lat="45.99339" lon="6.53972">
        <ele>1152.28</ele>
        <time>2017-01-21T15:40:51.000Z</time>
      </trkpt>
      <trkpt lat="45.99349" lon="6.53964">
        <ele>1150.84</ele>
        <time>2017-01-21T15:40:54.000Z</time>
      </trkpt>
      <trkpt lat="45.99358" lon="6.53956">
        <ele>1147.47</ele>
        <time>2017-01-21T15:40:58.000Z</time>
      </trkpt>
      <trkpt lat="45.9936" lon="6.53955">
        <ele>1147.47</ele>
        <time>2017-01-21T15:41:03.000Z</time>
      </trkpt>
      <trkpt lat="45.99363" lon="6.53959">
        <ele>1146.99</ele>
        <time>2017-01-21T15:41:14.000Z</time>
      </trkpt>
      <trkpt lat="45.99363" lon="6.5396">
        <ele>1146.99</ele>
        <time>2017-01-21T15:41:40.000Z</time>
      </trkpt>
      <trkpt lat="45.99363" lon="6.53961">
        <ele>1147.47</ele>
        <time>2017-01-21T15:41:53.000Z</time>
      </trkpt>
      <trkpt lat="45.99368" lon="6.53967">
        <ele>1145.07</ele>
        <time>2017-01-21T15:41:56.000Z</time>
      </trkpt>
      <trkpt lat="45.99373" lon="6.53966">
        <ele>1143.14</ele>
        <time>2017-01-21T15:41:59.000Z</time>
      </trkpt>
      <trkpt lat="45.99371" lon="6.53966">
        <ele>1143.14</ele>
        <time>2017-01-21T15:42:01.000Z</time>
      </trkpt>
      <trkpt lat="45.99379" lon="6.53971">
        <ele>1141.22</ele>
        <time>2017-01-21T15:42:05.000Z</time>
      </trkpt>
      <trkpt lat="45.99392" lon="6.53969">
        <ele>1138.82</ele>
        <time>2017-01-21T15:42:08.000Z</time>
      </trkpt>
      <trkpt lat="45.99411" lon="6.53965">
        <ele>1134.97</ele>
        <time>2017-01-21T15:42:13.000Z</time>
      </trkpt>
      <trkpt lat="45.99418" lon="6.53958">
        <ele>1133.53</ele>
        <time>2017-01-21T15:42:15.000Z</time>
      </trkpt>
      <trkpt lat="45.99428" lon="6.53956">
        <ele>1131.61</ele>
        <time>2017-01-21T15:42:18.000Z</time>
      </trkpt>
      <trkpt lat="45.99434" lon="6.53963">
        <ele>1130.17</ele>
        <time>2017-01-21T15:42:21.000Z</time>
      </trkpt>
      <trkpt lat="45.99429" lon="6.53963">
        <ele>1129.69</ele>
        <time>2017-01-21T15:42:29.000Z</time>
      </trkpt>
      <trkpt lat="45.99432" lon="6.53961">
        <ele>1129.69</ele>
        <time>2017-01-21T15:42:59.000Z</time>
      </trkpt>
      <trkpt lat="45.99429" lon="6.53956">
        <ele>1129.69</ele>
        <time>2017-01-21T15:43:24.000Z</time>
      </trkpt>
      <trkpt lat="45.9943" lon="6.53956">
        <ele>1130.17</ele>
        <time>2017-01-21T15:43:43.000Z</time>
      </trkpt>
      <trkpt lat="45.99442" lon="6.5396">
        <ele>1128.24</ele>
        <time>2017-01-21T15:43:50.000Z</time>
      </trkpt>
      <trkpt lat="45.99441" lon="6.53963">
        <ele>1128.24</ele>
        <time>2017-01-21T15:43:54.000Z</time>
      </trkpt>
      <trkpt lat="45.99458" lon="6.53959">
        <ele>1127.28</ele>
        <time>2017-01-21T15:44:04.000Z</time>
      </trkpt>
      <trkpt lat="45.995" lon="6.53957">
        <ele>1124.4</ele>
        <time>2017-01-21T15:44:15.000Z</time>
      </trkpt>
      <trkpt lat="45.99512" lon="6.53959">
        <ele>1122.96</ele>
        <time>2017-01-21T15:44:18.000Z</time>
      </trkpt>
      <trkpt lat="45.99525" lon="6.53958">
        <ele>1122</ele>
        <time>2017-01-21T15:44:22.000Z</time>
      </trkpt>
      <trkpt lat="45.99533" lon="6.53956">
        <ele>1121.03</ele>
        <time>2017-01-21T15:44:35.000Z</time>
      </trkpt>
      <trkpt lat="45.99533" lon="6.53957">
        <ele>1121.03</ele>
        <time>2017-01-21T15:45:00.000Z</time>
      </trkpt>
      <trkpt lat="45.99533" lon="6.53957">
        <ele>1121.03</ele>
        <time>2017-01-21T15:45:05.000Z</time>
      </trkpt>
      <trkpt lat="45.99535" lon="6.5396">
        <ele>1119.59</ele>
        <time>2017-01-21T15:45:09.000Z</time>
      </trkpt>
      <trkpt lat="45.99538" lon="6.53962">
        <ele>1119.11</ele>
        <time>2017-01-21T15:45:11.000Z</time>
      </trkpt>
      <trkpt lat="45.99555" lon="6.53966">
        <ele>1116.71</ele>
        <time>2017-01-21T15:45:15.000Z</time>
      </trkpt>
      <trkpt lat="45.9958" lon="6.53961">
        <ele>1112.86</ele>
        <time>2017-01-21T15:45:20.000Z</time>
      </trkpt>
      <trkpt lat="45.99599" lon="6.53959">
        <ele>1109.98</ele>
        <time>2017-01-21T15:45:24.000Z</time>
      </trkpt>
      <trkpt lat="45.99623" lon="6.53961">
        <ele>1106.61</ele>
        <time>2017-01-21T15:45:30.000Z</time>
      </trkpt>
      <trkpt lat="45.99634" lon="6.53963">
        <ele>1104.21</ele>
        <time>2017-01-21T15:45:32.000Z</time>
      </trkpt>
      <trkpt lat="45.99661" lon="6.53968">
        <ele>1099.89</ele>
        <time>2017-01-21T15:45:37.000Z</time>
      </trkpt>
      <trkpt lat="45.99685" lon="6.5397">
        <ele>1095.56</ele>
        <time>2017-01-21T15:45:42.000Z</time>
      </trkpt>
      <trkpt lat="45.99705" lon="6.53973">
        <ele>1092.2</ele>
        <time>2017-01-21T15:45:46.000Z</time>
      </trkpt>
      <trkpt lat="45.99723" lon="6.53979">
        <ele>1088.35</ele>
        <time>2017-01-21T15:45:50.000Z</time>
      </trkpt>
      <trkpt lat="45.99731" lon="6.5398">
        <ele>1086.91</ele>
        <time>2017-01-21T15:45:52.000Z</time>
      </trkpt>
      <trkpt lat="45.99757" lon="6.53987">
        <ele>1081.62</ele>
        <time>2017-01-21T15:45:57.000Z</time>
      </trkpt>
      <trkpt lat="45.99763" lon="6.53989">
        <ele>1080.66</ele>
        <time>2017-01-21T15:45:58.000Z</time>
      </trkpt>
      <trkpt lat="45.99784" lon="6.54002">
        <ele>1077.78</ele>
        <time>2017-01-21T15:46:02.000Z</time>
      </trkpt>
      <trkpt lat="45.99812" lon="6.54019">
        <ele>1072.49</ele>
        <time>2017-01-21T15:46:09.000Z</time>
      </trkpt>
      <trkpt lat="45.99813" lon="6.5404">
        <ele>1070.08</ele>
        <time>2017-01-21T15:46:12.000Z</time>
      </trkpt>
      <trkpt lat="45.99817" lon="6.54069">
        <ele>1066.24</ele>
        <time>2017-01-21T15:46:16.000Z</time>
      </trkpt>
      <trkpt lat="45.99817" lon="6.54094">
        <ele>1063.84</ele>
        <time>2017-01-21T15:46:20.000Z</time>
      </trkpt>
      <trkpt lat="45.99818" lon="6.5411">
        <ele>1062.87</ele>
        <time>2017-01-21T15:46:23.000Z</time>
      </trkpt>
      <trkpt lat="45.9982" lon="6.54117">
        <ele>1063.36</ele>
        <time>2017-01-21T15:46:34.000Z</time>
      </trkpt>
      <trkpt lat="45.9982" lon="6.54123">
        <ele>1062.87</ele>
        <time>2017-01-21T15:46:45.000Z</time>
      </trkpt>
      <trkpt lat="45.99819" lon="6.54127">
        <ele>1062.87</ele>
        <time>2017-01-21T15:47:00.000Z</time>
      </trkpt>
      <trkpt lat="45.9982" lon="6.54128">
        <ele>1062.87</ele>
        <time>2017-01-21T15:47:06.000Z</time>
      </trkpt>
      <trkpt lat="45.99827" lon="6.54134">
        <ele>1062.39</ele>
        <time>2017-01-21T15:47:10.000Z</time>
      </trkpt>
      <trkpt lat="45.99838" lon="6.54138">
        <ele>1060.95</ele>
        <time>2017-01-21T15:47:13.000Z</time>
      </trkpt>
      <trkpt lat="45.99881" lon="6.54142">
        <ele>1057.11</ele>
        <time>2017-01-21T15:47:22.000Z</time>
      </trkpt>
      <trkpt lat="45.99928" lon="6.54157">
        <ele>1055.18</ele>
        <time>2017-01-21T15:47:33.000Z</time>
      </trkpt>
      <trkpt lat="45.99965" lon="6.54146">
        <ele>1053.26</ele>
        <time>2017-01-21T15:47:44.000Z</time>
      </trkpt>
      <trkpt lat="45.99978" lon="6.54142">
        <ele>1053.26</ele>
        <time>2017-01-21T15:47:53.000Z</time>
      </trkpt>
      <trkpt lat="45.99994" lon="6.54136">
        <ele>1052.3</ele>
        <time>2017-01-21T15:48:02.000Z</time>
      </trkpt>
      <trkpt lat="46.00014" lon="6.54125">
        <ele>1050.86</ele>
        <time>2017-01-21T15:48:13.000Z</time>
      </trkpt>
      <trkpt lat="46.00041" lon="6.54113">
        <ele>1049.9</ele>
        <time>2017-01-21T15:48:23.000Z</time>
      </trkpt>
      <trkpt lat="46.00087" lon="6.54089">
        <ele>1046.53</ele>
        <time>2017-01-21T15:48:36.000Z</time>
      </trkpt>
      <trkpt lat="46.00102" lon="6.54086">
        <ele>1045.57</ele>
        <time>2017-01-21T15:48:40.000Z</time>
      </trkpt>
      <trkpt lat="46.00106" lon="6.54084">
        <ele>1045.57</ele>
        <time>2017-01-21T15:48:49.000Z</time>
      </trkpt>
      <trkpt lat="46.00107" lon="6.54084">
        <ele>1045.57</ele>
        <time>2017-01-21T15:49:04.000Z</time>
      </trkpt>
      <trkpt lat="46.00109" lon="6.54083">
        <ele>1045.09</ele>
        <time>2017-01-21T15:49:27.000Z</time>
      </trkpt>
      <trkpt lat="46.00113" lon="6.54084">
        <ele>1045.09</ele>
        <time>2017-01-21T15:49:49.000Z</time>
      </trkpt>
      <trkpt lat="46.00113" lon="6.54086">
        <ele>1045.09</ele>
        <time>2017-01-21T15:49:59.000Z</time>
      </trkpt>
      <trkpt lat="46.0015" lon="6.5409">
        <ele>1042.69</ele>
        <time>2017-01-21T15:50:11.000Z</time>
      </trkpt>
      <trkpt lat="46.00176" lon="6.54093">
        <ele>1040.76</ele>
        <time>2017-01-21T15:50:22.000Z</time>
      </trkpt>
      <trkpt lat="46.00191" lon="6.54096">
        <ele>1040.76</ele>
        <time>2017-01-21T15:50:36.000Z</time>
      </trkpt>
      <trkpt lat="46.0021" lon="6.54094">
        <ele>1039.8</ele>
        <time>2017-01-21T15:50:47.000Z</time>
      </trkpt>
      <trkpt lat="46.0025" lon="6.54082">
        <ele>1036.92</ele>
        <time>2017-01-21T15:51:03.000Z</time>
      </trkpt>
      <trkpt lat="46.00301" lon="6.5405">
        <ele>1034.52</ele>
        <time>2017-01-21T15:51:19.000Z</time>
      </trkpt>
      <trkpt lat="46.00342" lon="6.54016">
        <ele>1031.15</ele>
        <time>2017-01-21T15:51:32.000Z</time>
      </trkpt>
      <trkpt lat="46.00355" lon="6.54009">
        <ele>1030.67</ele>
        <time>2017-01-21T15:51:41.000Z</time>
      </trkpt>
      <trkpt lat="46.00359" lon="6.54002">
        <ele>1030.19</ele>
        <time>2017-01-21T15:51:56.000Z</time>
      </trkpt>
      <trkpt lat="46.00381" lon="6.53992">
        <ele>1028.75</ele>
        <time>2017-01-21T15:52:08.000Z</time>
      </trkpt>
      <trkpt lat="46.00412" lon="6.53984">
        <ele>1026.83</ele>
        <time>2017-01-21T15:52:17.000Z</time>
      </trkpt>
      <trkpt lat="46.00422" lon="6.53981">
        <ele>1025.86</ele>
        <time>2017-01-21T15:52:19.000Z</time>
      </trkpt>
      <trkpt lat="46.00454" lon="6.53968">
        <ele>1022.98</ele>
        <time>2017-01-21T15:52:26.000Z</time>
      </trkpt>
      <trkpt lat="46.00475" lon="6.5396">
        <ele>1021.06</ele>
        <time>2017-01-21T15:52:30.000Z</time>
      </trkpt>
      <trkpt lat="46.0051" lon="6.53958">
        <ele>1018.17</ele>
        <time>2017-01-21T15:52:37.000Z</time>
      </trkpt>
      <trkpt lat="46.00551" lon="6.53951">
        <ele>1015.29</ele>
        <time>2017-01-21T15:52:48.000Z</time>
      </trkpt>
      <trkpt lat="46.00573" lon="6.53944">
        <ele>1013.37</ele>
        <time>2017-01-21T15:52:54.000Z</time>
      </trkpt>
      <trkpt lat="46.00583" lon="6.53941">
        <ele>1012.41</ele>
        <time>2017-01-21T15:52:56.000Z</time>
      </trkpt>
      <trkpt lat="46.00591" lon="6.53938">
        <ele>1011.93</ele>
        <time>2017-01-21T15:52:58.000Z</time>
      </trkpt>
      <trkpt lat="46.0061" lon="6.53928">
        <ele>1010.48</ele>
        <time>2017-01-21T15:53:03.000Z</time>
      </trkpt>
      <trkpt lat="46.00624" lon="6.53929">
        <ele>1009.52</ele>
        <time>2017-01-21T15:53:06.000Z</time>
      </trkpt>
      <trkpt lat="46.00648" lon="6.5394">
        <ele>1008.08</ele>
        <time>2017-01-21T15:53:13.000Z</time>
      </trkpt>
      <trkpt lat="46.00658" lon="6.5396">
        <ele>1006.64</ele>
        <time>2017-01-21T15:53:17.000Z</time>
      </trkpt>
      <trkpt lat="46.00669" lon="6.53972">
        <ele>1005.2</ele>
        <time>2017-01-21T15:53:20.000Z</time>
      </trkpt>
      <trkpt lat="46.00691" lon="6.53979">
        <ele>1003.27</ele>
        <time>2017-01-21T15:53:25.000Z</time>
      </trkpt>
      <trkpt lat="46.00707" lon="6.53974">
        <ele>1002.79</ele>
        <time>2017-01-21T15:53:29.000Z</time>
      </trkpt>
      <trkpt lat="46.00746" lon="6.53946">
        <ele>1001.35</ele>
        <time>2017-01-21T15:53:43.000Z</time>
      </trkpt>
      <trkpt lat="46.0078" lon="6.53912">
        <ele>998.95</ele>
        <time>2017-01-21T15:53:57.000Z</time>
      </trkpt>
      <trkpt lat="46.00794" lon="6.53897">
        <ele>997.99</ele>
        <time>2017-01-21T15:54:08.000Z</time>
      </trkpt>
      <trkpt lat="46.00803" lon="6.53886">
        <ele>997.99</ele>
        <time>2017-01-21T15:54:20.000Z</time>
      </trkpt>
      <trkpt lat="46.00806" lon="6.53881">
        <ele>998.47</ele>
        <time>2017-01-21T15:54:32.000Z</time>
      </trkpt>
      <trkpt lat="46.00806" lon="6.53882">
        <ele>997.99</ele>
        <time>2017-01-21T15:54:50.000Z</time>
      </trkpt>
      <trkpt lat="46.00804" lon="6.53888">
        <ele>997.99</ele>
        <time>2017-01-21T15:55:09.000Z</time>
      </trkpt>
      <trkpt lat="46.00806" lon="6.53883">
        <ele>997.99</ele>
        <time>2017-01-21T15:55:25.000Z</time>
      </trkpt>
      <trkpt lat="46.00808" lon="6.53881">
        <ele>997.51</ele>
        <time>2017-01-21T15:55:41.000Z</time>
      </trkpt>
      <trkpt lat="46.00807" lon="6.53879">
        <ele>997.51</ele>
        <time>2017-01-21T15:55:50.000Z</time>
      </trkpt>
      <trkpt lat="46.00809" lon="6.5387">
        <ele>997.02</ele>
        <time>2017-01-21T15:56:00.000Z</time>
      </trkpt>
      <trkpt lat="46.0081" lon="6.53867">
        <ele>997.51</ele>
        <time>2017-01-21T15:56:03.000Z</time>
      </trkpt>
      <trkpt lat="46.00811" lon="6.53859">
        <ele>997.02</ele>
        <time>2017-01-21T15:56:14.000Z</time>
      </trkpt>
      <trkpt lat="46.00812" lon="6.53848">
        <ele>996.54</ele>
        <time>2017-01-21T15:56:31.000Z</time>
      </trkpt>
      <trkpt lat="46.00811" lon="6.53843">
        <ele>996.54</ele>
        <time>2017-01-21T15:56:38.000Z</time>
      </trkpt>
      <trkpt lat="46.00815" lon="6.53832">
        <ele>996.54</ele>
        <time>2017-01-21T15:56:50.000Z</time>
      </trkpt>
      <trkpt lat="46.00816" lon="6.53824">
        <ele>996.54</ele>
        <time>2017-01-21T15:57:00.000Z</time>
      </trkpt>
      <trkpt lat="46.00819" lon="6.53814">
        <ele>996.54</ele>
        <time>2017-01-21T15:57:11.000Z</time>
      </trkpt>
      <trkpt lat="46.00821" lon="6.53807">
        <ele>998.47</ele>
        <time>2017-01-21T15:57:23.000Z</time>
      </trkpt>
      <trkpt lat="46.00822" lon="6.53801">
        <ele>998.47</ele>
        <time>2017-01-21T15:57:32.000Z</time>
      </trkpt>
      <trkpt lat="46.00822" lon="6.538">
        <ele>998.47</ele>
        <time>2017-01-21T15:57:46.000Z</time>
      </trkpt>
      <trkpt lat="46.00824" lon="6.53794">
        <ele>998.47</ele>
        <time>2017-01-21T15:57:51.000Z</time>
      </trkpt>
      <trkpt lat="46.00824" lon="6.53792">
        <ele>998.47</ele>
        <time>2017-01-21T15:57:53.000Z</time>
      </trkpt>
      <trkpt lat="46.00825" lon="6.53788">
        <ele>998.47</ele>
        <time>2017-01-21T15:57:56.000Z</time>
      </trkpt>
      <trkpt lat="46.00831" lon="6.53774">
        <ele>998.47</ele>
        <time>2017-01-21T15:58:09.000Z</time>
      </trkpt>
      <trkpt lat="46.00835" lon="6.53764">
        <ele>997.02</ele>
        <time>2017-01-21T15:58:18.000Z</time>
      </trkpt>
      <trkpt lat="46.00839" lon="6.53758">
        <ele>997.02</ele>
        <time>2017-01-21T15:58:32.000Z</time>
      </trkpt>
      <trkpt lat="46.00845" lon="6.5375">
        <ele>996.54</ele>
        <time>2017-01-21T15:58:42.000Z</time>
      </trkpt>
      <trkpt lat="46.00848" lon="6.53743">
        <ele>996.54</ele>
        <time>2017-01-21T15:58:55.000Z</time>
      </trkpt>
      <trkpt lat="46.00854" lon="6.53735">
        <ele>996.54</ele>
        <time>2017-01-21T15:59:07.000Z</time>
      </trkpt>
      <trkpt lat="46.00857" lon="6.53729">
        <ele>997.51</ele>
        <time>2017-01-21T15:59:19.000Z</time>
      </trkpt>
      <trkpt lat="46.00858" lon="6.53727">
        <ele>997.99</ele>
        <time>2017-01-21T15:59:28.000Z</time>
      </trkpt>
      <trkpt lat="46.00861" lon="6.53722">
        <ele>998.47</ele>
        <time>2017-01-21T15:59:39.000Z</time>
      </trkpt>
      <trkpt lat="46.00863" lon="6.53718">
        <ele>998.95</ele>
        <time>2017-01-21T15:59:52.000Z</time>
      </trkpt>
      <trkpt lat="46.00863" lon="6.53713">
        <ele>998.95</ele>
        <time>2017-01-21T16:00:04.000Z</time>
      </trkpt>
      <trkpt lat="46.00863" lon="6.53711">
        <ele>999.43</ele>
        <time>2017-01-21T16:00:18.000Z</time>
      </trkpt>
      <trkpt lat="46.00864" lon="6.53706">
        <ele>999.43</ele>
        <time>2017-01-21T16:00:36.000Z</time>
      </trkpt>
      <trkpt lat="46.00867" lon="6.53697">
        <ele>999.91</ele>
        <time>2017-01-21T16:00:51.000Z</time>
      </trkpt>
      <trkpt lat="46.00869" lon="6.53688">
        <ele>1000.39</ele>
        <time>2017-01-21T16:01:02.000Z</time>
      </trkpt>
      <trkpt lat="46.0087" lon="6.53678">
        <ele>1000.39</ele>
        <time>2017-01-21T16:01:13.000Z</time>
      </trkpt>
      <trkpt lat="46.00872" lon="6.53673">
        <ele>1000.39</ele>
        <time>2017-01-21T16:01:23.000Z</time>
      </trkpt>
      <trkpt lat="46.0088" lon="6.53643">
        <ele>998.95</ele>
        <time>2017-01-21T16:01:37.000Z</time>
      </trkpt>
      <trkpt lat="46.00882" lon="6.53608">
        <ele>996.54</ele>
        <time>2017-01-21T16:01:49.000Z</time>
      </trkpt>
      <trkpt lat="46.00887" lon="6.536">
        <ele>997.02</ele>
        <time>2017-01-21T16:02:02.000Z</time>
      </trkpt>
      <trkpt lat="46.00889" lon="6.53587">
        <ele>997.02</ele>
        <time>2017-01-21T16:02:17.000Z</time>
      </trkpt>
      <trkpt lat="46.00891" lon="6.53579">
        <ele>996.54</ele>
        <time>2017-01-21T16:02:24.000Z</time>
      </trkpt>
      <trkpt lat="46.00891" lon="6.53565">
        <ele>995.1</ele>
        <time>2017-01-21T16:02:37.000Z</time>
      </trkpt>
      <trkpt lat="46.0089" lon="6.5356">
        <ele>995.1</ele>
        <time>2017-01-21T16:02:53.000Z</time>
      </trkpt>
      <trkpt lat="46.00891" lon="6.5355">
        <ele>994.62</ele>
        <time>2017-01-21T16:03:05.000Z</time>
      </trkpt>
      <trkpt lat="46.00893" lon="6.53545">
        <ele>994.62</ele>
        <time>2017-01-21T16:03:14.000Z</time>
      </trkpt>
      <trkpt lat="46.00895" lon="6.53538">
        <ele>994.62</ele>
        <time>2017-01-21T16:03:26.000Z</time>
      </trkpt>
      <trkpt lat="46.00899" lon="6.53529">
        <ele>994.62</ele>
        <time>2017-01-21T16:03:37.000Z</time>
      </trkpt>
      <trkpt lat="46.009" lon="6.53527">
        <ele>994.62</ele>
        <time>2017-01-21T16:03:42.000Z</time>
      </trkpt>
      <trkpt lat="46.00905" lon="6.53519">
        <ele>994.62</ele>
        <time>2017-01-21T16:03:57.000Z</time>
      </trkpt>
      <trkpt lat="46.00911" lon="6.53512">
        <ele>994.62</ele>
        <time>2017-01-21T16:04:10.000Z</time>
      </trkpt>
      <trkpt lat="46.00917" lon="6.53504">
        <ele>994.62</ele>
        <time>2017-01-21T16:04:21.000Z</time>
      </trkpt>
      <trkpt lat="46.00926" lon="6.53491">
        <ele>994.14</ele>
        <time>2017-01-21T16:04:36.000Z</time>
      </trkpt>
      <trkpt lat="46.0093" lon="6.53485">
        <ele>993.66</ele>
        <time>2017-01-21T16:04:47.000Z</time>
      </trkpt>
      <trkpt lat="46.00939" lon="6.53467">
        <ele>992.22</ele>
        <time>2017-01-21T16:05:00.000Z</time>
      </trkpt>
      <trkpt lat="46.00943" lon="6.5346">
        <ele>992.22</ele>
        <time>2017-01-21T16:05:11.000Z</time>
      </trkpt>
      <trkpt lat="46.00946" lon="6.5346">
        <ele>992.22</ele>
        <time>2017-01-21T16:05:23.000Z</time>
      </trkpt>
      <trkpt lat="46.00945" lon="6.5346">
        <ele>992.22</ele>
        <time>2017-01-21T16:05:36.000Z</time>
      </trkpt>
      <trkpt lat="46.00944" lon="6.53461">
        <ele>992.22</ele>
        <time>2017-01-21T16:05:52.000Z</time>
      </trkpt>
      <trkpt lat="46.00943" lon="6.53459">
        <ele>992.7</ele>
        <time>2017-01-21T16:06:00.000Z</time>
      </trkpt>
      <trkpt lat="46.00944" lon="6.53455">
        <ele>993.18</ele>
        <time>2017-01-21T16:06:14.000Z</time>
      </trkpt>
      <trkpt lat="46.00943" lon="6.53437">
        <ele>995.1</ele>
        <time>2017-01-21T16:06:33.000Z</time>
      </trkpt>
      <trkpt lat="46.00939" lon="6.53424">
        <ele>997.02</ele>
        <time>2017-01-21T16:06:48.000Z</time>
      </trkpt>
      <trkpt lat="46.00938" lon="6.53418">
        <ele>997.51</ele>
        <time>2017-01-21T16:07:03.000Z</time>
      </trkpt>
      <trkpt lat="46.00939" lon="6.53414">
        <ele>998.47</ele>
        <time>2017-01-21T16:07:21.000Z</time>
      </trkpt>
      <trkpt lat="46.00938" lon="6.5341">
        <ele>998.95</ele>
        <time>2017-01-21T16:07:35.000Z</time>
      </trkpt>
      <trkpt lat="46.00942" lon="6.53407">
        <ele>1000.39</ele>
        <time>2017-01-21T16:07:48.000Z</time>
      </trkpt>
      <trkpt lat="46.00945" lon="6.534">
        <ele>1001.35</ele>
        <time>2017-01-21T16:08:04.000Z</time>
      </trkpt>
      <trkpt lat="46.00945" lon="6.53397">
        <ele>1002.31</ele>
        <time>2017-01-21T16:08:19.000Z</time>
      </trkpt>
      <trkpt lat="46.00949" lon="6.53395">
        <ele>1002.79</ele>
        <time>2017-01-21T16:08:34.000Z</time>
      </trkpt>
      <trkpt lat="46.00951" lon="6.53391">
        <ele>1004.23</ele>
        <time>2017-01-21T16:08:47.000Z</time>
      </trkpt>
      <trkpt lat="46.00953" lon="6.53385">
        <ele>1005.2</ele>
        <time>2017-01-21T16:09:02.000Z</time>
      </trkpt>
      <trkpt lat="46.00953" lon="6.53382">
        <ele>1006.16</ele>
        <time>2017-01-21T16:09:16.000Z</time>
      </trkpt>
      <trkpt lat="46.00954" lon="6.53378">
        <ele>1007.6</ele>
        <time>2017-01-21T16:09:23.000Z</time>
      </trkpt>
      <trkpt lat="46.00955" lon="6.53375">
        <ele>1008.56</ele>
        <time>2017-01-21T16:09:37.000Z</time>
      </trkpt>
      <trkpt lat="46.00955" lon="6.5337">
        <ele>1010</ele>
        <time>2017-01-21T16:09:51.000Z</time>
      </trkpt>
      <trkpt lat="46.00958" lon="6.53354">
        <ele>1010</ele>
        <time>2017-01-21T16:10:05.000Z</time>
      </trkpt>
      <trkpt lat="46.00959" lon="6.53342">
        <ele>1010</ele>
        <time>2017-01-21T16:10:16.000Z</time>
      </trkpt>
    </trkseg>
  </trk>
</gpx>